[[{"header":{"parameterUnit":"m.s-1","parameterCategory":1,"la1":30.6,"la2":28.766,"lo1":-90.7593,"lo2":-88.6598,"dy":0.0162,"dx":0.0183,"nx":116,"ny":114,"refTime":"2024-04-25T12:00:00:Z","depth":0,"parameterNumber":2,"parameterNumberName":"U-component_of_WINDS"},"data":[0.0,0.0,0.0,0.0,0.0,0.0,0.0,0.0,0.0,0.0,0.0,0.0,0.0,0.0,0.0,0.0,0.0,0.0,0.0,0.0,0.0,0.0,0.0,0.0,0.0,0.0,0.0,0.0,0.0,0.0,0.0,0.0,0.0,0.0,0.0,0.0,0.0,0.0,0.0,0.0,0.0,0.0,0.0,0.0,0.0,0.0,0.0,0.0,0.0,0.0,0.0,0.0,0.0,0.0,0.0,0.0,0.0,0.0,0.0,0.0,0.0,0.0,0.0,0.0,0.0,0.0,0.0,0.0,0.0,0.0,0.0,0.0,0.0,0.0,0.0,0.0,0.0,0.0,0.0,0.0,0.0,0.0,0.0,0.0,0.0,0.0,0.0,0.0,0.0,0.0,0.0,0.0,0.0,0.0,0.0,0.0,0.0,0.0,0.0,0.0,0.0,0.0,0.0,0.0,0.0,0.0,0.0,0.0,0.0,0.0,0.0,0.0,0.0,0.0,0.0,0.0,0.0,0.0,0.0,0.0,0.0,0.0,0.0,0.0,0.0,0.0,0.0,0.0,0.0,0.0,0.0,0.0,0.0,0.0,0.0,0.0,0.0,0.0,0.0,0.0,0.0,0.0,0.0,0.0,0.0,0.0,0.0,0.0,0.0,0.0,0.0,0.0,0.0,0.0,0.0,0.0,0.0,0.0,0.0,0.0,0.0,0.0,0.0,0.0,0.0,0.0,0.0,0.0,0.0,0.0,0.0,0.0,0.0,0.0,0.0,0.0,0.0,0.0,0.0,0.0,0.0,0.0,0.0,0.0,0.0,0.0,0.0,0.0,0.0,0.0,0.0,0.0,0.0,0.0,0.0,0.0,0.0,0.0,0.0,0.0,0.0,0.0,0.0,0.0,0.0,0.0,0.0,0.0,0.0,0.0,0.0,0.0,0.0,0.0,0.0,0.0,0.0,0.0,0.0,0.0,0.0,0.0,0.0,0.0,0.0,0.0,0.0,0.0,0.0,0.0,0.0,0.0,0.0,0.0,0.0,0.0,0.0,0.0,0.0,0.0,0.0,0.0,0.0,0.0,0.0,0.0,0.0,0.0,0.0,0.0,0.0,0.0,0.0,0.0,0.0,0.0,0.0,0.0,0.0,0.0,0.0,0.0,0.0,0.0,0.0,0.0,0.0,0.0,0.0,0.0,0.0,0.0,0.0,0.0,0.0,0.0,0.0,0.0,0.0,0.0,0.0,0.0,0.0,0.0,0.0,0.0,0.0,0.0,0.0,0.0,0.0,0.0,0.0,0.0,0.0,0.0,0.0,0.0,0.0,0.0,0.0,0.0,0.0,0.0,0.0,0.0,0.0,0.0,0.0,0.0,0.0,0.0,0.0,0.0,0.0,0.0,0.0,0.0,0.0,0.0,0.0,0.0,0.0,0.0,0.0,0.0,0.0,0.0,0.0,0.0,0.0,0.0,0.0,0.0,0.0,0.0,0.0,0.0,0.0,0.0,0.0,0.0,0.0,0.0,0.0,0.0,0.0,0.0,0.0,0.0,0.0,0.0,0.0,0.0,0.0,0.0,0.0,0.0,0.0,0.0,0.0,0.0,0.0,0.0,0.0,0.0,0.0,0.0,0.0,0.0,0.0,0.0,0.0,0.0,0.0,0.0,0.0,0.0,0.0,0.0,0.0,0.0,0.0,0.0,0.0,0.0,0.0,0.0,0.0,0.0,0.0,0.0,0.0,0.0,0.0,0.0,0.0,0.0,0.0,0.0,0.0,0.0,0.0,0.0,0.0,0.0,0.0,0.0,0.0,0.0,0.0,0.0,0.0,0.0,0.0,0.0,0.0,0.0,0.0,0.0,0.0,0.0,0.0,0.0,0.0,0.0,0.0,0.0,0.0,0.0,0.0,0.0,0.0,0.0,0.0,0.0,0.0,0.0,0.0,0.0,0.0,0.0,0.0,0.0,0.0,0.0,0.0,0.0,0.0,0.0,0.0,0.0,0.0,0.0,0.0,0.0,0.0,0.0,0.0,0.0,0.0,0.0,0.0,0.0,0.0,0.0,0.0,0.0,0.0,0.0,0.0,0.0,0.0,0.0,0.0,0.0,0.0,0.0,0.0,0.0,0.0,0.0,0.0,0.0,0.0,0.0,0.0,0.0,0.0,0.0,0.0,0.0,0.0,0.0,0.0,0.0,0.0,0.0,0.0,0.0,0.0,0.0,0.0,0.0,0.0,0.0,0.0,0.0,0.0,0.0,0.0,0.0,0.0,0.0,0.0,0.0,0.0,0.0,0.0,0.0,0.0,0.0,0.0,0.0,0.0,0.0,0.0,0.0,0.0,0.0,0.0,0.0,0.0,0.0,0.0,0.0,0.0,0.0,0.0,0.0,0.0,0.0,0.0,0.0,0.0,0.0,0.0,0.0,0.0,0.0,0.0,0.0,0.0,0.0,0.0,0.0,0.0,0.0,0.0,0.0,0.0,0.0,0.0,0.0,0.0,0.0,0.0,0.0,0.0,0.0,0.0,0.0,0.0,0.0,0.0,0.0,0.0,0.0,0.0,0.0,0.0,0.0,0.0,0.0,0.0,0.0,0.0,0.0,0.0,0.0,0.0,0.0,0.0,0.0,0.0,0.0,0.0,0.0,0.0,0.0,0.0,0.0,0.0,0.0,0.0,0.0,0.0,0.0,0.0,0.0,0.0,0.0,0.0,0.0,0.0,0.0,0.0,0.0,0.0,0.0,0.0,0.0,0.0,0.0,0.0,0.0,0.0,0.0,0.0,0.0,0.0,0.0,0.0,0.0,0.0,0.0,0.0,0.0,0.0,0.0,0.0,0.0,0.0,0.0,0.0,0.0,0.0,0.0,0.0,0.0,0.0,0.0,0.0,0.0,0.0,0.0,0.0,0.0,0.0,0.0,0.0,0.0,0.0,0.0,0.0,0.0,0.0,0.0,0.0,0.0,0.0,0.0,0.0,0.0,0.0,0.0,0.0,0.0,0.0,0.0,0.0,0.0,0.0,0.0,0.0,0.0,0.0,0.0,0.0,0.0,0.0,0.0,0.0,0.0,0.0,0.0,0.0,0.0,0.0,0.0,0.0,0.0,0.0,0.0,0.0,0.0,0.0,0.0,0.0,0.0,0.0,0.0,0.0,0.0,0.0,0.0,0.0,0.0,0.0,0.0,0.0,0.0,0.0,0.0,0.0,0.0,0.0,0.0,0.0,0.0,0.0,0.0,0.0,0.0,0.0,0.0,0.0,0.0,0.0,0.0,0.0,0.0,0.0,0.0,0.0,0.0,0.0,0.0,0.0,0.0,0.0,0.0,0.0,0.0,0.0,0.0,0.0,0.0,0.0,0.0,0.0,0.0,0.0,0.0,0.0,0.0,0.0,0.0,0.0,0.0,0.0,0.0,0.0,0.0,0.0,0.0,0.0,0.0,0.0,0.0,0.0,0.0,0.0,0.0,0.0,0.0,0.0,0.0,0.0,0.0,0.0,0.0,0.0,0.0,0.0,0.0,0.0,0.0,0.0,0.0,0.0,0.0,0.0,0.0,0.0,0.0,0.0,0.0,0.0,0.0,0.0,0.0,0.0,0.0,0.0,0.0,0.0,0.0,0.0,0.0,0.0,0.0,0.0,0.0,0.0,0.0,0.0,0.0,0.0,0.0,0.0,0.0,0.0,0.0,0.0,0.0,0.0,0.0,0.0,0.0,0.0,0.0,0.0,0.0,0.0,0.0,0.0,0.0,0.0,0.0,0.0,0.0,0.0,0.0,0.0,0.0,0.0,0.0,0.0,0.0,0.0,0.0,0.0,0.0,0.0,0.0,0.0,0.0,0.0,0.0,0.0,0.0,0.0,0.0,0.0,0.0,0.0,0.0,0.0,0.0,0.0,0.0,0.0,0.0,0.0,0.0,0.0,0.0,0.0,0.0,0.0,0.0,0.0,0.0,0.0,0.0,0.0,0.0,0.0,0.0,0.0,0.0,0.0,0.0,0.0,0.0,0.0,0.0,0.0,0.0,0.0,0.0,0.0,0.0,0.0,0.0,0.0,0.0,0.0,0.0,0.0,0.0,0.0,0.0,0.0,0.0,0.0,0.0,0.0,0.0,0.0,0.0,0.0,0.0,0.0,0.0,0.0,0.0,0.0,0.0,0.0,0.0,0.0,0.0,0.0,0.0,0.0,0.0,0.0,0.0,0.0,0.0,0.0,0.0,0.0,0.0,0.0,0.0,0.0,0.0,0.0,0.0,0.0,0.0,0.0,0.0,0.0,0.0,0.0,0.0,0.0,0.0,0.0,0.0,0.0,0.0,0.0,0.0,0.0,0.0,0.0,0.0,0.0,0.0,0.0,0.0,0.0,0.0,0.0,0.0,0.0,0.0,0.0,0.0,0.0,0.0,0.0,0.0,0.0,0.0,0.0,0.0,0.0,0.0,0.0,0.0,0.0,0.0,0.0,0.0,0.0,0.0,0.0,0.0,0.0,0.0,0.0,0.0,0.0,0.0,0.0,0.0,0.0,0.0,0.0,0.0,0.0,0.0,0.0,0.0,0.0,0.0,0.0,0.0,0.0,0.0,0.0,0.0,0.0,0.0,0.0,0.0,0.0,0.0,0.0,0.0,0.0,0.0,0.0,0.0,0.0,0.0,0.0,0.0,0.0,0.0,0.0,0.0,0.0,0.0,0.0,0.0,0.0,0.0,0.0,0.0,0.0,0.0,0.0,0.0,0.0,0.0,0.0,0.0,0.0,0.0,0.0,0.0,0.0,0.0,0.0,0.0,0.0,0.0,0.0,0.0,0.0,0.0,0.0,0.0,0.0,0.0,0.0,0.0,0.0,0.0,0.0,0.0,0.0,0.0,0.0,0.0,0.0,0.0,0.0,0.0,0.0,0.0,0.0,0.0,0.0,0.0,0.0,0.0,0.0,0.0,0.0,0.0,0.0,0.0,0.0,0.0,0.0,0.0,0.0,0.0,0.0,0.0,0.0,0.0,0.0,0.0,0.0,0.0,0.0,0.0,0.0,0.0,0.0,0.0,0.0,0.0,0.0,0.0,0.0,0.0,0.0,0.0,0.0,0.0,0.0,0.0,0.0,0.0,0.0,0.0,0.0,0.0,0.0,0.0,0.0,0.0,0.0,0.0,0.0,0.0,0.0,0.0,0.0,0.0,0.0,0.0,0.0,0.0,0.0,0.0,0.0,0.0,0.0,0.0,0.0,0.0,0.0,0.0,0.0,0.0,0.0,0.0,0.0,0.0,0.0,0.0,0.0,0.0,0.0,0.0,0.0,0.0,0.0,0.0,0.0,0.0,0.0,0.0,0.0,0.0,0.0,0.0,0.0,0.0,0.0,0.0,0.0,0.0,0.0,0.0,0.0,0.0,0.0,0.0,0.0,0.0,0.0,0.0,0.0,0.0,0.0,0.0,0.0,0.0,0.0,0.0,0.0,0.0,0.0,0.0,0.0,0.0,0.0,0.0,0.0,0.0,0.0,0.0,0.0,0.0,0.0,0.0,0.0,0.0,0.0,0.0,0.0,0.0,0.0,0.0,0.0,0.0,0.0,0.0,0.0,0.0,0.0,0.0,0.0,0.0,0.0,0.0,0.0,0.0,0.0,0.0,0.0,0.0,0.0,0.0,0.0,0.0,0.0,0.0,0.0,0.0,0.0,0.0,0.0,0.0,0.0,0.0,0.0,0.0,0.0,0.0,0.0,0.0,0.0,0.0,0.0,0.0,0.0,0.0,0.0,0.0,0.0,0.0,0.0,0.0,0.0,0.0,0.0,0.0,0.0,0.0,0.0,0.0,0.0,0.0,0.0,0.0,0.0,0.0,0.0,0.0,0.0,0.0,0.0,0.0,0.0,0.0,0.0,0.0,0.0,0.0,0.0,0.0,0.0,0.0,0.0,0.0,0.0,0.0,0.0,0.0,0.0,0.0,0.0,0.0,0.0,0.0,0.0,0.0,0.0,0.0,0.0,0.0,0.0,0.0,0.0,0.0,0.0,0.0,0.0,0.0,0.0,0.0,0.0,0.0,0.0,0.0,0.0,0.0,0.0,0.0,0.0,0.0,0.0,0.0,0.0,0.0,0.0,0.0,-6.1319,-6.1036,0.0,0.0,0.0,0.0,0.0,0.0,0.0,0.0,0.0,0.0,0.0,0.0,0.0,0.0,0.0,0.0,0.0,0.0,0.0,0.0,0.0,0.0,0.0,-6.4996,-6.4996,-6.4996,-6.4996,-6.5257,-6.5896,-6.5635,0.0,0.0,0.0,0.0,0.0,0.0,-6.7551,-6.7899,-6.8218,-6.8683,-6.9263,-6.8973,-6.8305,-6.7289,0.0,0.0,0.0,0.0,0.0,0.0,0.0,0.0,0.0,0.0,0.0,0.0,0.0,0.0,0.0,0.0,0.0,0.0,0.0,0.0,0.0,0.0,0.0,0.0,0.0,0.0,0.0,0.0,0.0,0.0,0.0,0.0,0.0,0.0,0.0,0.0,0.0,0.0,0.0,0.0,0.0,0.0,0.0,0.0,0.0,0.0,0.0,0.0,0.0,0.0,0.0,0.0,0.0,0.0,0.0,0.0,0.0,0.0,0.0,0.0,0.0,0.0,0.0,0.0,0.0,0.0,0.0,0.0,0.0,0.0,-6.2898,-6.1793,0.0,0.0,0.0,0.0,0.0,0.0,0.0,0.0,0.0,0.0,0.0,0.0,0.0,0.0,0.0,0.0,0.0,0.0,0.0,0.0,0.0,-6.427,-6.4909,-6.5083,-6.5141,-6.5141,-6.5257,-6.5489,-6.5896,-6.5431,-6.5344,-6.5751,-6.5751,-6.5809,-6.5925,-6.6564,-6.6941,-6.7057,-6.7957,-6.8915,-6.9931,-6.9641,-6.9205,-6.8625,-6.6883,0.0,0.0,0.0,0.0,0.0,0.0,0.0,0.0,0.0,0.0,0.0,0.0,0.0,0.0,0.0,0.0,0.0,0.0,0.0,0.0,0.0,0.0,0.0,0.0,0.0,0.0,0.0,0.0,0.0,0.0,0.0,0.0,0.0,0.0,0.0,0.0,0.0,0.0,0.0,0.0,0.0,0.0,0.0,0.0,0.0,0.0,0.0,0.0,0.0,0.0,0.0,0.0,0.0,0.0,0.0,0.0,0.0,0.0,0.0,0.0,0.0,0.0,0.0,-6.6438,-6.7467,-6.8346,-6.7894,-6.8246,-6.9049,-6.6413,-6.4404,-6.3099,-6.4178,0.0,0.0,0.0,0.0,0.0,0.0,0.0,0.0,0.0,0.0,0.0,0.0,0.0,0.0,0.0,0.0,0.0,0.0,0.0,-6.427,-6.4909,-6.5489,-6.5809,-6.5809,-6.6302,-6.6447,-6.5889,-6.5867,-6.5606,-6.5141,-6.5112,-6.5373,-6.5925,-6.6564,-6.7173,-6.7754,-6.9495,-7.0424,-7.0628,-7.1644,-7.2079,-7.1847,-6.8334,-6.7086,-6.7551,0.0,0.0,0.0,0.0,0.0,0.0,0.0,0.0,0.0,0.0,0.0,0.0,0.0,0.0,0.0,0.0,0.0,0.0,0.0,0.0,0.0,0.0,0.0,0.0,0.0,0.0,0.0,0.0,0.0,0.0,0.0,0.0,0.0,0.0,0.0,0.0,0.0,0.0,0.0,0.0,0.0,-6.3676,-6.4798,0.0,0.0,0.0,0.0,0.0,0.0,0.0,0.0,0.0,0.0,0.0,0.0,0.0,-6.4705,-6.6312,-6.7819,-6.8648,-6.8798,-6.9903,-7.0506,-7.0656,-7.0581,-7.0882,-7.1485,-7.151,0.0,-6.694,-6.5685,0.0,0.0,0.0,0.0,0.0,0.0,0.0,0.0,0.0,0.0,0.0,0.0,0.0,0.0,0.0,0.0,0.0,0.0,0.0,0.0,0.0,-6.5751,-6.607,-6.6418,-6.7725,-6.7928,-6.6564,-6.7144,-6.6941,-6.5577,-6.5519,-6.5635,-6.5925,-6.6941,-6.8102,-6.9466,-7.1411,-7.2544,-7.2921,-7.4198,-7.4779,-7.4692,-7.2631,-7.0686,-6.8886,-6.7957,0.0,0.0,0.0,0.0,0.0,0.0,0.0,0.0,0.0,0.0,0.0,0.0,0.0,0.0,0.0,0.0,0.0,0.0,0.0,0.0,0.0,0.0,0.0,0.0,0.0,0.0,0.0,0.0,0.0,0.0,0.0,0.0,0.0,0.0,0.0,0.0,0.0,0.0,0.0,-6.3803,-6.4391,-6.2553,-6.3478,-6.368,0.0,0.0,0.0,0.0,0.0,0.0,0.0,0.0,0.0,-6.684,-6.7442,-6.8371,-6.9727,-7.1711,-7.3016,-7.3644,-7.4749,-7.5753,-7.6657,-7.603,-7.623,-7.7034,-7.6959,-7.5753,-7.3544,-7.0003,-6.7719,-6.6338,0.0,0.0,0.0,0.0,-6.401,-6.3796,0.0,0.0,0.0,0.0,0.0,0.0,0.0,0.0,0.0,0.0,0.0,0.0,-6.6041,-6.6622,-6.7231,-6.8044,-6.9437,-6.9641,-6.8189,-6.8247,-6.7696,-6.6244,-6.5693,-6.5519,-6.5693,-6.7289,-6.8973,-7.0715,-7.3153,-7.4663,-7.533,-7.7101,-7.7914,-7.7914,-7.7624,-7.5243,-7.1382,-6.9931,-6.8218,-6.636,0.0,0.0,0.0,0.0,0.0,0.0,0.0,0.0,0.0,0.0,0.0,0.0,0.0,0.0,0.0,0.0,0.0,0.0,0.0,0.0,0.0,0.0,0.0,0.0,0.0,0.0,0.0,0.0,0.0,0.0,0.0,0.0,0.0,0.0,0.0,0.0,0.0,-6.3735,-6.4507,-6.0978,-6.3473,-6.4046,0.0,0.0,0.0,0.0,0.0,0.0,-6.5835,-6.6614,-6.8196,-7.0832,-7.1585,-7.2565,-7.382,-7.5879,-7.7335,-7.8139,-7.9118,-8.0173,-8.1202,-8.0524,-8.0524,-8.1026,-8.0901,-8.0122,-7.8616,-7.4171,-7.1284,-6.9551,-6.8472,-6.7668,-6.7241,-6.7731,-6.7488,-6.7166,0.0,0.0,0.0,0.0,0.0,0.0,0.0,0.0,0.0,0.0,0.0,-6.5431,-6.6709,-6.8479,-7.0076,-7.1324,-7.1528,-7.1528,-7.144,-6.8625,-6.6941,-6.6825,-6.5083,-6.4415,-6.5025,-6.7492,-6.9408,-7.0715,-7.4488,-7.6637,-7.7333,-8.0439,-8.1891,-8.192,-8.253,-8.0323,-7.5956,-7.2195,-7.0541,-7.0105,-6.6447,0.0,0.0,0.0,0.0,0.0,0.0,0.0,0.0,0.0,0.0,0.0,0.0,0.0,0.0,0.0,0.0,0.0,0.0,0.0,0.0,0.0,0.0,0.0,0.0,0.0,0.0,0.0,0.0,0.0,0.0,0.0,0.0,0.0,0.0,0.0,0.0,0.0,0.0,-6.1341,-6.406,0.0,0.0,0.0,0.0,-6.5007,-6.7041,-6.8748,-6.9903,-7.0983,-7.2615,-7.4875,-7.5979,-7.7335,-7.8992,-8.065,-8.1503,-8.1553,-8.2181,-8.2206,-8.1779,-8.2282,-8.1955,-8.1102,-8.2106,-8.1629,-7.9896,-7.7009,-7.4498,-7.2414,-7.1309,-7.0531,-7.0129,-7.0221,-6.9864,-6.9466,0.0,0.0,0.0,0.0,0.0,-6.1193,-6.1193,-6.2267,-6.308,-6.308,-6.4909,-6.6854,-6.8567,-7.0453,-7.2282,-7.3995,-7.4895,-7.4663,-7.3037,-7.0686,-6.8799,-6.758,-6.5286,-6.5112,-6.7405,-6.9147,-7.1673,-7.5011,-7.803,-8.0062,-8.1165,-8.3546,-8.4678,-8.4678,-8.5345,-8.4503,-8.2297,-7.7188,-7.3821,-7.1673,-6.8654,-6.6825,0.0,0.0,0.0,0.0,0.0,0.0,0.0,0.0,0.0,0.0,0.0,0.0,0.0,0.0,0.0,0.0,0.0,0.0,0.0,0.0,0.0,0.0,0.0,0.0,0.0,0.0,0.0,0.0,0.0,0.0,0.0,0.0,0.0,0.0,0.0,0.0,0.0,-6.4906,-6.7819,0.0,-6.699,-6.7643,-6.8572,-6.9476,-7.0958,-7.2916,-7.5452,-7.6306,-7.7888,-8.0474,-8.1277,-8.2131,-8.3085,-8.4341,-8.5019,-8.5019,-8.5194,-8.542,-8.5521,-8.537,-8.527,-8.5244,-8.527,-8.4767,-8.3788,-8.1704,-7.9118,-7.6356,-7.5251,-7.4473,-7.3971,-7.3628,-7.3417,-7.3327,0.0,0.0,0.0,0.0,0.0,-6.1193,-6.1193,-6.2267,-6.308,-6.308,-6.5489,-6.8044,-7.0192,-7.2689,-7.5011,-7.6956,-7.7507,-7.7014,-7.533,-7.1789,-6.9379,-6.8567,-6.6476,-6.6418,-6.877,-7.1353,-7.443,-7.803,-8.0817,-8.2849,-8.4184,-8.61,-8.7116,-8.7348,-8.7987,-8.7929,-8.7029,-8.253,-7.8291,-7.4285,-7.1092,-6.9408,-6.845,0.0,0.0,0.0,0.0,0.0,0.0,0.0,0.0,0.0,0.0,0.0,0.0,0.0,0.0,0.0,0.0,0.0,0.0,0.0,0.0,0.0,0.0,0.0,0.0,0.0,0.0,0.0,0.0,0.0,0.0,0.0,0.0,0.0,0.0,-6.468,-6.7518,-6.8271,-7.1786,-7.3343,-7.1309,-7.2113,-7.3242,-7.4347,-7.5628,-7.7561,-8.0323,-8.1026,-8.2257,-8.4265,-8.4843,-8.532,-8.5671,-8.66,-8.7027,-8.7027,-8.7027,-8.7178,-8.7329,-8.7128,-8.7027,-8.7027,-8.6851,-8.6349,-8.5646,-8.4491,-8.2533,-8.0072,-7.8792,-7.7938,-7.7436,-7.726,-7.7008,-7.6627,0.0,0.0,0.0,0.0,0.0,-6.1193,-6.1193,-6.2267,-6.3109,-6.3138,-6.5954,-6.8944,-7.1528,-7.5243,-7.8349,-8.0265,-7.9278,-7.8494,-7.8378,-7.1818,-6.8421,-6.9612,-6.8538,-6.8276,-6.906,-7.3966,-7.7507,-7.9511,-8.2675,-8.4881,-8.6187,-8.8074,-8.9293,-8.9874,-9.06,-9.0513,-8.9729,-8.79,-8.3865,-7.8291,-7.3734,-7.2195,-7.2195,0.0,0.0,0.0,0.0,0.0,0.0,0.0,0.0,0.0,0.0,0.0,0.0,0.0,0.0,0.0,0.0,0.0,0.0,0.0,0.0,0.0,0.0,0.0,0.0,0.0,0.0,0.0,0.0,0.0,0.0,0.0,0.0,0.0,-6.2973,-6.7719,-7.1209,-7.1334,-7.5678,-7.7611,-7.4975,-7.6657,-7.839,-7.9545,-8.1076,-8.2683,-8.4341,-8.4968,-8.5496,-8.6098,-8.66,-8.6851,-8.6851,-8.7379,-8.768,-8.768,-8.768,-8.7354,-8.6877,-8.7429,-8.7103,-8.6148,-8.66,-8.6174,-8.5219,-8.5144,-8.4491,-8.3386,-8.1754,-8.0775,-8.0348,-8.085,-8.0335,-7.9236,0.0,0.0,0.0,-6.1193,-6.1193,-6.1193,-6.1193,-6.2267,-6.3254,-6.3719,-6.7376,-7.1266,-7.4779,-7.8582,-8.1659,-8.3604,-8.2181,-8.0149,-7.7827,-7.1963,-6.8102,-6.7028,-6.8015,-7.0395,-7.4285,-7.7101,-8.0381,-8.4184,-8.5984,-8.7523,-8.88,-9.028,-9.0832,-9.06,-9.2196,-9.2022,-9.0513,-8.999,-8.8045,-8.4794,-7.8901,-7.5534,-7.3705,0.0,0.0,0.0,0.0,0.0,0.0,0.0,0.0,0.0,0.0,0.0,0.0,0.0,0.0,0.0,0.0,0.0,0.0,0.0,0.0,0.0,0.0,0.0,0.0,0.0,0.0,0.0,0.0,0.0,0.0,0.0,-6.4731,-6.7467,-6.7593,-7.0681,-7.3946,-7.6758,-7.9721,-8.1553,-8.1604,-8.2508,-8.3562,-8.4667,-8.5169,-8.5948,-8.7278,-8.7454,-8.778,-8.8358,-8.8534,-8.8609,-8.8609,-8.876,-8.886,-8.886,-8.886,-8.876,-8.8609,-8.8785,-8.8684,-8.8358,-8.768,-8.7178,-8.6826,-8.5646,-8.4968,-8.4567,-8.3311,-8.2483,-8.1905,-8.1277,-8.0319,-7.9388,0.0,0.0,0.0,-6.0787,-6.0787,-6.0874,-6.1164,-6.2267,-6.3312,-6.3888,-6.816,-7.2485,-7.6131,-7.9656,-8.2442,-8.4155,-8.2036,-7.9365,-7.6375,-7.1818,-6.8596,-6.7202,-7.0279,-7.3908,-7.7972,-8.073,-8.3662,-8.6826,-8.8393,-8.9642,-9.0658,-9.1674,-9.2109,-9.2051,-9.3183,-9.2893,-9.1616,-9.1616,-9.0658,-8.8771,-8.4503,-8.1252,-7.8553,-7.4605,-7.3327,-7.3414,-7.1702,-7.1673,-7.2166,-7.0018,0.0,0.0,0.0,0.0,0.0,0.0,0.0,0.0,0.0,0.0,0.0,0.0,0.0,0.0,0.0,0.0,0.0,0.0,0.0,0.0,0.0,0.0,0.0,0.0,-6.9225,-7.2514,-7.4372,-7.6004,-7.8214,-8.1428,-8.3763,-8.5445,-8.6324,-8.6676,-8.7253,-8.8107,-8.7956,-8.8308,-8.9438,-8.9061,-8.9061,-8.9613,-8.9387,-8.9287,-8.9287,-8.9538,-8.9613,-8.9613,-8.9613,-8.9613,-8.9613,-8.9387,-8.9287,-8.9212,-8.8107,-8.7605,-8.7504,-8.6073,-8.5219,-8.4717,0.0,0.0,0.0,0.0,-8.0273,-7.967,0.0,0.0,-6.0119,-6.0177,-6.0206,-6.0438,-6.1106,-6.2267,-6.3341,-6.4038,-6.8538,-7.2892,-7.6189,-7.922,-8.1659,-8.3081,-8.0178,-7.7101,-7.4256,-7.1382,-6.9728,-6.9583,-7.4285,-7.8175,-8.0875,-8.4416,-8.6942,-8.8364,-9.0077,-9.1296,-9.1993,-9.2632,-9.3183,-9.3677,-9.3822,-9.3473,-9.2835,-9.2893,-9.2225,-9.1035,-8.9729,-8.7581,-8.462,-7.9336,-7.864,-8.012,-7.7217,-7.5563,-7.4663,-7.3705,0.0,0.0,0.0,0.0,0.0,0.0,0.0,0.0,0.0,0.0,0.0,0.0,0.0,0.0,0.0,0.0,0.0,0.0,0.0,0.0,0.0,0.0,0.0,0.0,-7.3996,-7.7461,-8.1679,-8.2508,-8.3336,-8.5219,-8.7379,-8.8961,-8.9538,-8.9613,-8.9865,-9.0367,-8.9865,-8.9965,-9.0869,-8.994,0.0,0.0,0.0,-8.9287,-8.9287,-8.9839,-9.0116,-9.0116,-9.0116,-9.0116,-9.009,-8.9538,-8.9287,-8.9136,-8.8032,-8.758,-8.7429,-8.6425,-8.5345,-8.424,-8.3638,-8.3361,-8.306,-8.1051,-8.0273,-8.0072,0.0,-5.9393,-5.9626,-6.0119,-6.0206,-6.0438,-6.1106,-6.2267,-6.3516,-6.4648,-6.8799,-7.2892,-7.6189,-7.8872,-8.1194,-8.3023,-7.9772,-7.5853,-7.1731,-7.0395,-7.1092,-7.4082,-7.7653,-8.1252,-8.4852,-8.6652,-8.8713,-9.1035,-9.1412,-9.2167,-9.3299,-9.3938,-9.4025,-9.3706,-9.4751,-9.4577,-9.3532,-9.4025,-9.3793,-9.3009,-9.1732,-8.9061,-8.5607,-8.3429,-8.2297,-8.1688,-8.0556,-8.0962,-8.1659,-7.893,-7.7682,-7.6811,-7.4082,-7.0464,0.0,0.0,0.0,0.0,0.0,0.0,0.0,0.0,0.0,0.0,0.0,0.0,0.0,0.0,0.0,0.0,0.0,0.0,0.0,-7.3242,-7.7586,-8.1629,-8.4742,-8.6701,-8.768,-8.7178,-8.9111,-9.0693,-9.1271,-9.1723,-9.1974,-9.2074,-9.1622,-9.1195,-9.0944,-9.0291,-9.0015,-9.0116,-8.9563,-8.9287,-8.9287,-8.9839,-9.0116,-9.0116,-9.0116,0.0,-9.009,-8.9538,-8.9036,-8.8559,-8.7881,-8.7354,-8.6877,-8.6249,-8.5345,-8.4215,-8.3211,-8.2533,-8.2031,-8.1177,-8.0599,-8.0122,0.0,-5.9306,-5.9742,-5.9742,-6.0003,-6.0526,-6.1483,-6.247,-6.3545,-6.4822,-6.8334,-7.1557,-7.3821,-7.5795,-7.7333,-7.832,-7.5156,-7.2166,-6.9931,-7.1266,-7.3734,-7.7246,-8.1107,-8.4503,-8.7377,-8.9032,-9.0629,-9.2254,-9.2893,-9.3532,-9.4141,-9.4809,-9.4954,-9.4664,-9.5331,-9.507,-9.417,-9.446,-9.4257,-9.3619,-9.298,-9.1558,-8.9613,-8.7348,-8.6274,-8.5926,-8.5287,-8.5258,-8.5229,-8.3313,-8.1804,-8.0352,-7.8117,-7.4619,-7.0856,0.0,0.0,0.0,0.0,0.0,0.0,0.0,0.0,0.0,0.0,0.0,0.0,0.0,0.0,-6.5911,-6.7869,0.0,-7.4523,-7.8691,-8.193,-8.4767,-8.7278,-8.9312,-9.0216,-8.9362,-9.0718,-9.1974,-9.2551,-9.2827,-9.2978,-9.2978,-9.2225,-9.1798,-9.1773,-9.0969,-9.0668,-9.0944,-9.0116,-8.9689,-8.9689,-9.0266,-9.0517,-9.0517,-9.0517,-9.0517,-9.0517,-8.9689,-8.9136,-8.886,-8.8283,-8.7705,-8.7103,-8.5747,-8.4667,-8.3813,-8.2985,-8.2156,-8.1328,-8.0524,-8.0047,-7.9721,0.0,-5.9335,-6.0032,-5.9568,-5.9887,-6.0613,-6.189,-6.2674,-6.3545,-6.4822,-6.758,-6.9844,-7.1005,-7.2166,-7.2776,-7.2515,-7.057,-6.9583,-7.0105,-7.3501,-7.713,-8.0817,-8.4707,-8.7668,-8.9584,-9.1151,-9.2399,-9.327,-9.4286,-9.4867,-9.4983,-9.5535,-9.5709,-9.5622,-9.5622,-9.5302,-9.4809,-9.4809,-9.4431,-9.3822,-9.3706,-9.3677,-9.3357,-9.0658,-8.9932,-9.0309,-8.9671,-8.8364,-8.6942,-8.6681,-8.4794,-8.2303,-8.091,-7.8608,-7.5509,-7.0509,-6.8653,0.0,0.0,0.0,0.0,0.0,0.0,0.0,0.0,-6.3324,-6.4479,-6.6363,-6.817,-7.0455,-7.392,-7.608,-7.8892,-8.3688,-8.5671,-8.7354,-8.9362,-9.1045,-9.1974,-9.1622,-9.2476,-9.3229,-9.3656,-9.3731,-9.3656,-9.3556,-9.2652,-9.2225,-9.2576,-9.1622,-9.1271,-9.1622,-9.0618,-9.004,-8.994,-9.0517,-9.0768,-9.0768,-9.0768,-9.0768,-9.0768,-8.9764,-8.9187,-8.8935,-8.8283,-8.768,-8.7002,-8.5094,-8.3989,-8.3412,-8.2658,-8.1805,-8.0926,-8.0047,-7.957,-7.9319,0.0,-5.9335,-6.0177,-6.0119,-6.0148,-6.0613,-6.189,-6.2674,-6.3545,-6.4822,-6.6796,-6.8363,-6.906,-6.9786,-6.9757,-6.8625,-7.025,-7.2311,-7.4605,-7.7275,-8.1223,-8.671,-8.8539,-9.0309,-9.2254,-9.2486,-9.3502,-9.5302,-9.5418,-9.5767,-9.6289,-9.6376,-9.6115,-9.5622,-9.5622,-9.5564,-9.5505,-9.5505,-9.5128,-9.446,-9.3909,-9.3677,-9.3561,-9.2632,-9.2341,-9.2312,-9.1674,-8.9526,-8.7145,-8.819,-8.6477,-8.3588,-8.1576,-8.1169,-7.9839,-7.1816,-6.9105,-6.7682,-6.242,-6.0437,-6.0286,-6.2019,-6.2195,-6.2948,0.0,-6.7894,-6.8723,-7.1384,-7.3644,-7.5703,-7.7611,-8.0147,-8.2608,-8.4717,-8.7253,-8.9362,-9.0593,-9.22,-9.338,-9.3807,-9.4409,-9.4836,-9.4911,-9.4911,-9.466,-9.4158,-9.3556,-9.3053,-9.2576,-9.2049,-9.1471,-9.1045,-9.0442,-8.9865,-8.9362,-8.994,-9.0191,-9.0191,-9.0191,-9.0191,-9.0191,-8.9538,-8.876,-8.7755,-8.6701,-8.5922,-8.5259,-8.4642,-8.3989,-8.3336,-8.1805,-8.1152,-8.1026,-8.0901,-8.0223,-7.9369,0.0,-5.9335,-6.0206,-6.0206,-6.0526,-6.1222,-6.247,-6.2906,-6.3545,-6.4822,-6.6012,-6.6709,-6.6593,-6.6825,-6.6622,-6.5722,-6.8654,-7.1818,-7.475,-7.8727,-8.3226,-8.8248,-9.0077,-9.1848,-9.3764,-9.4199,-9.5157,-9.6725,-9.6725,-9.6841,-9.7073,-9.6696,-9.658,-9.6667,-9.5941,-9.5796,-9.6115,-9.5767,-9.5447,-9.5157,-9.4896,-9.4809,-9.4693,-9.3648,-9.2341,-9.0801,-8.8839,-8.6793,0.0,-8.4363,-8.2738,-8.1235,-8.248,-8.0951,-7.7649,-7.2774,-6.9936,-6.7454,-6.3275,-6.2044,-6.2169,-6.3099,-6.4605,-6.6589,-6.9401,-7.1058,-7.2791,-7.5552,-7.8139,-8.0398,-8.2081,-8.4089,-8.6174,-8.8182,-8.9764,-9.122,-9.2626,-9.3154,-9.3229,-9.2878,-9.3053,-9.3556,-9.4485,-9.4309,-9.3982,-9.3731,-9.3229,-9.2652,-9.2149,-9.1898,-9.1547,-9.0944,-9.0367,-9.0015,-8.9789,-9.0015,-9.0116,-9.0116,-9.0116,-9.0116,-9.009,-8.9538,-8.886,-8.8032,-8.66,-8.5671,-8.5069,-8.4215,-8.3512,-8.2909,-8.188,-8.1302,-8.0951,-8.0323,-7.9796,-7.9394,0.0,-5.919,-6.0003,-6.0177,-6.0758,-6.1629,-6.2906,-6.308,-6.3545,-6.4822,-6.5373,-6.5489,-6.5025,-6.4996,-6.4793,-6.4328,-6.7347,-7.0744,-7.4285,-7.9017,-8.3894,-8.8916,-9.1006,-9.3009,-9.5099,-9.5622,-9.6405,-9.7508,-9.7508,-9.7508,-9.7508,-9.7015,-9.6928,-9.7189,-9.626,-9.5999,-9.6231,-9.5796,-9.5505,-9.5331,-9.5128,-9.507,-9.4867,-9.2835,-9.0716,-8.8451,-8.5757,-8.3273,-8.1012,-7.8988,-7.762,-7.7051,-7.9042,-7.7788,-7.4819,-7.1521,-6.8612,-6.5759,-6.3224,-6.3149,-6.3952,-6.5007,-6.7543,-7.033,-7.2439,-7.4523,-7.6833,-7.9746,-8.1955,-8.3939,-8.5922,-8.7253,-8.876,-9.0844,-9.1622,-9.2401,-9.3631,-9.3304,-9.2476,-9.122,-9.0693,-9.0944,-9.2275,-9.2601,-9.2827,-9.3154,-9.2501,-9.2049,-9.1798,-9.1622,-9.1296,-9.0693,-9.0342,-9.004,-8.9865,-8.9865,-8.9865,-8.9865,-8.9865,-8.9789,-8.9613,-8.8935,-8.8383,-8.7931,-8.6425,-8.542,-8.4818,-8.3889,-8.316,-8.2583,-8.1704,-8.1127,-8.065,-7.9394,-7.9118,-7.9369,0.0,0.0,-5.951,-6.009,-6.0758,-6.1629,-6.2906,-6.308,-6.3545,-6.4822,-6.4996,-6.4996,-6.4996,-6.4996,-6.4967,-6.4967,-6.6796,-6.9815,-7.4227,-7.8175,-8.3168,-8.9526,-9.1645,-9.388,-9.6405,-9.6463,-9.6812,-9.7508,-9.7508,-9.7508,-9.7508,-9.7479,-9.7131,-9.6551,-9.6492,-9.6173,-9.5651,-9.5622,-9.5244,-9.4577,-9.3967,-9.3735,-9.3299,-8.9526,-8.729,-8.5873,-8.3763,-7.9765,-7.5177,-7.3083,-7.1841,-7.0951,-6.9128,-7.1066,-7.2885,-6.7202,-6.3967,-6.2175,-6.2044,-6.2847,-6.458,-6.8346,-7.0983,-7.3494,-7.6758,-7.8817,-8.0976,-8.424,-8.4993,-8.5897,-8.8684,-8.9212,-8.9789,-9.1471,-9.2225,-9.2576,-9.2626,-9.2149,-9.122,-8.9538,-8.7931,-8.7178,-8.7755,-8.9764,-9.1446,-9.2501,-9.1622,-9.1195,-9.1798,-9.1271,-9.0693,-9.0166,-9.0116,-8.9865,-8.9312,-8.9287,-8.9287,-8.9287,-8.9287,-8.9036,-8.8458,-8.7379,-8.6851,-8.6776,-8.5646,-8.4818,-8.4315,-8.3738,-8.316,-8.2508,-8.0901,-8.0248,-8.0022,-7.8365,-7.844,-7.9319,0.0,0.0,0.0,0.0,0.0,-6.1483,-6.2296,-6.279,-6.3399,-6.4241,-6.4735,0.0,0.0,0.0,0.0,0.0,-6.6767,-6.9408,-7.3008,-7.7246,-8.1543,-8.5839,-8.9932,-9.2893,-9.4577,-9.6289,-9.7683,-9.8757,-9.8757,-9.8525,-9.8089,-9.7683,-9.7392,-9.7131,-9.6289,-9.6028,-9.6173,-9.5767,-9.5215,-9.4519,-9.3473,-9.2777,-9.208,-8.9061,-8.5287,-8.1092,0.0,-7.3611,-7.0137,-6.7716,-6.5826,-6.4846,-6.6915,-6.6555,-6.4784,-6.136,-6.1692,-6.3048,-6.2647,-6.5785,-6.9727,-7.2138,-7.4975,-7.7837,-8.0424,-8.2282,-8.3788,-8.4893,-8.4818,-8.4742,-8.5345,-8.6023,-8.7077,-8.876,-9.0392,-9.1723,-9.2476,-9.1471,-8.9639,-8.6877,-8.5747,-8.4767,-8.3838,-8.6425,-8.8935,-9.0794,-9.0618,-9.0467,-9.0693,-9.0517,-9.0116,-8.9613,-8.9538,-8.9463,-8.9287,-8.9287,-8.9287,-8.9287,-8.8885,-8.8458,-8.7856,-8.7128,-8.66,-8.6199,-8.5069,-8.429,-8.3738,-8.3186,-8.2608,-8.198,-8.07,-8.0223,-8.0022,-7.8314,-7.8415,-7.9294,0.0,0.0,0.0,0.0,0.0,0.0,0.0,0.0,0.0,0.0,0.0,0.0,0.0,0.0,0.0,0.0,0.0,-6.7754,-7.0744,-7.4053,-7.7537,-8.1194,-8.4997,-8.7813,-8.9526,-9.0948,-9.2428,-9.3938,-9.417,-9.4519,-9.4983,-9.4838,-9.4896,-9.5099,-9.4751,-9.4664,-9.478,-9.4402,-9.3735,-9.269,-9.028,-8.88,-8.7581,-8.3865,-7.9859,0.0,-7.1538,-6.8393,-6.5736,-6.2813,-6.0862,-6.0096,-6.261,-6.1808,-5.9834,-5.9006,-6.124,-6.4279,-6.5685,-6.9501,-7.3694,-7.6155,-7.8842,-8.1328,-8.3135,-8.4567,-8.5395,-8.5144,-8.4215,-8.3261,-8.2708,-8.2708,-8.3437,-8.5496,-8.7027,-8.8584,-9.0291,-8.9111,-8.7178,-8.4843,-8.3889,-8.2985,-8.1905,-8.3738,-8.6174,-8.9011,-8.9212,-8.9463,-9.009,-8.994,-8.9639,-8.9287,-8.9287,-8.9287,-8.9287,-8.9111,-8.8885,-8.8684,-8.7931,-8.7379,-8.7002,-8.6249,-8.5747,-8.5345,-8.4416,-8.3813,-8.3412,-8.2483,-8.1855,-8.1378,-7.9896,-7.9319,-7.9143,-7.7662,-7.7812,-7.8766,0.0,0.0,0.0,0.0,0.0,0.0,0.0,0.0,0.0,0.0,0.0,0.0,0.0,0.0,0.0,0.0,0.0,0.0,-6.758,-6.9031,-7.1673,-7.5882,-7.7537,-7.9481,-8.1891,-8.1455,-8.2123,-8.3981,-8.462,-8.6158,-8.8509,-8.909,-8.97,-9.0338,-9.1499,-9.1703,-9.1122,-9.1093,-9.0338,-8.88,-8.4533,-8.2007,-8.0236,-7.4721,-7.176,-7.0192,-6.7115,-6.4581,-6.2236,-5.8822,-5.7441,-5.7071,-5.6495,-5.7123,-5.8353,-6.0035,-6.2546,-6.5835,-7.0706,-7.377,-7.6482,-8.0223,-8.2382,-8.3864,-8.4968,-8.5571,-8.5747,-8.5044,-8.306,-8.1277,-8.0599,-7.9319,-7.9243,-8.2005,-8.2683,-8.3788,-8.6525,-8.5496,-8.424,-8.3638,-8.2583,-8.188,-8.1855,-8.1855,-8.3437,-8.7253,-8.7529,-8.8258,-8.9965,-8.9538,-8.9287,-8.9287,-8.9287,-8.9287,-8.9287,-8.8735,-8.8132,-8.7504,-8.65,-8.5998,-8.5897,-8.4818,-8.4315,-8.424,-8.3713,-8.3462,-8.3286,-8.1679,-8.1001,-8.0725,-7.854,-7.7712,-7.7586,-7.6532,-7.6808,-7.7762,0.0,0.0,0.0,0.0,0.0,0.0,0.0,0.0,0.0,0.0,0.0,0.0,0.0,0.0,0.0,0.0,0.0,0.0,-6.5693,-6.8276,-7.0076,-7.0744,-7.5185,-7.7972,-7.8611,-8.0352,-8.1717,-8.2675,-8.2849,-8.3023,-8.3197,-8.3342,-8.3284,-8.2965,-8.2791,-8.2617,-8.2442,-8.2007,-8.1339,-8.0381,-7.8291,-7.6956,-7.594,-7.3531,-7.0947,-6.8509,-6.7667,-6.5068,-6.194,-6.1049,-6.0119,-5.9183,-5.8352,-5.883,-6.0186,-6.2672,-6.5961,-6.9501,-7.2866,-7.6883,-8.0574,-8.2407,-8.3788,-8.4893,-8.5646,-8.5244,-8.414,-8.1905,-7.9043,-7.6105,-7.3494,-7.4699,-7.6858,-7.9193,-8.2708,-8.5998,-8.8308,-8.7529,-8.6249,-8.4893,-8.3738,-8.2909,-8.2483,-8.2457,-8.3562,-8.6199,-8.6425,-8.7329,-8.9362,-8.8961,-8.886,-8.9287,-8.8885,-8.8885,-8.9287,-8.8735,-8.778,-8.6425,-8.6148,-8.5571,-8.4742,-8.4466,-8.4089,-8.3688,-8.3562,-8.301,-8.2181,-8.1378,-8.0549,-7.967,-7.8264,-7.7712,-7.7662,-7.7385,-7.7461,-7.7712,0.0,0.0,0.0,0.0,0.0,0.0,0.0,0.0,0.0,0.0,0.0,0.0,0.0,0.0,0.0,0.0,0.0,0.0,0.0,-6.6418,-6.7347,-6.7551,-7.0366,-7.2079,-7.2369,-7.3501,-7.4982,-7.6753,-7.6172,-7.6608,-7.7885,-7.7304,-7.6985,-7.6927,-7.713,-7.7217,-7.7188,-7.6869,-7.6172,0.0,0.0,-7.115,-7.0192,-6.8915,-6.7318,-6.5867,-6.6418,-6.5491,-6.4139,-6.4618,-6.333,-6.1669,-6.2199,-6.2788,-6.3877,-6.7166,-7.0179,-7.3217,-7.6707,-8.0424,-8.3487,-8.4391,-8.5069,-8.5219,-8.4064,-8.296,-8.1102,-7.7335,-7.4498,-7.1736,-6.8648,-7.0606,-7.3343,-7.5301,-7.9821,-8.414,-8.7077,-8.7153,-8.6751,-8.6249,-8.5445,-8.4592,-8.3838,-8.3537,-8.4089,-8.5847,-8.6425,-8.7454,-8.9212,-8.9212,-8.9212,-8.9287,-8.8735,-8.8383,-8.8182,-8.7881,-8.7027,-8.5646,-8.5395,-8.4818,-8.3964,-8.3713,-8.3286,-8.2759,-8.301,-8.2357,-8.1076,-8.0524,-7.9645,-7.854,-7.7411,-7.6984,-7.7009,-7.726,-7.7185,-7.7009,0.0,0.0,0.0,0.0,0.0,0.0,0.0,0.0,0.0,0.0,-6.4532,-6.4909,0.0,0.0,0.0,0.0,0.0,0.0,0.0,0.0,-6.4729,-6.5831,-6.5402,-6.5373,-6.5925,-6.5228,-6.6273,-6.9147,-6.787,-6.9002,-7.2311,-7.1092,-7.0831,-7.1411,-7.2456,-7.2921,-7.2921,-7.2834,-7.2137,-7.0802,-6.7463,-6.546,-6.4386,0.0,-6.308,-6.3254,-6.4532,-6.5693,-6.6888,-6.8598,-6.7052,-6.477,-6.7256,-6.8108,-6.8798,-7.2539,-7.4774,-7.6908,-8.1026,-8.3688,-8.542,-8.5897,-8.5897,-8.4918,-8.1679,-7.9771,-7.731,-7.2288,-6.9928,-6.7945,-6.5132,-6.7091,-6.9803,-7.1912,-7.6331,-8.0951,-8.5144,-8.6073,-8.6676,-8.7705,-8.7278,-8.65,-8.547,-8.4893,-8.4993,-8.6023,-8.7027,-8.8032,-8.9036,-8.9538,-8.9513,-8.886,-8.8458,-8.773,-8.6676,-8.6676,-8.6174,-8.5144,-8.4567,-8.4014,-8.3487,-8.2934,-8.2357,-8.183,-8.2332,-8.1629,-8.0072,-7.9495,-7.8616,-7.7486,-7.6456,-7.6105,-7.623,-7.6783,-7.6682,-7.6331,0.0,0.0,0.0,0.0,0.0,0.0,0.0,0.0,0.0,0.0,-6.4062,-6.459,0.0,0.0,0.0,0.0,0.0,0.0,0.0,0.0,0.0,-6.5925,-6.5838,-6.5809,-6.5925,-6.4793,-6.4735,-6.5809,-6.4532,-6.4532,-6.5628,-6.4938,-6.4648,-6.4735,-6.4415,-6.4241,-6.4212,-6.3719,-6.3399,-6.3109,-6.2441,-6.2064,-6.1948,-6.279,0.0,0.0,-6.4532,-6.5141,-6.6099,-7.1043,-7.1274,-6.9909,-7.2189,-7.3324,-7.4397,-7.736,-7.9093,-8.0599,-8.3186,-8.4843,-8.5897,-8.5998,-8.532,-8.3864,-8.1001,-7.7712,-7.387,-6.8874,-6.6488,-6.4479,-6.1692,-6.458,-6.8848,-7.3268,-7.7411,-8.2056,-8.778,-8.8283,-8.8283,-8.8935,-8.8107,-8.7203,-8.6525,-8.6023,-8.5998,-8.66,-8.7253,-8.768,-8.7856,-8.8006,-8.7605,-8.66,-8.6877,-8.6776,-8.6174,-8.6148,-8.5822,-8.5144,-8.4567,-8.4014,-8.3487,-8.2934,-8.2357,-8.1805,-8.1905,-8.1026,-7.9495,-7.8917,-7.8013,-7.6959,-7.6306,-7.6331,-7.6808,-7.736,-7.7486,-7.731,0.0,0.0,0.0,0.0,0.0,0.0,0.0,-6.3457,-6.4386,-6.5402,-6.5519,-6.5635,-6.5896,-6.5373,-6.5373,0.0,0.0,0.0,0.0,0.0,0.0,-6.6418,-6.6099,-6.5925,-6.5925,-6.5025,-6.4996,-6.5983,0.0,-6.4067,-6.4932,-6.369,-6.308,-6.3051,-6.2383,-6.2093,-6.2064,-6.1454,-6.1193,-6.1193,-6.1193,-6.1396,-6.1774,-6.2732,0.0,0.0,-6.4764,-6.5402,-6.6593,-7.0715,-7.2972,-7.4608,-7.7521,-7.8342,-7.8741,-8.1227,-8.2533,-8.3587,-8.5496,-8.6676,-8.7203,-8.6927,-8.5144,-8.2282,-7.7787,-7.377,-6.9476,-6.4178,-6.2672,-6.1642,-5.9458,-6.34,-6.7769,-7.0154,-7.4046,-7.8992,-8.5345,-8.5772,-8.6525,-8.9362,-8.871,-8.7856,-8.7278,-8.65,-8.6098,-8.6349,-8.6851,-8.7278,-8.7605,-8.7605,-8.7253,-8.6425,-8.6625,-8.6374,-8.5571,-8.5847,-8.5571,-8.4717,-8.4466,-8.3889,-8.306,-8.2784,-8.2357,-8.1805,-8.1805,-8.0725,-7.8917,-7.8641,-7.7712,-7.6456,-7.6482,-7.6632,-7.6984,-7.7812,-7.7762,-7.7235,0.0,0.0,0.0,0.0,0.0,0.0,-6.4096,-6.4294,-6.5141,-6.7057,-6.7405,-6.7202,-6.6447,-6.578,-6.5606,0.0,0.0,0.0,0.0,0.0,0.0,0.0,0.0,0.0,-6.5925,0.0,0.0,-6.6476,-6.4706,0.0,0.0,0.0,0.0,0.0,-6.2529,-6.2238,-6.2064,-6.16,-6.1396,0.0,0.0,-6.1745,-6.2383,0.0,0.0,0.0,0.0,-6.5635,-6.6912,-6.9757,-7.2929,-7.6287,-8.0097,-8.1543,-8.2087,-8.3498,-8.4619,-8.5646,-8.7027,-8.7856,-8.8182,-8.7705,-8.4843,-8.065,-7.49,-7.0305,-6.576,-6.0437,-5.9583,-5.9408,-5.8127,-6.1994,-6.5735,-6.6789,-7.0104,-7.5,-8.2131,-8.296,-8.4592,-8.9212,-8.8961,-8.8207,-8.7504,-8.6575,-8.5998,-8.5998,-8.6374,-8.6927,-8.758,-8.7354,-8.7002,-8.6425,-8.6425,-8.5922,-8.4968,-8.5546,-8.5395,-8.4491,-8.4391,-8.3788,-8.2834,-8.2608,-8.2181,-8.1629,-8.1403,-8.0173,-7.834,-7.8214,-7.7411,-7.6281,-7.6707,-7.7034,-7.7335,-7.8214,-7.7963,-7.7285,0.0,0.0,0.0,0.0,0.0,0.0,-6.4619,-6.5373,-6.6447,-6.8392,-6.9147,-6.906,-6.7841,-6.7115,-6.6738,0.0,0.0,0.0,0.0,0.0,0.0,0.0,0.0,0.0,0.0,0.0,0.0,-6.517,-6.3835,0.0,0.0,0.0,0.0,0.0,0.0,-6.2674,-6.2093,-6.2035,0.0,0.0,0.0,0.0,0.0,0.0,0.0,0.0,0.0,-6.5054,-6.5722,-6.9466,-7.0833,-7.1777,-7.6065,-8.0639,-8.4199,-8.319,-8.4349,-8.6073,-8.6676,-8.7278,-8.768,-8.7605,-8.3989,-7.9243,-7.4649,-6.9401,-6.4228,-5.9734,-5.8428,-5.8077,-5.7926,-5.9156,-6.1667,-6.6237,-6.817,-7.2087,-8.075,-8.2809,-8.4692,-8.8207,-8.8534,-8.8032,-8.6952,-8.6349,-8.5998,-8.5998,-8.6073,-8.6525,-8.7529,-8.6676,-8.5897,-8.532,-8.5295,-8.4993,-8.4391,-8.4968,-8.5144,-8.5069,-8.4567,-8.3989,-8.3386,-8.2357,-8.1604,-8.1051,-8.0047,-7.8917,-7.7737,-7.7235,-7.6933,-7.6808,-7.6858,-7.7486,-7.839,-7.849,-7.8465,-7.8314,0.0,0.0,0.0,0.0,0.0,0.0,-6.4677,-6.5199,-6.6331,-6.9031,-7.0279,-7.057,-6.9699,-6.935,-6.8567,-6.6999,0.0,0.0,0.0,0.0,0.0,0.0,0.0,0.0,0.0,0.0,-6.4735,-6.4996,-6.4473,0.0,0.0,0.0,0.0,0.0,0.0,-6.3516,-6.3225,-6.2848,0.0,0.0,0.0,0.0,0.0,0.0,0.0,0.0,0.0,0.0,-6.5228,-6.6767,-6.8745,-7.0692,-7.1291,-7.4108,-7.7835,-8.1123,-8.35,-8.5369,-8.7316,-8.8207,-8.8534,-8.8207,-8.3612,-7.8114,-7.4021,-6.802,-6.2345,-5.893,-5.8052,-5.7801,-5.7449,-5.8805,-6.0763,-6.3099,-6.3852,-6.6538,-7.3393,-7.4749,-7.726,-8.3286,-8.4265,-8.5094,-8.6625,-8.6324,-8.5998,-8.5998,-8.5671,-8.5822,-8.66,-8.6249,-8.5747,-8.5169,-8.5496,-8.5395,-8.4818,-8.4933,-8.4968,-8.4642,-8.3738,-8.3035,-8.2457,-8.1679,-8.1051,-8.0499,-7.9721,-7.8741,-7.7662,-7.7109,-7.6883,-7.6883,-7.6883,-7.736,-7.8038,-7.8038,-7.8038,-7.7938,0.0,0.0,0.0,0.0,0.0,-6.2761,-6.4677,-6.5141,-6.6215,-6.8857,-7.0337,-7.0947,-7.0482,-7.0279,-6.9525,-6.787,-6.7638,0.0,0.0,0.0,0.0,0.0,0.0,0.0,0.0,0.0,-6.4996,-6.4996,-6.4996,-6.4996,0.0,0.0,-6.4996,-6.4967,0.0,0.0,0.0,0.0,0.0,0.0,0.0,0.0,0.0,0.0,0.0,0.0,0.0,0.0,0.0,0.0,0.0,-6.906,-6.7725,-6.864,-7.1416,-7.7297,-8.0442,-8.2774,-8.5677,-8.7379,-8.8283,-8.8032,-8.296,-7.7059,-7.3368,-6.7066,-6.1266,-5.8679,-5.775,-5.7323,-5.7072,-5.8303,-5.9583,-6.0337,-6.0864,-6.3048,-6.8447,-6.9476,-7.2138,-7.8766,-7.9746,-8.1227,-8.4742,-8.5646,-8.5922,-8.5747,-8.5395,-8.5169,-8.5244,-8.542,-8.532,-8.4918,-8.532,-8.5244,-8.4642,-8.4818,-8.4541,-8.3813,-8.3035,-8.2282,-8.1553,-8.1026,-8.0499,-7.9921,-7.9193,-7.834,-7.7436,-7.7034,-7.6984,-7.7134,-7.7134,-7.7461,-7.7913,-7.7762,-7.7586,-7.7411,0.0,0.0,0.0,0.0,0.0,-6.2761,-6.4677,-6.5519,-6.6389,-6.7725,-6.9002,-6.9786,-6.9786,-6.9234,-6.9089,-6.9699,-6.7986,0.0,0.0,0.0,0.0,0.0,0.0,0.0,0.0,0.0,-6.4996,-6.4996,-6.4996,-6.4996,-6.4996,-6.4996,-6.4996,-6.4996,0.0,0.0,0.0,0.0,0.0,0.0,0.0,0.0,-6.4967,0.0,0.0,0.0,0.0,0.0,0.0,0.0,0.0,0.0,0.0,-6.5831,-6.6662,-7.1311,-7.4769,-7.7662,-8.0976,-8.3914,-8.6174,-8.6676,-8.1805,-7.603,-7.2665,-6.6764,-6.1391,-5.9156,-5.7399,-5.6394,-5.6922,-5.7047,-5.7449,-5.8554,-6.0111,-6.2923,-6.7919,-6.9577,-7.1711,-7.5628,-7.5628,-7.6833,-8.0725,-8.4064,-8.5747,-8.5109,-8.5144,-8.4667,-8.3587,-8.4064,-8.4315,-8.4315,-8.4315,-8.4064,-8.3512,-8.4064,-8.3763,-8.2683,-8.2683,-8.2106,-8.1026,-8.0474,-7.9921,-7.9344,-7.8214,-7.7411,-7.6883,-7.6883,-7.721,-7.7687,-7.7687,-7.8038,-7.844,-7.7913,-7.736,-7.6883,0.0,0.0,0.0,0.0,0.0,0.0,-6.2848,-6.3574,-6.4619,-6.6331,-6.7289,-6.8305,-6.9641,-6.9205,-6.9089,-6.9728,-6.8421,0.0,0.0,0.0,0.0,0.0,0.0,0.0,0.0,-6.4996,-6.4996,-6.4996,-6.5431,-6.5402,-6.4996,-6.5431,-6.5402,-6.4996,-6.5431,-6.5286,0.0,0.0,0.0,0.0,0.0,-6.4996,-6.4996,0.0,0.0,0.0,0.0,0.0,0.0,0.0,0.0,0.0,0.0,0.0,0.0,-6.3854,-6.8602,-7.3371,-7.5569,-7.7938,-7.9545,-7.8566,-7.5603,-7.2163,-6.92,-6.4856,-6.0814,-5.8604,-5.7725,-5.7298,-5.7072,-5.7675,-5.8679,-6.0161,-6.0839,-6.1994,-6.4329,-6.7568,-7.0857,-7.3996,-7.9243,-8.3085,-8.4315,-8.5044,-8.532,-8.5144,-8.4466,-8.3864,-8.3512,-8.3311,-8.3361,-8.3738,-8.414,-8.424,-8.4064,-8.3487,-8.301,-8.2658,-8.1528,-8.0599,-7.9896,-7.9319,-7.8566,-7.7662,-7.7285,-7.6833,-7.6306,-7.6306,-7.6858,-7.7637,-7.6858,-7.7134,-7.7837,-7.6908,-7.6456,-7.6205,0.0,0.0,0.0,0.0,0.0,0.0,-6.1687,-6.2499,-6.3428,-6.4357,-6.546,-6.6825,-6.8509,-6.8334,-6.8538,-6.967,-6.8392,0.0,0.0,0.0,0.0,0.0,0.0,0.0,-6.4996,-6.4996,-6.5228,-6.5693,-6.636,-6.6593,-6.6447,-6.7086,-6.6767,-6.5722,-6.6389,-6.6041,0.0,0.0,0.0,0.0,-6.5257,-6.5199,-6.4996,0.0,0.0,0.0,0.0,0.0,0.0,0.0,0.0,0.0,0.0,0.0,0.0,0.0,-6.3337,-6.7143,-7.0478,-7.3318,-7.5126,-7.4297,-7.2113,-6.9476,-6.6915,-6.3324,-6.0035,-5.8252,-5.7549,-5.7223,-5.7072,-5.76,-5.8428,-5.9458,-6.0136,-6.109,-6.2621,-6.6112,-6.9777,-7.3192,-7.9645,-8.3813,-8.3813,-8.4642,-8.5069,-8.4818,-8.3989,-8.3412,-8.3186,-8.2859,-8.2834,-8.3186,-8.3512,-8.3688,-8.3688,-8.2809,-8.2131,-8.1729,-8.07,-7.9695,-7.8741,-7.8591,-7.7913,-7.6883,-7.6883,-7.6557,0.0,-7.6507,-7.6959,-7.7335,-7.6858,-7.6959,-7.7285,-7.6381,-7.5929,-7.5653,0.0,0.0,0.0,0.0,0.0,0.0,0.0,-6.2209,-6.2761,-6.2238,-6.369,-6.5286,-6.6593,-6.6796,-6.7551,-6.9408,-6.7928,0.0,0.0,0.0,0.0,0.0,0.0,0.0,-6.4996,-6.4996,-6.5577,-6.6825,-6.7522,-6.8189,-6.877,-6.9466,-6.877,-6.697,-6.7638,-6.6883,-6.5141,-6.5664,0.0,0.0,-6.5635,-6.5519,0.0,0.0,0.0,0.0,0.0,0.0,0.0,0.0,0.0,0.0,0.0,0.0,0.0,0.0,0.0,0.0,0.0,-6.9426,-7.1962,-7.2414,-7.028,-6.7467,-6.5308,-6.2044,0.0,-5.8102,-5.7022,-5.6445,-5.6997,-5.7072,-5.7072,-5.7198,-5.8529,-6.0311,-6.2471,-6.5509,-6.915,-7.3594,-7.7963,-8.0574,-8.0398,-8.3236,-8.4757,-8.4315,-8.3738,-8.3211,-8.2708,-8.2683,-8.2658,-8.2608,-8.2608,-8.2608,-8.2608,-8.1955,-8.1127,-8.0147,-8.0072,-7.9193,-7.7662,-7.8164,-7.7812,-7.6808,-7.6808,-7.6557,-7.618,-7.7185,-7.7335,-7.6984,-7.7411,-7.726,-7.6758,-7.623,-7.5678,-7.5201,0.0,0.0,0.0,0.0,0.0,0.0,0.0,0.0,0.0,0.0,-6.2819,-6.3457,-6.5228,-6.5867,-6.6535,0.0,0.0,0.0,0.0,0.0,0.0,0.0,0.0,0.0,-6.4996,-6.4996,-6.5373,-6.6157,-6.7318,-6.7957,-6.8131,-6.9263,-6.9031,-6.7667,-6.8305,-6.7783,-6.6389,-6.5548,0.0,0.0,-6.5141,-6.5112,0.0,0.0,0.0,0.0,-6.4996,-6.4996,0.0,0.0,0.0,0.0,0.0,0.0,0.0,0.0,-5.7268,-5.7826,-5.9709,0.0,-6.3073,-6.2395,-6.2245,-6.1918,0.0,-5.9533,-5.8679,-5.8027,-5.7323,-5.7022,-5.76,-5.7323,-5.7449,-5.8704,-5.9608,-6.0613,-6.1994,-6.8246,-7.4322,-7.8766,-8.2457,-8.3989,-8.2257,-8.3562,-8.4315,-8.3738,-8.3186,-8.2809,-8.2683,-8.2683,-8.2457,-8.2031,-8.2005,-8.2005,-8.2005,-8.065,-7.9821,-7.957,-7.8716,-7.7862,-7.7084,-7.721,-7.6883,-7.6256,-7.6256,-7.6406,-7.6682,-7.6507,-7.6858,-7.7436,-7.6733,-7.6356,-7.623,-7.6105,-7.5452,-7.4674,0.0,0.0,0.0,0.0,0.0,0.0,0.0,0.0,0.0,0.0,-6.3022,-6.3399,-6.4444,-6.5635,-6.6506,0.0,0.0,0.0,0.0,0.0,0.0,0.0,-6.4996,-6.4996,-6.4996,-6.4996,-6.5606,-6.6825,-6.7841,-6.877,-6.9641,-7.0337,-6.996,-6.8741,-6.8189,-6.7551,-6.6825,-6.6157,-6.5519,-6.4996,-6.5315,0.0,0.0,0.0,0.0,0.0,-6.4996,-6.4996,0.0,-6.5664,-6.3845,-6.1364,0.0,0.0,0.0,0.0,-5.642,-5.6721,-5.7047,-5.8679,-6.0236,-5.9935,-6.0085,-6.0111,-5.9257,-5.8478,-5.7775,-5.7223,-5.6872,-5.6746,-5.7072,-5.6872,-5.7123,-5.8529,-5.9232,-6.0964,-6.4881,-7.038,-7.5879,-8.08,-8.2985,-8.3989,-8.3813,-8.3889,-8.3813,-8.3512,-8.2985,-8.2558,-8.2282,-8.2282,-8.2031,-8.1478,-8.1202,-8.1202,-8.1453,-8.0072,-7.9243,-7.8992,-7.8114,-7.7285,-7.6507,-7.6758,-7.6582,-7.6055,-7.6055,-7.623,-7.6507,-7.6456,-7.6482,-7.6532,-7.618,-7.5904,-7.5678,-7.5678,-7.5301,-7.4875,0.0,0.0,0.0,0.0,0.0,0.0,0.0,0.0,0.0,0.0,0.0,0.0,0.0,0.0,0.0,0.0,0.0,0.0,0.0,0.0,0.0,-6.4996,-6.4996,-6.4996,-6.4996,-6.5083,-6.5983,-6.7725,-6.8654,-7.0047,-7.1818,-7.2021,-7.1382,-6.9989,-6.8131,-6.7173,-6.6883,-6.6767,-6.607,-6.5025,-6.5577,0.0,0.0,0.0,0.0,0.0,0.0,0.0,0.0,-6.602,-6.4415,-6.2042,-6.1901,0.0,0.0,0.0,0.0,0.0,-5.652,-5.8403,-6.0337,-6.0412,-6.0311,-6.001,-5.9282,-5.8177,-5.7148,-5.657,-5.6394,-5.6394,-5.657,-5.6595,-5.6972,-5.8077,-5.9081,-6.222,-6.9325,-7.2514,-7.5954,-8.0976,-8.193,-8.2809,-8.4366,-8.3889,-8.3462,-8.3386,-8.2859,-8.2332,-8.183,-8.1729,-8.1453,-8.0926,-8.0373,-8.0273,-8.065,-7.9645,-7.8842,-7.8264,-7.7712,-7.6959,-7.608,-7.6532,-7.6507,-7.6055,-7.6055,-7.6105,-7.6205,-7.6582,-7.6205,-7.5402,-7.5778,-7.5552,-7.5,-7.5075,-7.505,-7.5075,0.0,0.0,0.0,0.0,0.0,0.0,0.0,0.0,0.0,0.0,0.0,0.0,0.0,0.0,0.0,0.0,0.0,0.0,0.0,0.0,0.0,-6.4996,-6.4996,-6.4996,-6.4996,-6.5519,-6.6215,-6.7028,-6.9321,-7.1121,-7.2485,-7.356,-7.3124,-7.1324,-6.9931,-6.8421,-6.6854,-6.6302,-6.5664,-6.4996,-6.5083,0.0,0.0,0.0,0.0,0.0,0.0,0.0,0.0,-6.3752,-6.2319,-6.0615,-5.9457,0.0,0.0,0.0,0.0,0.0,-5.7951,-5.9307,-5.9784,-5.7524,-5.8303,-5.9232,-5.775,-5.7951,-5.8303,-5.775,-5.7248,-5.7198,-5.8152,-5.8328,-5.8679,-5.9784,-6.2395,-6.6639,-7.3393,-7.5527,-7.7385,-8.0122,-8.2508,-8.3336,-8.1805,-8.2759,-8.3286,-8.2834,-8.2257,-8.1905,-8.1805,-8.1403,-8.0901,-8.0348,-7.9796,-7.9319,-7.8917,-7.8264,-7.7687,-7.7134,-7.6582,-7.623,-7.6055,-7.6155,-7.613,-7.6055,-7.6055,-7.6331,-7.6733,-7.6331,-7.608,-7.5879,-7.5502,-7.4749,-7.3895,-7.4372,-7.4247,-7.3996,0.0,0.0,0.0,0.0,0.0,0.0,0.0,0.0,0.0,0.0,0.0,0.0,0.0,0.0,0.0,0.0,0.0,0.0,0.0,-6.5925,-6.5954,-6.6012,-6.6012,-6.5838,-6.5489,-6.6128,-6.726,-6.8944,-7.1208,-7.3124,-7.4692,-7.4227,-7.3008,-7.1092,-6.9466,-6.8073,-6.6854,-6.6186,-6.5577,-6.4996,0.0,0.0,0.0,0.0,0.0,0.0,0.0,0.0,0.0,0.0,-6.2261,-6.0261,-5.962,0.0,0.0,0.0,0.0,0.0,-5.7148,-5.8177,-5.878,-5.7801,-5.9006,-6.006,-5.8679,-5.8328,-5.8278,-5.8303,-5.8127,-5.8202,-5.8981,-6.0136,-6.1793,-6.4379,-6.7342,-7.0606,-7.4272,-7.5753,-7.7486,-8.0323,-8.1503,-8.2156,-8.2357,-8.2784,-8.2809,-8.2257,-8.1955,-8.1553,-8.0976,-8.0725,-8.0198,-7.9319,-7.9043,-7.8515,-7.7637,-7.7385,-7.7134,-7.6858,-7.6331,-7.6055,-7.6055,-7.6055,-7.6055,-7.6055,-7.6055,-7.603,-7.5979,-7.5728,-7.5251,-7.4699,-7.4448,-7.4222,-7.4146,-7.5,-7.5151,-7.5,0.0,0.0,0.0,0.0,0.0,0.0,0.0,0.0,0.0,0.0,0.0,0.0,0.0,0.0,0.0,0.0,0.0,0.0,0.0,-6.607,-6.636,-6.6854,-6.7173,-6.7115,-6.6622,-6.7522,-6.9118,-7.1411,-7.3792,-7.5853,-7.7537,-7.5475,-7.3385,-7.1324,-6.9234,-6.7696,-6.6622,-6.6128,-6.5577,-6.4996,0.0,0.0,0.0,0.0,0.0,0.0,0.0,0.0,0.0,0.0,0.0,0.0,0.0,0.0,0.0,-5.6671,-5.6394,-5.6495,-5.6872,-5.7524,-5.8227,-5.8755,-5.9859,-6.0738,-6.0537,-5.9734,-5.9232,-5.9885,-5.996,-5.9935,-6.006,-6.2119,-6.5032,-6.8773,-7.1736,-7.4071,-7.5552,-7.6607,-7.8264,-8.1076,-8.1051,-8.1403,-8.2934,-8.2708,-8.2231,-8.1679,-8.1503,-8.1076,-8.0248,-8.0097,-7.957,-7.8566,-7.839,-7.7862,-7.6883,-7.6883,-7.6808,-7.6682,-7.6256,-7.6055,-7.6055,-7.6055,-7.6055,-7.6055,-7.6055,-7.5753,-7.5251,-7.5251,-7.4598,-7.3619,-7.3745,-7.4046,-7.4523,-7.5502,-7.5854,-7.5879,0.0,0.0,0.0,0.0,0.0,0.0,0.0,0.0,0.0,0.0,0.0,0.0,0.0,0.0,0.0,0.0,0.0,0.0,0.0,-6.6476,-6.6825,-6.6883,-6.8044,-6.8654,-6.8625,-7.0395,-7.1992,-7.3414,-7.7101,-7.9569,-8.0788,-7.8291,-7.5795,-7.3298,-7.0773,-6.8276,-6.6012,-6.5889,-6.5577,-6.4996,-6.4996,0.0,0.0,0.0,0.0,0.0,0.0,0.0,0.0,0.0,0.0,0.0,0.0,0.0,-5.7072,-5.6997,-5.6972,-5.7298,-5.8855,-5.8956,-5.878,-5.9307,-5.9533,-6.0286,-6.2822,-6.2923,-6.2772,-6.3827,-6.3676,-6.3023,-6.2019,-6.4479,-6.7769,-7.1133,-7.3996,-7.6758,-7.9419,-8.0298,-8.1152,-8.2407,-8.2508,-8.2332,-8.1955,-8.1905,-8.1654,-8.1127,-8.0624,-8.0298,-8.0223,-7.9721,-7.9168,-7.854,-7.8038,-7.7486,-7.6883,-7.6883,-7.6632,-7.6105,-7.608,-7.6055,-7.6055,-7.6055,-7.6055,-7.6055,-7.6055,-7.5753,-7.5251,-7.5251,-7.4598,-7.3644,-7.4171,-7.4372,-7.4498,-7.5075,-7.5301,-7.5377,0.0,0.0,0.0,0.0,0.0,0.0,0.0,0.0,0.0,0.0,0.0,0.0,0.0,0.0,0.0,0.0,0.0,0.0,-6.5925,-6.6535,-6.7231,-6.8044,-6.8944,-6.9612,-6.9989,-7.2282,-7.4866,-7.7769,-8.0788,-8.1891,-8.1136,-7.8175,-7.504,-7.1702,-6.9118,-6.7434,-6.6476,-6.5693,-6.5431,-6.5548,-6.5141,-6.4868,0.0,0.0,0.0,0.0,0.0,0.0,0.0,0.0,-5.9378,-5.7404,-5.6692,-5.6997,-5.7575,-5.7575,-5.7072,-5.6721,-5.77,-5.7826,-5.7976,-5.9182,-5.9483,-6.0136,-6.2596,-6.3776,-6.4781,-6.6237,-6.694,-6.7141,-6.6714,-6.8497,-7.0807,-7.3092,-7.6381,-7.8992,-8.0072,-8.0951,-8.1553,-8.1654,-8.1654,-8.1553,-8.1353,-8.1328,-8.1102,-8.0574,-8.0323,-8.0072,-7.9721,-7.9168,-7.8591,-7.8038,-7.7812,-7.7436,-7.6883,-7.6883,-7.6783,-7.6557,-7.6557,-7.6381,-7.6055,-7.5703,-7.5552,-7.5527,-7.5176,-7.4925,-7.4724,-7.4724,-7.4473,-7.4171,-7.4724,-7.4925,-7.5,-7.5552,-7.5753,-7.5728,0.0,0.0,0.0,0.0,0.0,0.0,0.0,0.0,0.0,0.0,0.0,0.0,0.0,0.0,0.0,0.0,0.0,0.0,-6.6244,-6.6825,-6.7696,-6.877,-6.9437,-7.0366,-7.1615,-7.4343,-7.7275,-8.0294,-8.3662,-8.3894,-8.1136,-7.8378,-7.5214,-7.1789,-6.9031,-6.7783,-6.7696,-6.6215,-6.5722,-6.5867,-6.5228,-6.4868,0.0,0.0,0.0,0.0,0.0,0.0,0.0,0.0,-5.8622,-5.6771,-5.6746,-5.7273,-5.7901,-5.7901,-5.7223,-5.652,-5.6721,-5.652,-5.6646,-5.8303,-5.9106,-6.0362,-6.3651,-6.5283,-6.6865,-6.9577,-6.9777,-6.9501,-6.9677,-7.0631,-7.1987,-7.3845,-7.7561,-8.0273,-8.0449,-8.1252,-8.1679,-8.1328,-8.1127,-8.0976,-8.0775,-8.0775,-8.0549,-7.9997,-7.9771,-7.952,-7.9143,-7.8566,-7.8013,-7.7461,-7.726,-7.6908,-7.6356,-7.6532,-7.6431,-7.6105,-7.6456,-7.6331,-7.5778,-7.5402,-7.5151,-7.4975,-7.4774,-7.4573,-7.4423,-7.4423,-7.4423,-7.4423,-7.4649,-7.4925,-7.5251,-7.5452,-7.5527,-7.5477,0.0,0.0,0.0,0.0,0.0,0.0,0.0,0.0,0.0,0.0,0.0,0.0,0.0,0.0,0.0,0.0,0.0,0.0,-6.6883,-6.7492,-6.816,-6.8799,-6.9437,-7.0976,-7.3501,-7.6724,-7.9017,-8.0323,-8.5403,-8.5549,-8.1107,-7.9249,-7.6985,-7.4314,-7.1208,-6.9786,-6.9641,-6.7725,-6.6535,-6.5896,-6.5257,-6.4996,-6.5025,0.0,0.0,0.0,0.0,0.0,0.0,0.0,-5.7862,-5.642,-5.7549,-5.7901,-5.7901,-5.7901,-5.7499,-5.6922,-5.6369,-5.5415,-5.4988,-5.6646,-5.8303,-6.0989,-6.6564,-6.7819,-6.9225,-7.4222,-7.2188,-6.9652,-7.0204,-7.0305,-7.1033,-7.3242,-7.731,-8.0373,-8.0951,-8.1453,-8.1779,-8.1779,-8.1328,-8.08,-8.0248,-8.0198,-7.9972,-7.9419,-7.8842,-7.8515,-7.8515,-7.7988,-7.7436,-7.6883,-7.6331,-7.5778,-7.5251,-7.5778,-7.5502,-7.4448,-7.5527,-7.5753,-7.5226,-7.5226,-7.4925,-7.4448,-7.4975,-7.49,-7.4397,-7.4397,-7.4397,-7.4347,-7.382,-7.4272,-7.5176,-7.4623,-7.4423,-7.4423,0.0,0.0,0.0,0.0,0.0,0.0,0.0,0.0,0.0,0.0,0.0,0.0,0.0,0.0,0.0,0.0,0.0,0.0,-6.6854,-6.7057,-6.7463,-6.8131,-6.9205,-6.9931,-7.025,-7.3792,-7.7624,-8.163,-8.3139,-8.1368,-7.6491,-7.6404,-7.4518,-7.1208,-7.1586,-7.1034,-6.9699,-6.8683,-6.8392,-6.8509,-6.6941,-6.633,-6.6222,0.0,0.0,0.0,0.0,0.0,0.0,0.0,0.0,0.0,-5.7323,-5.8102,-5.8956,-5.8579,-5.8077,-5.7424,-5.647,-5.5968,-5.6118,-5.7801,-6.0362,-6.3701,-6.8447,-6.9526,-7.0832,-7.5452,-7.4849,-7.3343,-7.2715,-7.2916,-7.3393,-7.4071,-7.6908,-7.9218,-7.9796,-8.0348,-8.0549,-8.0147,-7.9972,-7.9821,-7.9645,-7.9269,-7.8967,-7.8792,-7.8264,-7.8114,-7.849,-7.726,-7.6632,-7.6858,-7.5979,-7.5402,-7.5251,-7.5402,-7.5502,-7.5578,-7.5502,-7.5201,-7.4674,-7.4674,-7.4347,-7.382,-7.3594,-7.3619,-7.3845,-7.3845,-7.3845,-7.382,-7.3669,-7.4021,-7.4649,-7.4473,-7.4423,-7.4372,0.0,0.0,0.0,0.0,0.0,0.0,0.0,0.0,0.0,0.0,-6.6389,-6.6215,0.0,0.0,0.0,0.0,0.0,0.0,-6.6854,-6.7115,-6.7463,-6.787,-6.8857,-6.9699,-7.0308,-7.3327,-7.6056,-7.8378,-8.0178,-7.8669,-7.4198,-7.6114,-7.5504,-7.2892,-7.4808,-7.4459,-7.2369,-7.1469,-7.05,-6.9464,-6.8306,-6.7805,-6.7695,0.0,0.0,0.0,0.0,0.0,0.0,0.0,0.0,0.0,-5.7072,-5.7725,-5.8453,-5.8152,-5.765,-5.7072,-5.6394,-5.6219,-5.6821,-5.9382,-6.2019,-6.5258,-7.0129,-7.2439,-7.4372,-7.7285,-7.6632,-7.5352,-7.4699,-7.4297,-7.4297,-7.495,-7.6833,-7.854,-7.957,-7.962,-7.957,-7.9695,-7.9118,-7.8792,-7.9018,-7.854,-7.8189,-7.8189,-7.7687,-7.7411,-7.7536,-7.6381,-7.5778,-7.5904,-7.505,-7.4598,-7.4598,-7.4598,-7.4623,-7.4724,-7.4397,-7.3946,-7.3443,-7.4347,-7.4197,-7.3217,-7.2891,-7.2941,-7.3268,-7.3494,-7.3594,-7.3569,-7.3343,-7.3443,-7.372,-7.3494,-7.3418,-7.3368,0.0,0.0,-6.4909,-6.4967,0.0,0.0,0.0,0.0,0.0,0.0,-6.6476,-6.6564,0.0,0.0,0.0,0.0,0.0,0.0,0.0,-6.7551,-6.787,-6.787,-6.8538,-7.0018,-7.2398,-7.4111,-7.4111,-7.2369,-7.6666,-7.6898,-7.3356,-7.7217,-7.8378,-7.7333,-7.9394,-7.8843,-7.6288,-7.4982,-7.2302,-6.9043,-6.9101,-6.9002,-6.865,-6.7993,0.0,0.0,0.0,0.0,0.0,0.0,0.0,0.0,-5.6798,-5.6998,-5.7023,-5.6973,-5.6721,-5.6344,-5.6294,-5.6394,-5.7424,-6.1215,-6.3701,-6.6614,-7.1887,-7.5879,-7.8591,-7.9068,-7.7662,-7.6331,-7.623,-7.495,-7.4372,-7.5879,-7.6959,-7.8189,-7.9771,-7.9093,-7.8817,-7.9871,-7.8641,-7.7888,-7.839,-7.7938,-7.7611,-7.7561,-7.7034,-7.6507,-7.6004,-7.5427,-7.4875,-7.4423,-7.377,-7.3468,-7.3519,-7.3468,-7.3192,-7.274,-7.274,-7.2464,-7.2037,-7.4021,-7.4096,-7.264,-7.259,-7.259,-7.2615,-7.3142,-7.3368,-7.3318,-7.2791,-7.259,-7.2514,-7.2012,-7.1836,-7.1836,0.0,0.0,-6.4386,-6.4909,0.0,0.0,0.0,0.0,0.0,0.0,-6.636,0.0,0.0,-6.5925,0.0,0.0,0.0,0.0,0.0,-6.7812,-6.787,-6.787,-6.8973,-7.0047,-7.1092,-7.1034,-7.0802,-7.0395,-7.3385,-7.3385,-7.0686,-7.504,-7.6666,-7.6056,-7.8988,-7.8456,-7.5277,-7.4197,-7.1379,-6.7708,-6.8328,-6.7267,-6.5119,-6.4378,-6.2746,0.0,0.0,0.0,0.0,0.0,0.0,0.0,-5.6402,-5.6875,-5.7199,-5.7024,-5.7273,-5.7449,-5.6972,-5.7801,-5.9508,-6.2571,-6.7166,-7.1836,-7.5201,-7.6959,-7.7787,-7.7486,-7.8088,-7.839,-7.7511,-7.6707,-7.6281,-7.6632,-7.6908,-7.7335,-7.8139,-7.8038,-7.7963,-7.8214,-7.7913,-7.7762,-7.7862,-7.7385,-7.6883,-7.6431,-7.5904,-7.5552,-7.5427,-7.4473,-7.4096,-7.4397,-7.3016,-7.2464,-7.2916,-7.2489,-7.2414,-7.274,-7.274,-7.2665,-7.2565,-7.259,-7.2414,-7.2062,-7.1636,-7.1435,-7.1435,-7.156,-7.1636,-7.161,-7.1485,-7.1435,-7.141,-7.1309,-7.1259,-7.1259,0.0,0.0,0.0,0.0,0.0,0.0,0.0,0.0,0.0,0.0,0.0,0.0,0.0,-6.5751,0.0,0.0,-6.6883,0.0,0.0,-6.787,-6.8015,-6.8334,-6.8521,-6.8663,-6.8691,-6.8663,-6.8142,-6.7101,-6.9167,-6.9978,-6.9564,-7.3948,-7.543,-7.4563,-7.8833,-7.7964,-7.3367,-7.4321,-7.168,-6.6984,-6.8339,-6.7458,-6.5314,-6.4315,-6.2681,-6.063,-5.8846,0.0,0.0,0.0,0.0,0.0,0.0,0.0,-5.6774,-5.6647,-5.7047,-5.7549,-5.7775,-5.9633,-6.2546,-6.694,-7.1008,-7.4372,-7.608,-7.6908,-7.7235,-7.6933,-7.7988,-7.8641,-7.7511,-7.7084,-7.6883,-7.6883,-7.6657,-7.6758,-7.7586,-7.726,-7.7109,-7.7637,-7.7235,-7.6908,-7.6908,-7.6406,-7.5854,-7.5301,-7.5,-7.4724,-7.4473,-7.3895,-7.3594,-7.3619,-7.2489,-7.2037,-7.2339,-7.1786,-7.1661,-7.1937,-7.1686,-7.141,-7.1158,-7.141,-7.151,-7.1485,-7.1209,-7.0932,-7.0732,-7.1259,-7.1309,-7.1083,-7.1083,-7.0907,-7.0681,-7.0681,-7.0681,-7.0681,0.0,0.0,0.0,0.0,0.0,0.0,0.0,0.0,0.0,0.0,0.0,0.0,0.0,0.0,-6.607,0.0,0.0,0.0,0.0,0.0,0.0,-6.8536,-6.779,-6.7127,-6.6607,-6.6927,-6.6297,-6.4473,-6.5688,-6.7174,-6.8946,-7.2847,-7.4113,-7.3404,-7.7784,-7.6586,-7.1417,-7.3416,-7.0928,-6.5812,-6.7673,-6.7157,-6.5238,-6.4456,-6.3048,-6.1158,-5.9125,-5.7466,-5.6221,-5.5336,0.0,0.0,0.0,0.0,-5.6176,-5.6122,-5.6398,-5.6999,-5.8202,-6.1366,-6.5634,-7.1309,-7.3996,-7.5377,-7.5929,-7.6482,-7.6858,-7.6758,-7.7611,-7.8063,-7.7059,-7.6883,-7.6833,-7.6758,-7.6356,-7.6381,-7.7285,-7.6632,-7.6356,-7.7185,-7.6456,-7.5879,-7.5778,-7.5352,-7.4875,-7.4322,-7.4272,-7.3996,-7.3343,-7.3293,-7.3042,-7.2464,-7.1912,-7.1661,-7.1761,-7.1133,-7.0857,-7.0932,-7.028,-6.9752,-6.9325,-7.0154,-7.0606,-7.0807,-7.0807,-7.0606,-7.033,-7.1259,-7.1359,-7.0932,-7.0932,-7.0606,-7.0104,-7.0104,-7.0104,-7.0104,0.0,0.0,0.0,0.0,0.0,0.0,0.0,0.0,0.0,0.0,-6.5954,-6.578,0.0,0.0,0.0,-6.6796,-6.6883,-6.7405,-6.8625,0.0,0.0,-6.7623,-6.7425,-6.7213,-6.6855,-6.6372,-6.6052,-6.5748,-6.5426,-6.6115,-6.7872,-7.0173,-7.1927,-7.324,-7.3512,-7.264,-7.0826,-6.8593,-6.5555,-6.2277,-6.4034,-6.2585,-5.9595,-6.0342,-5.9404,-5.7545,-5.6238,-5.5351,-5.4948,-5.5255,-5.5424,0.0,0.0,0.0,-5.5942,-5.5757,-5.5755,-5.6128,-5.7625,-6.2195,-6.7543,-7.1711,-7.4021,-7.5377,-7.5929,-7.6482,-7.6733,-7.6256,-7.7034,-7.7611,-7.6984,-7.6883,-7.6733,-7.623,-7.6105,-7.6105,-7.6256,-7.6155,-7.5929,-7.5603,-7.5427,-7.5151,-7.4674,-7.4573,-7.4297,-7.3745,-7.3694,-7.3242,-7.2188,-7.2138,-7.1887,-7.1309,-7.0757,-7.0706,-7.1184,-7.0179,-6.9903,-7.0355,-6.9325,-6.8798,-6.8723,-6.8396,-6.8748,-6.9652,-6.9652,-6.9878,-7.028,-7.0405,-7.043,-7.038,-7.038,-7.0029,-6.9551,-6.9551,-6.9551,-6.9551,0.0,0.0,0.0,0.0,0.0,0.0,0.0,0.0,0.0,0.0,0.0,-6.5693,0.0,0.0,0.0,-6.6273,-6.636,-6.6912,-6.8218,-6.7821,-6.7349,-6.6876,-6.5207,-6.421,-6.4075,-6.3761,-6.3336,-6.279,-6.3073,-6.4298,-6.6329,-6.722,-6.9039,-7.1539,-7.1735,-7.0415,-6.8143,-6.6868,-6.4323,-6.1161,-6.2519,-6.1391,-5.8847,-5.8642,-5.785,-5.6686,-5.538,-5.4575,-5.4255,-5.4784,-5.5106,-5.5384,-5.5876,0.0,0.0,0.0,-5.6079,-5.7323,-6.106,-6.3977,-6.7191,-7.2012,-7.377,-7.4473,-7.5,-7.5552,-7.5804,-7.5251,-7.5527,-7.5979,-7.6356,-7.6406,-7.623,-7.5678,-7.5603,-7.5477,-7.5176,-7.5151,-7.505,-7.4799,-7.4774,-7.4573,-7.3996,-7.3946,-7.3594,-7.2715,-7.2941,-7.2615,-7.151,-7.1736,-7.1661,-7.1108,-7.0556,-7.038,-7.0631,-6.9526,-6.8949,-6.8874,-6.8396,-6.817,-6.8145,-6.7919,-6.807,-6.8547,-6.8848,-6.8949,-6.8899,-6.9225,-6.915,-6.8924,-6.9225,-6.92,-6.9024,-6.9325,-6.9361,-6.9361,0.0,0.0,0.0,0.0,0.0,0.0,0.0,0.0,0.0,0.0,0.0,0.0,0.0,0.0,0.0,0.0,-6.607,-6.6738,-6.8044,-6.7118,-6.6342,-6.5892,-6.3299,-6.1695,-6.1372,-6.1398,-6.1147,-6.0537,-6.13,-6.3194,-6.6137,-6.6137,-6.8145,-7.1771,-7.1095,-6.9195,-6.6535,-6.5938,-6.4209,-6.1878,-6.1886,-6.0881,-5.9267,-5.854,-5.7727,-5.6862,-5.5751,-5.4893,-5.4479,-5.5001,-5.5448,-5.5751,-5.6163,-5.644,0.0,0.0,0.0,-5.7897,-6.2415,-6.4128,-6.5785,-7.0531,-7.2539,-7.3494,-7.3895,-7.4649,-7.5075,-7.4523,-7.4423,-7.4674,-7.5477,-7.5628,-7.5502,-7.5101,-7.49,-7.4724,-7.4448,-7.4171,-7.4046,-7.4197,-7.4071,-7.382,-7.3418,-7.3242,-7.2816,-7.1962,-7.2163,-7.1887,-7.0932,-7.1259,-7.1234,-7.0681,-7.0255,-6.9978,-6.9853,-6.8899,-6.8145,-6.7593,-6.7442,-6.7367,-6.7367,-6.7091,-6.7041,-6.7216,-6.8045,-6.8095,-6.7643,-6.8196,-6.817,-6.7844,-6.8246,-6.8422,-6.8472,-6.8874,-6.9125,-6.925,0.0,0.0,0.0,0.0,0.0,0.0,0.0,0.0,0.0,0.0,0.0,-6.5693,-6.5054,-6.4996,-6.5228,-6.5867,-6.6476,-6.7376,-6.8683,-6.7346,-6.5821,-6.4364,-6.2709,0.0,-6.0418,-6.034,-6.0641,-6.114,-6.1194,-6.3708,-6.8447,-6.8447,-7.1058,-7.5552,-7.1394,-6.8851,-6.7568,-6.5078,-6.4403,-6.4797,-6.1814,-6.0204,-5.9732,-6.0076,-5.9064,-5.745,-5.7376,-5.6777,-5.6046,-5.6697,-5.69,-5.69,-5.6925,-5.6949,-5.6794,0.0,0.0,0.0,-5.8554,-6.0964,-6.3525,-6.5911,-6.9652,-7.2791,-7.2816,-7.4071,-7.5075,-7.4523,-7.4423,-7.4423,-7.4498,-7.4498,-7.4498,-7.4473,-7.4021,-7.3845,-7.4347,-7.3494,-7.3016,-7.3569,-7.3142,-7.2816,-7.2791,-7.2313,-7.1962,-7.1912,-7.1435,-7.0907,-7.033,-7.033,-7.0104,-6.9551,-6.9501,-6.9225,-6.8723,-6.812,-6.7568,-6.7015,-6.6463,-6.6187,-6.6162,-6.5107,-6.4931,-6.5509,-6.7141,-6.7518,-6.7066,-6.7618,-6.7819,-6.7794,-6.7819,-6.7844,-6.7844,-6.7869,-6.8221,-6.8673,0.0,0.0,0.0,0.0,0.0,0.0,0.0,0.0,0.0,0.0,0.0,0.0,0.0,-6.4996,-6.5083,-6.5315,-6.5085,-6.5098,-6.5553,-6.3594,-6.2335,-6.2126,-6.0984,-6.0353,-6.0311,-6.0311,-6.0763,-6.1718,-6.0989,-6.2822,-6.7041,-6.812,-7.0129,-7.2765,-7.0455,-6.9426,-6.91,-6.4587,-6.2895,-6.3136,-6.1627,-6.0642,-6.0129,-5.9591,-5.899,-5.8257,-5.7333,-5.6581,-5.6148,-5.6697,-5.6728,-5.6564,-5.69,-5.678,-5.6354,-5.5588,-5.568,-5.6427,-5.8295,-5.9701,-6.1466,-6.4756,-6.7041,-6.8848,-7.0305,-7.1912,-7.3042,-7.2841,-7.3092,-7.3217,-7.2866,-7.3393,-7.377,-7.3393,-7.2866,-7.2464,-7.2288,-7.1937,-7.1761,-7.1962,-7.1786,-7.1686,-7.1686,-7.1184,-7.0857,-7.0857,-7.0656,-7.0154,-6.925,-6.9551,-6.9325,-6.8422,-6.8396,-6.812,-6.7568,-6.7367,-6.6815,-6.5886,-6.5685,-6.5409,-6.5057,-6.5007,-6.4906,-6.4806,-6.576,-6.6287,-6.6438,-6.6639,-6.6714,-6.6764,-6.7116,-6.7493,-6.7794,-6.7794,-6.8145,-6.8572,0.0,0.0,0.0,0.0,0.0,-6.546,-6.5054,-6.5344,-6.546,-6.5025,0.0,0.0,0.0,0.0,-6.4862,-6.4612,-6.3638,-6.3137,-6.3332,-6.1389,-6.0452,-6.0953,-5.9998,-5.9659,-6.0035,-6.0211,-6.0788,-6.1718,-6.0964,-6.2496,-6.6137,-6.7467,-6.925,-7.1284,-6.9426,-6.9652,-7.1108,-6.684,-6.4888,-6.4434,-6.254,-6.1682,-6.1565,-6.1166,-6.0692,-6.0114,-5.9544,-5.8709,-5.7883,-5.7873,-5.751,-5.72,-5.7404,-5.6897,-5.6028,-5.5391,-5.5404,-5.5829,-5.7019,-5.7845,-5.9276,-6.2859,-6.4245,-6.5459,-6.8246,-6.9752,-7.0631,-7.1008,-7.151,-7.1836,-7.1661,-7.2087,-7.2414,-7.2213,-7.1711,-7.1284,-7.1108,-7.0757,-7.0681,-7.1033,-7.0757,-7.0681,-7.1058,-7.0255,-6.9853,-7.0229,-6.9752,-6.92,-6.8648,-6.8798,-6.8547,-6.7819,-6.7618,-6.7342,-6.6965,-6.6789,-6.6212,-6.5283,-6.5107,-6.4731,-6.4228,-6.4379,-6.4379,-6.4228,-6.4605,-6.5157,-6.5835,-6.5835,-6.5835,-6.5886,-6.6463,-6.6915,-6.7267,-6.7442,-6.7869,-6.8296,0.0,0.0,-6.4996,-6.4996,-6.4996,-6.4996,-6.4996,-6.4996,-6.4996,-6.4996,0.0,0.0,0.0,0.0,0.0,-6.3863,-6.244,-6.1759,-6.2372,-6.0933,-6.0326,-6.0853,-5.9973,-5.9483,-5.9508,-6.0035,-6.0613,-6.1215,-6.119,-6.2847,-6.6061,-6.6664,-6.8673,-7.1636,-6.8472,-6.9451,-7.3368,-7.1585,-7.028,-6.8999,-6.4605,-6.3224,-6.3902,-6.4831,-6.4228,-6.2991,-6.4259,-6.3294,-6.1322,-6.0316,-5.9613,-5.9066,-5.8594,-5.7315,-5.5852,-5.5345,-5.506,-5.4868,0.0,0.0,0.0,-5.9835,-6.1146,-6.2873,-6.6714,-6.7593,-6.7945,-6.91,-6.9777,-7.0355,-7.0932,-7.0606,-7.043,-7.0958,-7.0581,-7.043,-7.0958,-7.0129,-6.9828,-7.0882,-7.0079,-6.9828,-7.0882,-6.9526,-6.9024,-7.0104,-6.8698,-6.7995,-6.8547,-6.8045,-6.7744,-6.7744,-6.7216,-6.694,-6.6915,-6.6363,-6.581,-6.5258,-6.4705,-6.4178,-6.3676,-6.3099,-6.3149,-6.3676,-6.3676,-6.4279,-6.5233,-6.5258,-6.5283,-6.5333,-6.5886,-6.6112,-6.6237,-6.6764,-6.7342,-6.7819,0.0,-6.4996,-6.4996,-6.4996,-6.4996,-6.4996,-6.4996,-6.4996,-6.4996,0.0,0.0,0.0,-6.4996,-6.4773,-6.4139,-6.2837,-6.1363,-6.0241,-5.9554,-5.8125,-5.7737,-5.8703,-5.8857,-5.9307,-6.006,-6.0236,-6.0814,-6.1768,-6.1391,-6.227,-6.4379,-6.5735,-6.7267,-6.8949,-6.9225,-6.9803,-7.0355,-6.6664,-6.6338,-6.7945,-6.4304,-6.4128,-6.5835,-6.3726,-6.3149,-6.3525,-6.3894,-6.3394,-6.2589,-6.2754,-6.1958,-6.0569,-5.8161,-5.6553,-5.5371,-5.4455,-5.466,-5.5133,-5.4473,0.0,0.0,0.0,0.0,0.0,-6.1818,-6.2722,-6.3776,-6.6488,-6.7493,-6.8296,-6.9652,-7.0104,-7.0179,-6.9953,-6.9777,-6.9727,-6.9878,-6.9627,-6.9401,-6.9325,-6.9024,-6.8798,-6.8723,-6.7919,-6.7719,-6.8422,-6.7693,-6.7267,-6.7417,-6.689,-6.6589,-6.6589,-6.6438,-6.6162,-6.576,-6.5584,-6.5233,-6.468,-6.4153,-6.3827,-6.3676,-6.3525,-6.3299,-6.3099,-6.35,-6.3852,-6.4153,-6.453,-6.4931,-6.5308,-6.5459,-6.6262,-6.7292,-6.7066,-6.7568,-6.8182,-6.4996,-6.5199,-6.5373,-6.5373,-6.5838,-6.6012,-6.546,-6.5606,-6.5383,0.0,0.0,0.0,-6.3932,-6.3778,-6.3271,-6.2137,-6.0258,-5.8859,-5.8217,-5.6957,-5.6721,-5.7851,-5.8428,-5.9106,-5.996,-6.0211,-6.0638,-6.1316,-6.1215,-6.1793,-6.3023,-6.4203,-6.5333,-6.6438,-6.694,-6.7367,-6.7493,-6.4203,-6.463,-6.7317,-6.5584,-6.6011,-6.7568,-6.6789,-6.6614,-6.684,-6.7292,-6.6841,-6.6042,-6.5917,-6.4444,-6.2079,-5.8628,-5.7194,-5.6395,-5.4664,-5.4841,0.0,0.0,0.0,-5.593,-5.6849,0.0,0.0,-5.9734,-6.006,-6.0763,-6.4053,-6.5208,-6.6112,-6.7744,-6.8321,-6.8572,-6.8723,-6.8572,-6.8648,-6.9351,-6.925,-6.8974,-6.8673,-6.8221,-6.7894,-6.7819,-6.7091,-6.694,-6.7744,-6.7066,-6.6614,-6.6614,-6.6086,-6.5886,-6.6112,-6.566,-6.5383,-6.5283,-6.5057,-6.468,-6.4128,-6.3827,-6.3576,-6.3324,-6.3324,-6.3149,-6.2847,-6.3174,-6.3324,-6.335,-6.3651,-6.4103,-6.463,-6.4856,-6.5685,-6.6764,-6.6915,-6.7518,-6.8132,0.0,-6.5431,-6.5838,-6.5925,-6.6941,-6.7339,-6.6041,-6.6301,-6.5753,0.0,-6.2956,-6.2877,-6.2631,-6.2672,-6.245,-6.1804,-5.954,-5.8027,-5.7901,-5.6846,-5.6721,-5.7851,-5.8378,-5.8905,-5.9483,-5.9985,-6.0261,-6.0311,-6.0889,-6.1466,-6.2019,-6.2571,-6.335,-6.4254,-6.3274,-6.3651,-6.4931,-6.3525,-6.4429,-6.684,-6.7392,-6.812,-6.915,-7.1535,-7.1937,-7.1309,-7.2364,-7.1736,-7.028,-6.9085,-6.6677,-6.3484,-5.9834,-5.8611,-5.812,-5.5578,-5.553,0.0,0.0,0.0,0.0,-5.7366,-5.6626,0.0,-5.8927,-5.8628,-5.8578,-6.1662,-6.2822,-6.3751,-6.5434,-6.5886,-6.6287,-6.7116,-6.7091,-6.7543,-6.9125,-6.8874,-6.8497,-6.8447,-6.7568,-6.7141,-6.7568,-6.6689,-6.6538,-6.7543,-6.6689,-6.6086,-6.6011,-6.5559,-6.5484,-6.5911,-6.4982,-6.468,-6.5107,-6.463,-6.4153,-6.3701,-6.3626,-6.335,-6.2923,-6.2847,-6.2822,-6.2822,-6.2822,-6.2822,-6.2822,-6.2822,-6.3174,-6.3726,-6.4203,-6.4781,-6.5509,-6.6589,-6.7367,-6.7856,-6.4996,-6.5083,-6.5344,-6.5838,-6.6564,-6.6747,-6.5669,-6.5318,-6.4772,-6.3788,-6.402,-6.4385,-6.4477,-6.4091,-6.3362,-6.2049,-6.0242,-5.8805,-5.7951,-5.6846,-5.6721,-5.7851,-5.8001,-5.8504,-5.9483,-5.9608,-5.9885,-6.0311,-6.0889,-6.1466,-6.2019,-6.2571,-6.2948,-6.3149,-6.2923,-6.2998,-6.3324,-6.3475,-6.4329,-6.566,-6.6212,-6.812,-7.0606,-7.0706,-7.1158,-7.1836,-7.2489,-7.2238,-7.1317,-6.9872,-6.7548,-6.4728,-6.1894,-5.9829,-5.8167,-5.6866,-5.6607,-5.6576,-5.5998,-5.6231,-5.6346,-5.5326,-5.602,0.0,-5.509,-5.5708,-5.7074,-5.8694,-5.9701,-6.0964,-6.3073,-6.4555,-6.5082,-6.3977,-6.5584,-6.7392,-6.8622,-6.8296,-6.7794,-6.7342,-6.7116,-6.684,-6.6488,-6.6237,-6.6212,-6.6413,-6.6237,-6.5911,-6.5484,-6.5358,-6.5132,-6.4806,-6.458,-6.4329,-6.4002,-6.3902,-6.3802,-6.3676,-6.3224,-6.3174,-6.35,-6.3048,-6.2822,-6.2822,-6.2822,-6.2822,-6.2822,-6.2822,-6.3174,-6.3701,-6.3802,-6.4705,-6.6036,-6.6714,-6.7354,-6.7797,-6.546,-6.5983,-6.6359,-6.6203,-6.6953,-6.6999,-6.5423,-6.5182,-6.4789,-6.3404,-6.3745,-6.4011,-6.3527,-6.3984,-6.3767,-6.215,-6.0713,-5.9458,-5.8378,-5.7248,-5.6997,-5.7851,-5.7901,-5.8529,-5.9885,-5.9633,-5.9759,-6.0311,-6.0613,-6.104,-6.1617,-6.2169,-6.2421,-6.2421,-6.2697,-6.2672,-6.2446,-6.3023,-6.3576,-6.4329,-6.7367,-6.9928,-7.2037,-7.3142,-7.3895,-7.4423,-7.4699,-7.4448,-7.3544,-7.0505,-6.8668,-6.6903,-6.286,-6.137,-6.0666,-5.8434,-5.8112,-5.8166,-5.6885,-5.6867,-5.7047,-5.6476,-5.6434,0.0,0.0,-5.499,-5.5583,-5.7321,-5.7598,-5.83,-6.0447,-6.1071,-6.1527,-6.2239,-6.335,-6.4655,-6.6312,-6.7041,-6.7166,-6.6614,-6.6312,-6.6011,-6.5735,-6.5459,-6.5409,-6.5685,-6.5961,-6.5886,-6.5333,-6.5032,-6.4756,-6.4479,-6.3927,-6.3676,-6.3701,-6.34,-6.3249,-6.3249,-6.2973,-6.2973,-6.3249,-6.2948,-6.2822,-6.2822,-6.2822,-6.2822,-6.2822,-6.2822,-6.2998,-6.3249,-6.3249,-6.3927,-6.5032,-6.6137,-6.6716,-6.7022,-6.5831,-6.6657,-6.7007,-6.62,-6.6985,-6.6989,-6.4809,-6.499,-6.4732,-6.2767,-6.3254,-6.3425,-6.2722,-6.355,-6.3827,-6.3023,-6.114,-5.9859,-5.9533,-5.7851,-5.7123,-5.77,-5.7851,-5.8554,-5.9985,-5.9684,-5.9709,-6.0161,-6.0261,-6.0613,-6.119,-6.1642,-6.1969,-6.2169,-6.2521,-6.2546,-6.2345,-6.2697,-6.3199,-6.4203,-6.8999,-7.1209,-7.1962,-7.5176,-7.6406,-7.6456,-7.6758,-7.6582,-7.5578,-7.146,-6.9979,-6.8968,-6.3964,-6.324,-6.3603,-6.0435,-6.0154,-6.0398,-5.8305,-5.8128,-5.8499,-5.8185,-5.7433,-5.6605,0.0,0.0,0.0,-5.6401,-5.6079,-5.6104,-5.7918,-5.7696,-5.7948,-6.0183,-6.0738,-6.1466,-6.3274,-6.4781,-6.5685,-6.5634,-6.5258,-6.5032,-6.5132,-6.463,-6.4555,-6.5082,-6.5459,-6.5459,-6.5007,-6.4555,-6.4279,-6.4153,-6.3299,-6.3048,-6.3525,-6.3048,-6.2822,-6.2822,-6.2822,-6.2822,-6.2822,-6.2822,-6.2822,-6.2822,-6.2822,-6.2822,-6.2822,-6.2822,-6.2822,-6.2822,-6.2822,-6.3174,-6.3877,-6.5424,-6.603,-6.6215,-6.555,-6.5393,-6.4933,-6.4921,-6.5186,-6.4856,-6.3185,-6.3481,-6.3597,-6.2881,-6.3281,-6.4002,-6.4831,-6.3776,-6.3927,-6.6212,-6.1768,-5.9859,-6.222,-5.8554,-5.6545,-5.7097,-5.7625,-5.8202,-5.888,-5.9307,-5.9533,-5.9583,-6.0085,-6.0613,-6.119,-6.124,-6.1793,-6.2722,-6.2295,-6.2621,-6.3475,-6.3023,-6.453,-6.7417,-6.9501,-6.925,-6.8145,-7.2891,-7.4699,-7.49,-7.6356,-7.6833,-7.6331,-7.3368,-7.1412,-6.9801,-6.6774,-6.558,-6.4914,-6.3239,-6.3089,-6.3118,-6.1606,-6.1628,-6.1363,-5.8521,-5.9157,-5.9302,-5.5033,0.0,-5.5567,-5.4912,0.0,-5.5135,-5.5855,0.0,0.0,-5.5591,-5.7826,-5.9784,-6.0035,-6.0638,-6.1793,-6.3726,-6.3902,-6.4053,-6.4505,-6.4078,-6.4002,-6.453,-6.4203,-6.3952,-6.3877,-6.3802,-6.355,-6.3023,-6.2898,-6.2873,-6.2923,-6.2873,-6.2822,-6.2822,-6.2822,-6.2822,-6.2822,-6.2822,-6.2822,-6.2822,-6.2822,-6.2822,-6.2822,-6.2822,-6.2822,-6.2822,-6.2822,-6.3174,-6.3794,-6.4997,-6.5508,-6.5636,-6.3376,-6.3667,-6.3645,-6.3145,-6.3386,-6.3396,-6.2428,-6.3316,-6.4017,-6.3784,-6.4279,-6.5032,-6.6162,-6.5358,-6.5208,-6.6363,-6.3751,-6.2119,-6.2345,-5.9709,-5.8353,-5.8905,-5.8579,-5.893,-6.0111,-5.9709,-5.9659,-5.996,-5.9885,-6.0136,-6.0688,-6.0688,-6.1115,-6.1868,-6.1969,-6.2446,-6.3199,-6.3299,-6.4128,-6.5584,-6.7568,-6.7794,-6.7618,-7.3569,-7.603,-7.6406,-7.7109,-7.7561,-7.731,-7.3895,-7.2192,-7.1006,-6.8898,-6.7193,-6.5885,-6.5347,-6.461,-6.3592,-6.1786,-6.1968,-6.1982,-5.9749,-5.9626,-5.921,-5.6178,-5.5315,-5.5002,-5.4932,0.0,0.0,0.0,0.0,0.0,0.0,-5.6947,-5.8177,-5.8529,-5.9031,-6.0111,-6.2019,-6.1667,-6.1592,-6.2471,-6.3249,-6.3651,-6.3525,-6.3626,-6.355,-6.3199,-6.35,-6.3425,-6.2847,-6.2822,-6.2822,-6.2822,-6.2822,-6.2822,-6.2822,-6.2822,-6.2822,-6.2822,-6.2822,-6.2822,-6.2822,-6.2822,-6.2822,-6.2822,-6.2822,-6.2822,-6.2822,-6.2822,-6.3174,-6.3902,-6.5253,-6.5657,-6.5544,-6.0408,-6.1372,-6.2236,-6.1516,-6.1623,-6.1891,-6.1953,-6.3023,-6.3902,-6.4228,-6.4605,-6.5333,-6.6589,-6.6513,-6.6764,-6.7844,-6.6237,-6.4781,-6.3877,-6.1391,-5.9935,-5.9885,-5.9282,-5.9433,-6.0487,-5.9985,-5.9834,-6.0085,-5.9684,-5.9935,-6.0763,-6.0311,-6.0738,-6.1893,-6.2295,-6.2948,-6.3776,-6.468,-6.5383,-6.6112,-6.802,-6.925,-7.0405,-7.4774,-7.7159,-7.8139,-7.7988,-7.8189,-7.8013,-7.4598,-7.3118,-7.2489,-7.0744,-6.9085,-6.7629,-6.7244,-6.6309,-6.4802,-6.2586,-6.2649,-6.2846,-6.0749,-5.9843,-5.9001,-5.7055,-5.5844,-5.5166,-5.5408,-5.4468,0.0,0.0,0.0,-5.4173,-5.5751,0.0,-5.7022,-5.7575,-5.775,-5.8353,-5.9859,-5.9859,-6.0161,-6.1291,-6.2245,-6.2672,-6.2395,-6.2471,-6.2496,-6.2395,-6.2923,-6.3099,-6.2847,-6.2822,-6.2822,-6.2822,-6.2822,-6.2822,-6.2822,-6.2822,-6.2822,-6.2822,-6.2822,-6.2822,-6.2822,-6.2822,-6.2822,-6.2822,-6.2822,-6.2822,-6.2822,-6.2822,-6.3174,-6.3852,-6.4988,-6.5232,-6.5123,-5.6555,-5.8444,-6.0289,-6.0242,-5.9892,-6.0164,-6.1743,-6.2044,-6.2471,-6.3576,-6.3726,-6.4354,-6.5961,-6.6614,-6.8447,-7.2188,-6.9074,-6.7317,-6.8346,-6.3827,-6.0437,-5.883,-5.9232,-5.9257,-5.8805,-5.9784,-6.0035,-5.9533,-5.9508,-6.0337,-6.1918,-6.0286,-6.0989,-6.3601,-6.3626,-6.453,-6.6112,-6.7769,-6.9702,-7.1736,-7.2916,-7.4975,-7.721,-7.5829,-7.6984,-7.9269,-7.8691,-7.8515,-7.8189,-7.5929,-7.4759,-7.4166,-7.2428,-7.1509,-7.0744,-6.9214,-6.8658,-6.7933,-6.5413,-6.5121,-6.4716,-6.1111,-6.0147,-5.945,-5.6828,-5.6588,-5.678,-5.6275,-5.6855,-5.7315,-5.6853,-5.6491,-5.6104,0.0,-5.5926,0.0,0.0,-5.6168,-5.5917,-5.7022,-5.9006,-6.0738,-6.1868,-6.104,-6.0663,-6.119,-6.0236,-6.0111,-6.119,-6.1768,-6.2295,-6.2822,-6.2822,-6.2822,-6.2822,-6.2822,-6.2822,-6.2822,-6.2822,-6.2822,-6.2822,-6.2822,-6.2822,-6.2822,-6.2822,-6.2822,-6.2822,-6.2822,-6.2822,-6.2822,-6.2822,-6.3174,-6.3668,-6.3776,-6.3722,-6.3896,-5.7571,-5.8351,-5.8979,-5.8215,-5.8302,-5.9006,-6.0638,-6.2169,-6.4053,-6.6614,-6.694,-6.8422,-7.2263,-7.2213,-7.2715,-7.4749,-7.274,-7.1033,-7.0305,-6.6965,-6.4781,-6.4203,-6.2596,-6.1793,-6.1994,-6.1266,-6.0613,-6.0035,-5.9684,-6.0161,-6.1441,-6.0111,-6.0588,-6.2596,-6.2948,-6.4028,-6.571,-6.7744,-6.9275,-7.048,-7.269,-7.5452,-7.8139,-7.721,-7.7687,-7.8741,-7.8189,-7.8465,-7.8817,-7.6959,-7.5758,-7.4962,-7.4807,-7.3121,-7.1327,-7.1398,-7.066,-6.9584,-6.8395,-6.8457,-6.7817,-6.3822,-6.2775,-6.1715,-5.7686,-5.743,-5.7814,-5.6925,-5.7245,-5.7621,-5.7406,-5.7246,0.0,0.0,0.0,-5.7123,0.0,-5.5541,-5.5541,-5.7399,-5.8579,-5.9408,-5.9809,-6.0136,-6.0111,-5.9558,-5.9156,-5.9282,-6.0035,-6.0939,-6.1718,-6.227,-6.2647,-6.2822,-6.2822,-6.2822,-6.2822,-6.2822,-6.2822,-6.2822,-6.2822,-6.2822,-6.2822,-6.2822,-6.2822,-6.2822,-6.2822,-6.2822,-6.2822,-6.2822,-6.2822,-6.2948,-6.3274,-6.4362,-6.4753,-6.4853,-5.8379,-5.7976,-5.7801,-5.765,-5.8102,-5.888,-6.0136,-6.2898,-6.5685,-6.802,-6.9526,-7.1761,-7.5377,-7.5653,-7.5954,-7.6858,-7.5954,-7.4222,-7.156,-6.9702,-6.812,-6.6739,-6.5157,-6.4203,-6.3977,-6.3099,-6.2069,-6.0914,-6.0763,-6.1266,-6.232,-6.0814,-6.0989,-6.2621,-6.3174,-6.4228,-6.5785,-6.8823,-7.0405,-7.1133,-7.3519,-7.5979,-7.8164,-7.7411,-7.7712,-7.844,-7.7888,-7.8164,-7.8591,-7.731,-7.6433,-7.5908,-7.6006,-7.4312,-7.2168,-7.2599,-7.1691,-7.0303,-6.9554,-6.9455,-6.8752,-6.5713,-6.4695,-6.3373,-5.9491,-5.946,-5.9883,-5.8603,-5.8786,-5.9206,-5.9244,-5.8631,-5.8089,0.0,0.0,0.0,0.0,-5.5767,-5.6043,-5.77,-5.8202,-5.8654,-5.9232,-5.9382,-5.9156,-5.8453,-5.8027,-5.8202,-5.9156,-6.0261,-6.1215,-6.1994,-6.2546,-6.2822,-6.2822,-6.2822,-6.2822,-6.2822,-6.2822,-6.2822,-6.2822,-6.2822,-6.2822,-6.2822,-6.2822,-6.2741,-6.2577,-6.2577,-6.2577,-6.2577,-6.2577,-6.2659,-6.2973,-6.4254,-6.4957,-6.5333,-5.8654,-5.7424,-5.6872,-5.8453,-5.9106,-5.9633,-6.0261,-6.4103,-6.7191,-6.7945,-7.141,-7.4247,-7.5477,-7.6984,-7.8114,-7.8641,-7.8641,-7.6783,-7.2514,-7.2163,-7.0455,-6.6714,-6.699,-6.6463,-6.4831,-6.5183,-6.4329,-6.2195,-6.2621,-6.3375,-6.4379,-6.222,-6.2069,-6.3626,-6.4228,-6.5107,-6.6388,-7.0857,-7.3117,-7.3845,-7.5427,-7.6707,-7.7586,-7.6482,-7.7059,-7.8365,-7.7837,-7.7687,-7.7611,-7.7059,-7.6883,-7.6783,-7.623,-7.5032,-7.3569,-7.2977,-7.1733,-7.0328,-6.928,-6.8561,-6.7913,-6.6963,-6.5867,-6.4535,-6.2422,-6.2707,-6.3001,-6.1413,-6.1522,-6.203,-6.2247,-6.0578,-5.9162,0.0,0.0,0.0,-5.6296,-5.6671,-5.7223,-5.7851,-5.7901,-5.8478,-6.0035,-5.878,-5.7851,-5.7826,-5.6796,-5.6897,-5.8554,-5.9684,-6.0788,-6.1918,-6.2521,-6.2822,-6.2822,-6.2822,-6.2822,-6.2822,-6.2822,-6.2822,-6.2822,-6.2822,-6.2822,-6.2822,-6.2822,-6.2577,-6.2249,-6.2249,-6.2249,-6.2249,-6.2249,-6.2545,-6.2973,-6.3525,-6.4404,-6.5333,-5.8252,-5.8403,-5.8654,-5.8704,-5.8504,-5.8905,-6.0688,-6.4028,-6.7568,-7.1008,-7.4498,-7.7687,-8.0449,-8.075,-8.08,-8.0951,-8.0223,-7.8942,-7.6959,-7.5678,-7.4372,-7.2966,-7.146,-7.0255,-6.9401,-6.7518,-6.6061,-6.5057,-6.355,-6.3199,-6.3852,-6.2446,-6.2019,-6.2521,-6.4279,-6.5459,-6.6363,-7.0405,-7.3418,-7.5452,-7.5879,-7.6707,-7.7586,-7.6482,-7.6582,-7.7285,-7.7134,-7.736,-7.7611,-7.7059,-7.6883,-7.6783,-7.623,-7.5755,-7.5281,-7.4702,-7.4013,-7.3228,-7.2577,-7.1676,-7.0632,-6.92,-6.8093,-6.692,-6.5557,-6.5444,-6.5379,-6.4148,-6.3675,-6.3073,-6.1619,-6.048,-5.9479,0.0,0.0,0.0,0.0,-5.6124,-5.6947,-5.8303,-5.775,-5.76,-5.8428,-5.775,-5.7097,-5.6671,-5.5993,-5.6344,-5.8001,-5.9131,-6.0236,-6.1366,-6.232,-6.2822,-6.2822,-6.2822,-6.2822,-6.2822,-6.2822,-6.2822,-6.2822,-6.2822,-6.2822,-6.2822,-6.2822,-6.2741,-6.2659,-6.2659,-6.2659,-6.2659,-6.2659,-6.3242,-6.4053,-6.4228,-6.4957,-6.5886,-5.8704,-5.9483,-6.0136,-5.9859,-6.0136,-6.109,-6.3048,-6.5333,-6.8271,-7.2213,-7.5628,-7.8415,-8.0298,-8.1503,-8.2081,-8.183,-8.1051,-7.9771,-7.7913,-7.7385,-7.6557,-7.5301,-7.4046,-7.2991,-7.2188,-6.9702,-6.7894,-6.684,-6.4881,-6.4078,-6.4354,-6.2747,-6.1994,-6.2094,-6.3827,-6.4881,-6.5685,-7.0054,-7.3519,-7.603,-7.5804,-7.6205,0.0,-7.6281,-7.6256,-7.6507,-7.6507,-7.6707,-7.6933,-7.6632,-7.6507,-7.6456,-7.6155,-7.5956,-7.5658,-7.5304,-7.4638,-7.4021,-7.3648,-7.264,-7.1516,-7.0897,-6.9688,-6.8555,-6.7702,-6.7217,-6.6633,-6.5982,-6.4707,-6.3522,-6.2678,-6.1,-5.9283,0.0,0.0,0.0,0.0,-5.6701,-5.7425,-5.8579,-5.8353,-5.8052,-5.7901,-5.7374,-5.6796,-5.6244,-5.6143,-5.6646,-5.7826,-5.9156,-6.0261,-6.1165,-6.2722,-6.3299,-6.2822,-6.3299,-6.3299,-6.2822,-6.2822,-6.2822,-6.2822,-6.2822,-6.2822,-6.2822,-6.2822,-6.2659,-6.2495,-6.2495,-6.2495,-6.2577,-6.2741,-6.335,-6.4153,-6.4379,-6.5157,-6.6086,-5.9408,-6.0362,-6.1165,-6.109,-6.2772,-6.4756,-6.6589,-6.7894,-6.9777,-7.2866,-7.6306,-7.844,-7.8365,-8.1001,-8.2508,-8.1855,-8.1328,-7.9972,-7.7486,-7.8139,-7.7787,-7.5854,-7.5628,-7.5075,-7.4046,-7.161,-6.9602,-6.802,-6.6112,-6.5032,-6.4705,-6.2797,-6.1843,-6.1843,-6.3124,-6.4153,-6.5208,-6.9752,-7.3117,-7.5377,-7.5201,-7.5452,-7.5954,-7.603,-7.6055,-7.6055,-7.6055,-7.6055,-7.6055,-7.6055,-7.6055,-7.6055,-7.6055,-7.5758,-7.5286,-7.5281,-7.454,-7.3725,-7.3674,-7.2593,-7.1541,-7.1956,-7.1005,-6.9865,-6.9571,-6.8558,-6.762,-6.7531,-6.542,-6.3699,-6.4235,-6.1544,-5.8642,-5.7109,-5.6794,-5.6835,-5.7143,-5.7717,0.0,0.0,-5.9155,0.0,-5.8102,-5.7424,-5.6796,-5.6244,-5.6595,-5.7148,-5.7851,-5.9307,-6.0437,-6.1165,-6.3099,-6.3776,-6.3048,-6.3852,-6.3852,-6.3048,-6.2898,-6.2822,-6.2822,-6.2741,-6.2741,-6.2741,-6.2659,-6.2495,-6.2167,-6.2167,-6.2249,-6.2331,-6.2659,-6.3174,-6.3726,-6.4103,-6.5007,-6.5936,-5.9031,-6.0111,-6.104,-6.0563,-6.3751,-6.7417,-7.043,-7.2238,-7.3946,-7.5904,-7.9846,-8.2307,-8.1855,-8.2734,-8.2934,-8.1905,-8.1328,-8.0624,-7.9695,-7.9369,-7.9068,-7.8666,-7.7762,-7.6959,-7.6306,-7.2791,-7.0355,-6.915,-6.6112,-6.3676,-6.1893,-6.1517,-6.1065,-6.0713,-6.2772,-6.5007,-6.7367,-6.9602,-7.1083,-7.2113,-7.387,-7.49,-7.5427,-7.5879,-7.6055,-7.6055,-7.6055,-7.6055,-7.6055,-7.6055,-7.6055,-7.6055,-7.6055,-7.5758,-7.536,-7.5855,-7.4813,-7.369,-7.4268,-7.3156,-7.2066,-7.2593,-7.1832,-7.1363,-7.2494,-7.0957,-6.9407,-6.979,-6.7129,-6.4301,-6.3191,-6.0291,-5.7814,-5.71,-5.72,-5.7272,-5.6911,-5.7555,0.0,0.0,-5.9201,-5.9257,-5.8629,-5.765,-5.6796,-5.6244,-5.5892,-5.6319,-5.7826,-5.8604,-5.9659,-6.114,-6.1994,-6.2998,-6.4178,-6.3475,-6.3475,-6.4178,-6.3249,-6.2822,-6.2822,-6.2413,-6.2331,-6.2249,-6.1895,-6.1919,-6.2167,-6.2167,-6.2413,-6.2659,-6.2741,-6.3174,-6.3651,-6.3249,-6.4103,-6.5484,-6.0035,-6.0864,-6.1969,-6.3124,-6.6287,-6.9702,-7.274,-7.5603,-7.7285,-7.6933,-7.8992,-8.0273,-7.9721,-8.1428,-8.2307,-8.1478,-8.0926,-8.0499,-8.0223,-7.9695,-7.9394,-7.9394,-7.8314,-7.7586,-7.731,-7.3494,-7.0983,-6.9878,-6.6237,-6.335,-6.1165,-6.0588,-5.9859,-5.9156,-6.109,-6.4128,-6.7819,-6.8346,-6.9702,-7.1636,-7.2991,-7.4046,-7.4875,-7.5427,-7.5452,-7.5276,-7.5854,-7.5678,-7.5301,-7.5854,-7.6055,-7.6055,-7.6055,-7.5956,-7.5658,-7.5658,-7.5161,-7.4488,-7.454,-7.3572,-7.2532,-7.2494,-7.1635,-7.1191,-7.212,-7.1026,-6.9889,-7.0349,-6.7955,-6.5005,-6.2624,-6.046,-5.8872,-5.8343,-5.8169,-5.8064,-5.8038,-5.8411,-5.8783,0.0,0.0,0.0,-5.8403,-5.7801,-5.7248,-5.6671,-5.6671,-5.7047,-5.7851,-5.845,-5.9376,-6.0713,-6.1715,-6.2687,-6.3601,-6.3402,-6.3402,-6.3601,-6.3073,-6.2822,-6.2822,-6.2413,-6.2167,-6.2167,-6.2002,-6.2002,-6.2249,-6.2413,-6.2659,-6.2822,-6.2822,-6.3174,-6.3701,-6.3676,-6.4354,-6.5283,-6.2019,-6.2571,-6.3701,-6.6363,-6.9225,-7.1887,-7.4071,-7.7712,-7.957,-7.7812,-7.8264,-7.849,-7.7837,-8.0173,-8.1553,-8.0926,-8.0449,-8.0173,-8.0047,-7.952,-7.9193,-7.9193,-7.8114,-7.7461,-7.736,-7.377,-7.1133,-6.9551,-6.6137,-6.3023,-6.0286,-5.9633,-5.888,-5.8152,-5.991,-6.2998,-6.694,-6.6965,-6.8673,-7.146,-7.2364,-7.3343,-7.4297,-7.4849,-7.4875,-7.4699,-7.5578,-7.5402,-7.49,-7.5753,-7.5979,-7.5904,-7.603,-7.6055,-7.5857,-7.5559,-7.5261,-7.4862,-7.4762,-7.3741,-7.2802,-7.2367,-7.1534,-7.0921,-7.133,-7.0633,-6.9912,-7.018,-6.7982,-6.5173,-6.2456,-6.1085,-6.0171,-5.9642,-5.9305,-5.9147,-5.9355,-5.9689,-5.9846,0.0,0.0,0.0,-5.7774,-5.7926,-5.77,-5.6924,-5.7374,-5.7725,-5.7725,-5.8449,-5.9273,-6.0136,-6.134,-6.2357,-6.3023,-6.3169,-6.3219,-6.3009,-6.2702,-6.2577,-6.2659,-6.2167,-6.1919,-6.2002,-6.1919,-6.2002,-6.2249,-6.2659,-6.2822,-6.2822,-6.2822,-6.3174,-6.3751,-6.4153,-6.4731,-6.5233,-6.5157,-6.5685,-6.6438,-6.8748,-7.1836,-7.4121,-7.4372,-7.7712,-8.0147,-7.9921,-8.1252,-8.1805,-8.075,-8.1328,-8.1403,-8.0373,-8.0248,-7.9997,-7.9495,-7.8917,-7.8591,-7.8591,-7.7536,-7.6733,-7.623,-7.3393,-7.038,-6.7292,-6.5383,-6.2044,-5.7449,-5.8328,-5.8704,-5.873,-6.0889,-6.2672,-6.4203,-6.6162,-6.802,-6.9853,-7.1912,-7.3117,-7.372,-7.4272,-7.4774,-7.5176,-7.5276,-7.5578,-7.5929,-7.603,-7.5728,-7.5402,-7.5904,-7.5758,-7.5485,-7.5857,-7.4962,-7.3934,-7.4962,-7.401,-7.2831,-7.2826,-7.2356,-7.1931,-7.1979,-7.1162,-7.0272,-6.9888,-6.6833,-6.3971,-6.2744,-6.1638,-6.0724,-6.0195,-6.046,-6.0665,-6.0183,-6.1268,-6.14,-5.9488,0.0,0.0,-5.7035,-5.7872,-5.8051,-5.6601,-5.6874,-5.7123,-5.7123,-5.8102,-5.8954,-5.9558,-6.0263,-6.1608,-6.3601,-6.2374,-6.2371,-6.3717,-6.2331,-6.1862,-6.2249,-6.134,-6.1174,-6.1531,-6.1091,-6.1423,-6.2249,-6.2659,-6.2822,-6.2822,-6.2822,-6.3174,-6.3701,-6.3751,-6.4404,-6.5283,-6.797,-6.8371,-6.93,-7.1535,-7.3318,-7.4975,-7.6632,-7.8766,-8.0097,-7.9746,-8.0876,-8.1403,-8.0624,-8.0725,-8.0549,-7.9796,-7.9721,-7.9469,-7.8917,-7.8641,-7.8365,-7.8038,-7.6984,-7.6281,-7.6055,-7.3318,-7.0782,-6.8447,-6.6112,-6.3274,-6.001,-5.9106,-5.888,-5.9232,-6.0111,-6.2044,-6.4731,-6.5936,-6.7794,-7.0079,-7.161,-7.2565,-7.3142,-7.3694,-7.3845,-7.387,-7.4875,-7.495,-7.4724,-7.5728,-7.5904,-7.5753,-7.5979,-7.5956,-7.5758,-7.5658,-7.5161,-7.4662,-7.4762,-7.4035,-7.3207,-7.2999,-7.2477,-7.2051,-7.2051,-7.1234,-7.0416,-7.02,-6.7458,-6.4765,-6.3706,-6.2648,-6.1975,-6.2071,-6.1734,-6.1494,-6.1614,-6.1593,-6.1063,-5.981,0.0,0.0,-5.6832,-5.7318,-5.7573,-5.6949,-5.6699,-5.6846,-5.7524,-5.7523,-5.8218,-5.996,-5.989,-6.0848,-6.3149,-6.2043,-6.1976,-6.2813,-6.1893,-6.1786,-6.2248,-6.1555,-6.1579,-6.2022,-6.1806,-6.2223,-6.3127,-6.3593,-6.3802,-6.3802,-6.3802,-6.4153,-6.4655,-6.4655,-6.5132,-6.5785,-7.0832,-7.1083,-7.1937,-7.4171,-7.5025,-7.603,-7.7988,-7.9243,-7.9821,-7.9444,-8.0072,-8.0398,-8.0022,-7.9972,-7.9821,-7.9419,-7.9394,-7.9218,-7.8817,-7.8616,-7.8264,-7.7712,-7.6783,-7.608,-7.5578,-7.3494,-7.1359,-6.92,-6.7066,-6.4555,-6.1718,-5.9985,-5.9558,-6.0236,-6.0588,-6.2521,-6.5584,-6.6312,-6.802,-7.0355,-7.146,-7.2138,-7.2539,-7.3117,-7.3192,-7.3167,-7.4523,-7.4598,-7.4272,-7.5603,-7.6055,-7.6055,-7.6055,-7.6055,-7.5956,-7.5485,-7.5286,-7.5161,-7.4461,-7.3934,-7.3409,-7.2799,-7.2474,-7.2244,-7.21,-7.1474,-7.0825,-7.0344,-6.7963,-6.5654,-6.4765,-6.3875,-6.3249,-6.3129,-6.2624,-6.2287,-6.2336,-6.1831,-6.1087,-5.9961,-5.9616,-5.8701,-5.6862,-5.706,-5.7193,-5.6943,-5.6849,-5.715,-5.7875,-5.7517,-5.8034,-5.9644,-5.9607,-6.036,-6.2164,-6.1432,-6.134,-6.1754,-6.1512,-6.1614,-6.2065,-6.1874,-6.2116,-6.2732,-6.2623,-6.3043,-6.3952,-6.4304,-6.4454,-6.4454,-6.4454,-6.4806,-6.5283,-6.5283,-6.5634,-6.6112,-7.382,-7.392,-7.4247,-7.6456,-7.7285,-7.7662,-7.7712,-7.8666,-7.9394,-7.9394,-7.9394,-7.9394,-7.9394,-7.9394,-7.9394,-7.9394,-7.9394,-7.9394,-7.9369,-7.8842,-7.8264,-7.7712,-7.7159,-7.6105,-7.4473,-7.387,-7.1962,-6.8622,-6.8045,-6.5509,-6.119,-6.0588,-6.0889,-6.2019,-6.3149,-6.4555,-6.6187,-6.7292,-6.8748,-7.0355,-7.146,-7.1912,-7.1987,-7.2539,-7.3092,-7.3669,-7.4222,-7.4774,-7.5301,-7.5854,-7.6055,-7.6055,-7.6055,-7.6055,-7.5956,-7.5485,-7.5286,-7.5061,-7.3934,-7.3632,-7.3409,-7.2397,-7.2436,-7.2677,-7.2172,-7.2051,-7.1595,-7.0031,-6.7987,-6.6328,-6.5775,-6.5246,-6.438,-6.2841,-6.3009,-6.2961,-6.1951,-6.2239,-6.1782,-5.9642,-5.9791,-5.9219,-5.7165,-5.7223,-5.6997,-5.6099,-5.7311,-5.8172,-5.8117,-5.8613,-5.8677,-5.8286,-5.935,-6.0203,-6.0719,-6.0407,-6.0423,-6.0841,-6.0954,-6.122,-6.1643,-6.2178,-6.2934,-6.3782,-6.3249,-6.3588,-6.4454,-6.4454,-6.4454,-6.4454,-6.4454,-6.4806,-6.5283,-6.5283,-6.5634,-6.6112,-7.5929,-7.6557,-7.7059,-7.7385,-7.8214,-7.8842,-7.8842,-7.9168,-7.9394,-7.9394,-7.9394,-7.9394,-7.9394,-7.9394,-7.9394,-7.9394,-7.9394,-7.9218,-7.8817,-7.8264,-7.7712,-7.7159,-7.6256,-7.5327,-7.4423,-7.3494,-7.2113,-7.0305,-6.8999,-6.6664,-6.3425,-6.4002,-6.4053,-6.3726,-6.4856,-6.6061,-6.7342,-6.8447,-6.9652,-7.0882,-7.161,-7.2138,-7.2489,-7.2665,-7.2841,-7.3142,-7.4071,-7.4523,-7.4824,-7.5728,-7.6055,-7.6055,-7.5658,-7.5758,-7.5956,-7.5485,-7.5286,-7.5161,-7.4461,-7.3934,-7.3482,-7.3236,-7.3005,-7.2773,-7.2605,-7.2027,-7.1065,-6.9478,-6.8324,-6.7314,-6.64,-6.551,-6.4861,-6.4741,-6.3947,-6.3346,-6.337,-6.2624,-6.1398,-5.9594,-5.9881,-5.9326,-5.7213,-5.7667,-5.8088,-5.8153,-5.7752,-5.7388,-5.7087,-5.806,-5.876,-5.9367,-5.974,-6.0538,-6.1754,-6.0993,-6.1035,-6.182,-6.1232,-6.1606,-6.2738,-6.2908,-6.3498,-6.4353,-6.4183,-6.4438,-6.5057,-6.5434,-6.5584,-6.5584,-6.5584,-6.5685,-6.586,-6.586,-6.5961,-6.6162,-7.7461,-7.8063,-7.834,-7.7787,-7.8465,-7.9068,-7.9068,-7.9243,-7.9319,-7.9093,-7.9243,-7.9294,-7.9093,-7.9068,-7.9143,-7.9369,-7.9193,-7.8917,-7.854,-7.8013,-7.7461,-7.6908,-7.603,-7.5201,-7.4423,-7.3519,-7.2414,-7.1083,-6.9225,-6.7417,-6.5735,-6.6212,-6.6287,-6.6061,-6.6739,-6.7568,-6.8472,-6.915,-6.9853,-7.0531,-7.1284,-7.1811,-7.2163,-7.2565,-7.274,-7.2841,-7.377,-7.4096,-7.4247,-7.5126,-7.5578,-7.5655,-7.5161,-7.5409,-7.5658,-7.5161,-7.4962,-7.4862,-7.4361,-7.3833,-7.3531,-7.3328,-7.3024,-7.2749,-7.2581,-7.2027,-7.1234,-7.0031,-6.9214,-6.8444,-6.7554,-6.652,-6.5727,-6.5438,-6.4404,-6.3538,-6.3298,-6.2239,-6.0965,-5.9546,-5.969,-5.9353,-5.8031,-5.8443,-5.871,-5.8618,-5.8466,-5.7879,-5.6838,-5.7935,-5.8935,-5.9691,-5.998,-6.0598,-6.1718,-6.1133,-6.134,-6.2154,-6.1727,-6.2369,-6.3801,-6.3627,-6.4148,-6.5182,-6.501,-6.5182,-6.5634,-6.5961,-6.6112,-6.6112,-6.6112,-6.6112,-6.6112,-6.6112,-6.6112,-6.6187,-7.834,-7.8465,-7.8314,-7.7837,-7.8214,-7.8591,-7.8591,-7.9018,-7.9143,-7.8591,-7.8967,-7.9068,-7.8566,-7.849,-7.8691,-7.9269,-7.8792,-7.849,-7.8515,-7.7963,-7.7411,-7.6908,-7.6306,-7.5502,-7.4448,-7.387,-7.2765,-7.1083,-6.8999,-6.7945,-6.7894,-6.7392,-6.7693,-6.8673,-6.8673,-6.8974,-6.9361,-6.9361,-6.9451,-6.9602,-7.0606,-7.1058,-7.1209,-7.2238,-7.264,-7.274,-7.3318,-7.3569,-7.3669,-7.4222,-7.4799,-7.5128,-7.4514,-7.4814,-7.5161,-7.4561,-7.4461,-7.4336,-7.3733,-7.3531,-7.343,-7.3024,-7.2821,-7.2677,-7.2172,-7.2051,-7.1907,-7.1378,-7.0488,-6.9622,-6.9069,-6.8107,-6.6881,-6.5294,-6.4524,-6.3586,-6.2071,-6.1326,-6.058,-5.9522,-5.945,-5.9474,-5.9402,-5.9426,-5.9041,-5.8055,-5.9364,-5.9316,-5.7333,-5.8368,-5.9155,-5.9353,-5.9907,-6.0412,-6.0978,-6.1026,-6.1253,-6.1941,-6.2471,-6.339,-6.4702,-6.429,-6.4814,-6.6112,-6.5594,-6.5681,-6.6112,-6.6112,-6.6112,-6.6112,-6.6112,-6.6112,-6.6112,-6.6112,-6.6112,-6.6187,-7.7712,-7.7888,-7.7988,-7.8264,-7.8817,-7.9193,-7.9193,-7.8917,-7.8666,-7.854,-7.8264,-7.8214,-7.849,-7.8139,-7.8114,-7.8666,-7.8214,-7.8063,-7.849,-7.7611,-7.7009,-7.6883,-7.5954,-7.5126,-7.4423,-7.387,-7.2765,-7.1083,-7.0154,-6.9476,-6.9049,-6.8924,-6.8999,-6.925,-6.925,-6.9325,-6.9361,-6.9361,-6.9702,-7.0079,-7.0355,-7.0706,-7.1108,-7.1359,-7.1736,-7.2163,-7.274,-7.3217,-7.3669,-7.4222,-7.4799,-7.5128,-7.4514,-7.4516,-7.4561,-7.3934,-7.3833,-7.3733,-7.3632,-7.3328,-7.3024,-7.3328,-7.3126,-7.2677,-7.2172,-7.2051,-7.1907,-7.1378,-7.1065,-7.0609,-6.9671,-6.8973,-6.7987,-6.6376,-6.5005,-6.373,-6.2552,-6.1566,-6.058,-5.9522,-6.0099,-6.0267,-5.9474,-5.9738,-6.005,-6.0116,-5.9704,-5.9583,-5.9898,-5.982,-5.9689,-5.9378,-5.9907,-6.0387,-6.0844,-6.0918,-6.1617,-6.2905,-6.3414,-6.4255,-6.5248,-6.5075,-6.5421,-6.6112,-6.594,-6.6026,-6.6112,-6.6112,-6.6112,-6.6112,-6.6112,-6.6112,-6.6112,-6.6112,-6.6112,-6.6187,-7.8289,-7.8465,-7.8566,-7.8867,-7.8967,-7.8992,-7.8992,-7.8515,-7.8063,-7.7812,-7.7737,-7.7712,-7.7762,-7.7511,-7.7536,-7.8088,-7.7637,-7.7461,-7.7762,-7.6733,-7.623,-7.6482,-7.5201,-7.4473,-7.4423,-7.3368,-7.2263,-7.1083,-7.0531,-7.0104,-6.9828,-6.9828,-6.9677,-6.9361,-6.9361,-6.9577,-6.9803,-6.9551,-6.9752,-7.0255,-7.0255,-7.0581,-7.1108,-7.1359,-7.1811,-7.2313,-7.2615,-7.2941,-7.3242,-7.3544,-7.4197,-7.4752,-7.4166,-7.4417,-7.4762,-7.4135,-7.3632,-7.3377,-7.3822,-7.3421,-7.2923,-7.3126,-7.3024,-7.2725,-7.246,-7.2412,-7.2316,-7.2027,-7.1787,-7.1378,-7.056,-6.9598,-6.83,-6.6424,-6.5005,-6.3586,-6.2071,-6.1326,-6.0652,-5.9834,-6.0243,-6.0388,-5.981,-6.0003,-6.0159,-6.0168,-5.9829,-5.9781,-6.012,-6.0096,-5.9988,-5.9738,-6.0027,-6.058,-6.1232,-6.1748,-6.2423,-6.3264,-6.3554,-6.4026,-6.4726,-6.4726,-6.5161,-6.5767,-6.5767,-6.594,-6.6112,-6.6112,-6.594,-6.5767,-6.6026,-6.594,-6.5767,-6.6026,-6.6112,-6.6187,-7.8892,-7.9018,-7.9043,-7.9118,-7.8716,-7.839,-7.839,-7.7862,-7.731,-7.6933,-7.7134,-7.721,-7.6908,-7.6808,-7.6984,-7.7536,-7.7084,-7.6783,-7.6858,-7.5854,-7.5452,-7.5904,-7.4423,-7.382,-7.4272,-7.264,-7.151,-7.0958,-7.0405,-7.0129,-7.0129,-7.0129,-6.9878,-6.9361,-6.9361,-6.9702,-7.0104,-6.9652,-6.9727,-7.0129,-7.0129,-7.043,-7.0882,-7.1359,-7.1887,-7.2364,-7.2439,-7.2539,-7.2615,-7.269,-7.3418,-7.42,-7.3888,-7.4415,-7.5062,-7.4737,-7.3833,-7.3121,-7.3987,-7.3566,-7.2821,-7.2821,-7.2821,-7.2821,-7.2821,-7.2821,-7.2821,-7.2821,-7.2412,-7.1907,-7.1378,-6.9983,-6.8228,-6.6159,-6.4813,-6.3322,-6.1374,-6.0941,-6.07,-6.0339,-6.0364,-6.046,-6.0532,-6.0604,-6.0436,-5.9907,-6.0219,-6.0195,-5.9642,-5.9979,-6.0171,-6.0171,-6.0243,-6.082,-6.1903,-6.2865,-6.3346,-6.3434,-6.3506,-6.3747,-6.4114,-6.4114,-6.4552,-6.5248,-6.5248,-6.5508,-6.5853,-6.5853,-6.5681,-6.5421,-6.5853,-6.5767,-6.5533,-6.604,-6.6237,-6.6338,-7.7159,-7.726,-7.7411,-7.7888,-7.7888,-7.7837,-7.7837,-7.6959,-7.6456,-7.6833,-7.613,-7.5929,-7.6783,-7.6456,-7.6406,-7.6959,-7.6507,-7.6381,-7.6833,-7.5854,-7.5276,-7.5377,-7.4222,-7.3644,-7.372,-7.2062,-7.0932,-7.038,-6.9828,-6.9577,-6.9577,-6.9577,-6.9526,-6.9361,-6.9361,-6.9501,-6.9551,-6.9476,-6.9501,-6.9577,-6.9577,-6.9627,-6.9702,-6.9803,-7.0179,-7.0706,-7.1184,-7.1636,-7.2113,-7.2565,-7.3167,-7.3795,-7.4175,-7.4362,-7.464,-7.5037,-7.4361,-7.3555,-7.3628,-7.3275,-7.2821,-7.2821,-7.2821,-7.2821,-7.2821,-7.2821,-7.2821,-7.2821,-7.2412,-7.1907,-7.1378,-6.9983,-6.8348,-6.664,-6.4741,-6.3033,-6.1831,-6.0893,-6.0436,-6.0796,-6.1253,-6.1734,-6.2167,-6.26,-6.2648,-6.2119,-6.1758,-6.1301,-6.0748,-6.0364,-6.0171,-6.0171,-6.0604,-6.1374,-6.2456,-6.3033,-6.3498,-6.3939,-6.44,-6.4553,-6.4615,-6.4615,-6.4702,-6.4789,-6.4789,-6.4876,-6.4876,-6.4876,-6.5161,-6.5421,-6.5508,-6.5681,-6.6076,-6.6664,-6.684,-6.6915,-7.6758,-7.6632,-7.6607,-7.7159,-7.7009,-7.6808,-7.6808,-7.613,-7.5703,-7.5954,-7.5552,-7.5427,-7.5929,-7.603,-7.6155,-7.6406,-7.5929,-7.5728,-7.5979,-7.5251,-7.4674,-7.4372,-7.3293,-7.2414,-7.1811,-7.1033,-7.0506,-7.0255,-7.0003,-6.9878,-6.9878,-6.9878,-6.9727,-6.9361,-6.9361,-6.9602,-6.9853,-6.9577,-6.9627,-6.9853,-6.9551,-6.9627,-6.9878,-6.9878,-7.0405,-7.1184,-7.1435,-7.1887,-7.2389,-7.264,-7.3117,-7.3694,-7.4247,-7.4605,-7.4934,-7.5509,-7.4959,-7.3895,-7.33,-7.3241,-7.3182,-7.2893,-7.2821,-7.2821,-7.2821,-7.2821,-7.2821,-7.2821,-7.2629,-7.222,-7.1426,-6.9983,-6.8372,-6.6761,-6.45,-6.2672,-6.1903,-6.1109,-6.0796,-6.135,-6.1903,-6.2432,-6.2937,-6.3201,-6.3129,-6.2624,-6.2095,-6.1662,-6.1422,-6.0893,-6.0724,-6.1037,-6.1277,-6.1782,-6.2576,-6.3081,-6.3434,-6.3586,-6.3852,-6.4005,-6.3939,-6.3939,-6.4114,-6.4353,-6.4353,-6.4639,-6.5075,-6.5075,-6.5161,-6.5421,-6.5681,-6.5767,-6.5842,-6.6678,-6.6791,-6.6691,-7.697,-7.6593,-7.6368,-7.6329,-7.5954,-7.5678,-7.5678,-7.5201,-7.49,-7.5025,-7.4925,-7.49,-7.5025,-7.5427,-7.5678,-7.5678,-7.5276,-7.495,-7.4674,-7.4247,-7.3845,-7.3418,-7.2313,-7.1259,-7.028,-7.0255,-7.0204,-7.0079,-7.0079,-7.0079,-7.0079,-7.0079,-6.9853,-6.9361,-6.9361,-6.9677,-7.0054,-6.9627,-6.9702,-7.0029,-6.9627,-6.9702,-7.0079,-7.0079,-7.0681,-7.1535,-7.1661,-7.2062,-7.2565,-7.269,-7.3016,-7.3519,-7.4197,-7.4699,-7.5176,-7.5854,-7.5334,-7.437,-7.3222,-7.3338,-7.3452,-7.2917,-7.2821,-7.2821,-7.2821,-7.2821,-7.2821,-7.2821,-7.2605,-7.222,-7.1426,-6.9767,-6.8035,-6.6544,-6.4211,-6.2408,-6.1879,-6.1326,-6.1229,-6.1903,-6.2336,-6.2889,-6.3634,-6.3586,-6.337,-6.2985,-6.2432,-6.2023,-6.1807,-6.1398,-6.1422,-6.1975,-6.1975,-6.2239,-6.2768,-6.3274,-6.3466,-6.3346,-6.3466,-6.3466,-6.3346,-6.3346,-6.3498,-6.3851,-6.3851,-6.429,-6.4901,-6.4901,-6.4988,-6.5075,-6.5508,-6.5421,-6.5323,-6.6454,-6.6616,-6.6363,-7.7566,-7.7165,-7.6598,-7.4864,-7.4573,-7.4548,-7.4548,-7.4071,-7.3895,-7.4397,-7.4021,-7.392,-7.4423,-7.4523,-7.4548,-7.4548,-7.4498,-7.4046,-7.2991,-7.2866,-7.2841,-7.2791,-7.1736,-7.0857,-7.028,-7.0255,-7.0003,-6.9501,-6.9501,-6.9501,-6.9501,-6.9501,-6.9476,-6.9361,-6.9361,-6.9451,-6.9501,-6.9451,-6.9476,-6.9501,-6.9451,-6.9476,-6.9501,-6.9501,-6.9878,-7.0455,-7.0958,-7.1485,-7.2037,-7.2565,-7.2765,-7.2991,-7.4071,-7.4448,-7.4674,-7.5753,-7.5683,-7.5011,-7.3858,-7.3555,-7.3478,-7.2923,-7.2821,-7.2821,-7.2821,-7.2821,-7.2821,-7.2821,-7.2051,-7.1354,-7.1282,-6.9142,-6.7049,-6.5943,-6.3971,-6.2408,-6.1879,-6.1326,-6.135,-6.2408,-6.2576,-6.3177,-6.4668,-6.4356,-6.4067,-6.4019,-6.3514,-6.2817,-6.1855,-6.1758,-6.1975,-6.2504,-6.2528,-6.2768,-6.3274,-6.3803,-6.3827,-6.3346,-6.3827,-6.3803,-6.3346,-6.3346,-6.3346,-6.3346,-6.3346,-6.3434,-6.341,-6.341,-6.3675,-6.4114,-6.4114,-6.4377,-6.4912,-6.5995,-6.6389,-6.6537,-7.8539,-7.731,-7.5993,-7.5274,-7.4502,-7.3795,-7.3418,-7.3494,-7.3669,-7.387,-7.372,-7.3669,-7.387,-7.3895,-7.3895,-7.3895,-7.3268,-7.2665,-7.2238,-7.1887,-7.156,-7.1209,-7.048,-6.9978,-6.9752,-6.9752,-6.9652,-6.9361,-6.9361,-6.9361,-6.9361,-6.9361,-6.9361,-6.9361,-6.9361,-6.9361,-6.9361,-6.9361,-6.9361,-6.9361,-6.9361,-6.9361,-6.9361,-6.9361,-7.0003,-7.0807,-7.1008,-7.1661,-7.2439,-7.2665,-7.2966,-7.3393,-7.4171,-7.4649,-7.5075,-7.5829,-7.5956,-7.5658,-7.4862,-7.416,-7.343,-7.2923,-7.2821,-7.2821,-7.2821,-7.2821,-7.2821,-7.2821,-7.2508,-7.2027,-7.1378,-6.9911,-6.8324,-6.6905,-6.4909,-6.3466,-6.3274,-6.2768,-6.2841,-6.3899,-6.4332,-6.4885,-6.5799,-6.5702,-6.5318,-6.4668,-6.4428,-6.3875,-6.2817,-6.3057,-6.3177,-6.3057,-6.337,-6.3466,-6.3346,-6.3851,-6.4019,-6.3827,-6.4356,-6.4524,-6.4308,-6.3971,-6.3827,-6.3803,-6.349,-6.3691,-6.4223,-6.3908,-6.4221,-6.493,-6.4587,-6.4527,-6.48,-6.5562,-6.5876,-6.6089,-7.9307,-7.7999,-7.6395,-7.525,-7.4393,-7.3552,-7.2609,-7.2966,-7.3268,-7.3092,-7.3067,-7.2991,-7.2816,-7.2816,-7.2816,-7.2816,-7.2087,-7.1585,-7.141,-7.0882,-7.048,-7.028,-6.9727,-6.9361,-6.9361,-6.9361,-6.9361,-6.9361,-6.9361,-6.9361,-6.9361,-6.9361,-6.9361,-6.9361,-6.9361,-6.9361,-6.9361,-6.9361,-6.9361,-6.9361,-6.9361,-6.9361,-6.9361,-6.9361,-7.0029,-7.0857,-7.1008,-7.1686,-7.2489,-7.2665,-7.3117,-7.3694,-7.4247,-7.4925,-7.5578,-7.5954,-7.6055,-7.5956,-7.5485,-7.4762,-7.3934,-7.3227,-7.2923,-7.2821,-7.2821,-7.2821,-7.2821,-7.2821,-7.2677,-7.2316,-7.1426,-7.0392,-6.9166,-6.7554,-6.5919,-6.4765,-6.4428,-6.4067,-6.4115,-6.4837,-6.5246,-6.5606,-6.5967,-6.5847,-6.5438,-6.4716,-6.4668,-6.4356,-6.3634,-6.3923,-6.3875,-6.3346,-6.3851,-6.3875,-6.3346,-6.3851,-6.4115,-6.4139,-6.4668,-6.4837,-6.4668,-6.4284,-6.4043,-6.3875,-6.3682,-6.3956,-6.4538,-6.4344,-6.457,-6.4982,-6.468,-6.4534,-6.4583,-6.5144,-6.5502,-6.5766,-7.9798,-7.9381,-7.8228,-7.4463,-7.4246,-7.4027,-7.226,-7.2364,-7.2539,-7.1962,-7.1912,-7.1686,-7.1133,-7.1083,-7.1083,-7.1083,-7.1083,-7.0832,-7.0305,-6.9752,-6.9702,-7.0229,-6.9727,-6.9361,-6.9361,-6.9361,-6.9361,-6.9361,-6.9361,-6.9361,-6.9361,-6.9361,-6.9361,-6.9361,-6.9361,-6.9361,-6.9361,-6.9361,-6.9361,-6.9361,-6.9361,-6.9361,-6.9361,-6.9361,-6.9777,-7.033,-7.0882,-7.1435,-7.1987,-7.2539,-7.3117,-7.3694,-7.4247,-7.5176,-7.6055,-7.6055,-7.6055,-7.5956,-7.5485,-7.5286,-7.5061,-7.3833,-7.3227,-7.2821,-7.2821,-7.2821,-7.2821,-7.2821,-7.2412,-7.1907,-7.1378,-7.0416,-6.9166,-6.7554,-6.6857,-6.6135,-6.5077,-6.4933,-6.4933,-6.4933,-6.4933,-6.4933,-6.4933,-6.4452,-6.4139,-6.4139,-6.4139,-6.4139,-6.4139,-6.4139,-6.3899,-6.3346,-6.3851,-6.3875,-6.3346,-6.3875,-6.4139,-6.4139,-6.4668,-6.4644,-6.4139,-6.4139,-6.3851,-6.337,-6.3899,-6.4115,-6.4163,-6.4692,-6.462,-6.4139,-6.4115,-6.4115,-6.4187,-6.4716,-6.5246,-6.5775,-8.1417,-8.0325,-7.8877,-7.7393,-7.6874,-7.6272,-7.5313,-7.6083,-7.5992,-7.4222,-7.3961,-7.3206,-7.1318,-7.0732,-7.0506,-7.0506,-7.0154,-6.9853,-6.9702,-6.9526,-6.9526,-6.9677,-6.9526,-6.9361,-6.9361,-6.9361,-6.9361,-6.9361,-6.9361,-6.9361,-6.9361,-6.9361,-6.9361,-6.9361,-6.9361,-6.9361,-6.9361,-6.9361,-6.9361,-6.9361,-6.9361,-6.9361,-6.9361,-6.9361,-6.9777,-7.033,-7.0882,-7.1435,-7.2062,-7.3016,-7.372,-7.4322,-7.5276,-7.5778,-7.6055,-7.6055,-7.6055,-7.6055,-7.5857,-7.5559,-7.5061,-7.3833,-7.343,-7.3227,-7.2923,-7.2821,-7.2821,-7.2821,-7.2701,-7.2436,-7.1931,-7.0969,-6.9839,-6.8612,-6.765,-6.6809,-6.6111,-6.6015,-6.6015,-6.6015,-6.6015,-6.6015,-6.6015,-6.5534,-6.5221,-6.5221,-6.4885,-6.4668,-6.4668,-6.4668,-6.426,-6.337,-6.4211,-6.4235,-6.3346,-6.4596,-6.4861,-6.4139,-6.5414,-6.5751,-6.5221,-6.4861,-6.4596,-6.4428,-6.4211,-6.4332,-6.4692,-6.4861,-6.4813,-6.4644,-6.426,-6.4115,-6.4139,-6.4308,-6.4933,-6.5818,-8.1368,-8.0512,-7.9445,-7.8364,-7.8232,-7.7788,-7.6471,-7.7308,-7.7329,-7.5402,-7.5119,-7.4197,-7.1794,-7.1256,-7.0782,-7.0019,-6.9627,-6.9361,-6.9361,-6.9361,-6.9361,-6.9361,-6.9361,-6.9361,-6.9361,-6.9361,-6.9361,-6.9361,-6.9361,-6.9361,-6.9361,-6.9361,-6.9361,-6.9361,-6.9361,-6.9361,-6.9361,-6.9361,-6.9361,-6.9361,-6.9361,-6.9361,-6.9361,-6.9361,-6.9652,-7.0003,-7.0556,-7.1108,-7.1761,-7.2866,-7.392,-7.49,-7.5778,-7.6055,-7.6055,-7.6055,-7.6055,-7.6004,-7.5804,-7.5706,-7.5311,-7.3991,-7.3788,-7.3833,-7.3227,-7.3126,-7.3024,-7.2821,-7.2821,-7.2581,-7.1883,-7.1065,-7.0128,-6.9069,-6.818,-6.741,-6.6881,-6.6809,-6.6737,-6.652,-6.6304,-6.6087,-6.5895,-6.539,-6.5173,-6.5366,-6.5294,-6.5221,-6.5221,-6.5029,-6.4524,-6.3682,-6.426,-6.4308,-6.3658,-6.5005,-6.527,-6.4452,-6.5847,-6.6208,-6.5702,-6.5366,-6.5101,-6.4909,-6.4572,-6.4741,-6.5221,-6.5221,-6.5101,-6.4885,-6.4572,-6.4452,-6.4452,-6.4452,-6.5101,-6.6015,-8.0294,-8.0294,-7.9791,-7.8099,-7.8841,-7.8821,-7.6525,-7.717,-7.7411,-7.6068,-7.5932,-7.5003,-7.2742,-7.2341,-7.1464,-6.9786,-6.9541,-6.9361,-6.9361,-6.9361,-6.9361,-6.9361,-6.9361,-6.9361,-6.9361,-6.9361,-6.9361,-6.9361,-6.9361,-6.9361,-6.9361,-6.9361,-6.9361,-6.9361,-6.9361,-6.9361,-6.9361,-6.9361,-6.9361,-6.9361,-6.9361,-6.9361,-6.9361,-6.9361,-6.9361,-6.9526,-7.0129,-7.0656,-7.1259,-7.2489,-7.3946,-7.5327,-7.5879,-7.6055,-7.6055,-7.6055,-7.6055,-7.5954,-7.5452,-7.5678,-7.5732,-7.4145,-7.4192,-7.4361,-7.3733,-7.3531,-7.343,-7.2899,-7.2821,-7.2532,-7.157,-7.0897,-7.0176,-6.9214,-6.8516,-6.7915,-6.7362,-6.729,-6.7073,-6.6544,-6.6039,-6.5534,-6.5101,-6.462,-6.4524,-6.4957,-6.5486,-6.5751,-6.5702,-6.5197,-6.4668,-6.4139,-6.4163,-6.4163,-6.4115,-6.5221,-6.5486,-6.4933,-6.5991,-6.6208,-6.5702,-6.5702,-6.5438,-6.4981,-6.4981,-6.527,-6.5702,-6.5751,-6.5462,-6.4981,-6.4933,-6.4909,-6.4909,-6.4861,-6.5486,-6.6352,-8.0294,-8.0294,-8.0215,-7.9791,-8.0316,-8.0616,-8.0121,-8.0669,-8.0405,-7.8178,-7.79,-7.6982,-7.4608,-7.3097,-7.2079,-7.1641,-7.0299,-6.9361,-6.9361,-6.9361,-6.9361,-6.9361,-6.9361,-6.9361,-6.9361,-6.9361,-6.9361,-6.9361,-6.9361,-6.9361,-6.9361,-6.9361,-6.9361,-6.9361,-6.9361,-6.9361,-6.9361,-6.9361,-6.9361,-6.9361,-6.9361,-6.9361,-6.9361,-6.9361,-6.9361,-6.9577,-7.0556,-7.0983,-7.1384,-7.3368,-7.4573,-7.5327,-7.5879,-7.6055,-7.6055,-7.6055,-7.6055,-7.603,-7.5904,-7.5954,-7.5931,-7.5137,-7.4987,-7.4762,-7.3328,-7.3024,-7.2923,-7.2797,-7.2821,-7.2749,-7.2508,-7.1378,-7.0392,-7.0176,-6.8997,-6.7915,-6.7362,-6.729,-6.7073,-6.6544,-6.6039,-6.5823,-6.6111,-6.6039,-6.5847,-6.5558,-6.6015,-6.6135,-6.5727,-6.5197,-6.4668,-6.4139,-6.4524,-6.4548,-6.4139,-6.5582,-6.5847,-6.4933,-6.5991,-6.6208,-6.5702,-6.5702,-6.563,-6.5534,-6.5534,-6.5606,-6.5727,-6.6159,-6.6015,-6.5486,-6.5077,-6.4909,-6.4861,-6.4452,-6.4716,-6.5318,-8.0294,-8.0294,-8.0294,-8.0294,-8.0788,-8.1107,-8.0817,-8.131,-8.1135,-7.9587,-7.9339,-7.852,-7.6429,-7.5371,-7.4442,-7.3587,-7.1816,-7.0719,-7.0719,-6.9876,-6.9361,-6.9361,-6.9361,-6.9361,-6.9361,-6.9361,-6.9361,-6.9361,-6.9361,-6.9361,-6.9361,-6.9361,-6.93,-6.9049,-6.9049,-6.8899,-6.8673,-6.8949,-6.9049,-6.9074,-6.9351,-6.9361,-6.9361,-6.9361,-6.9361,-6.9526,-7.0104,-7.0807,-7.1736,-7.3443,-7.4397,-7.495,-7.5502,-7.5653,-7.5728,-7.5979,-7.6055,-7.6004,-7.5728,-7.5854,-7.5881,-7.5037,-7.4863,-7.4662,-7.343,-7.3034,-7.2836,-7.2749,-7.2629,-7.246,-7.246,-7.1162,-7.0031,-6.9767,-6.8396,-6.7242,-6.6953,-6.6905,-6.6809,-6.652,-6.6039,-6.5606,-6.539,-6.5366,-6.5342,-6.5342,-6.5823,-6.6111,-6.6087,-6.5342,-6.4909,-6.4885,-6.4668,-6.4644,-6.4885,-6.5702,-6.5967,-6.5678,-6.6232,-6.6352,-6.6087,-6.6087,-6.6087,-6.6063,-6.5823,-6.5847,-6.6087,-6.6111,-6.5943,-6.5654,-6.5125,-6.4909,-6.4861,-6.4332,-6.462,-6.5342,-8.0294,-8.0294,-8.0294,-8.0294,-8.0701,-8.0875,-8.0381,-8.073,-8.0875,-8.0381,-8.0294,-7.9711,-7.8261,-7.7745,-7.6897,-7.5035,-7.3501,-7.2663,-7.2663,-7.0871,-6.9876,-6.9876,-6.9606,-6.9361,-6.9361,-6.9351,-6.9351,-6.9361,-6.9361,-6.9311,-6.93,-6.93,-6.8999,-6.8472,-6.8472,-6.8221,-6.7819,-6.8296,-6.8547,-6.8673,-6.9125,-6.9351,-6.9361,-6.9361,-6.9361,-6.9451,-6.9551,-7.0581,-7.2062,-7.3092,-7.382,-7.4397,-7.5025,-7.5251,-7.5352,-7.5879,-7.5979,-7.5829,-7.5377,-7.5502,-7.558,-7.4614,-7.4467,-7.4338,-7.3809,-7.3316,-7.282,-7.2826,-7.2484,-7.2172,-7.2076,-7.0897,-6.9743,-6.9021,-6.7699,-6.6713,-6.652,-6.6496,-6.6496,-6.6496,-6.6111,-6.5462,-6.45,-6.4476,-6.4716,-6.5149,-6.551,-6.5943,-6.6472,-6.5486,-6.5149,-6.5678,-6.4861,-6.4813,-6.5702,-6.5799,-6.6063,-6.6496,-6.6496,-6.6496,-6.6496,-6.6496,-6.6496,-6.6472,-6.6039,-6.6087,-6.6448,-6.5919,-6.5702,-6.563,-6.5029,-6.4789,-6.4716,-6.4284,-6.4789,-6.5702,-8.0294,-8.0294,-8.0294,-8.0294,-8.0381,-8.0381,-8.0323,-8.0381,-8.0381,-8.0323,-8.0294,-8.0215,-7.9949,-7.8504,-7.6897,-7.5035,-7.4696,-7.4527,-7.4527,-7.2837,-7.1816,-7.1816,-7.0299,-6.9361,-6.9361,-6.8974,-6.8974,-6.9361,-6.9361,-6.92,-6.8748,-6.8748,-6.8447,-6.7919,-6.7919,-6.7869,-6.7794,-6.7869,-6.8196,-6.8622,-6.8698,-6.9024,-6.9361,-6.9361,-6.9361,-6.9501,-6.9978,-7.0907,-7.2012,-7.264,-7.3217,-7.387,-7.4925,-7.5251,-7.5352,-7.5879,-7.5728,-7.5327,-7.5251,-7.495,-7.4627,-7.444,-7.4392,-7.4368,-7.4338,-7.3583,-7.2826,-7.2797,-7.2749,-7.2581,-7.2148,-7.1498,-7.0584,-6.9142,-6.8348,-6.7578,-6.6616,-6.6496,-6.6496,-6.6496,-6.6424,-6.6159,-6.5534,-6.5895,-6.6208,-6.628,-6.5919,-6.5943,-6.6472,-6.5486,-6.5149,-6.5678,-6.5558,-6.5558,-6.5702,-6.6159,-6.6424,-6.6496,-6.6496,-6.6496,-6.6496,-6.6496,-6.6496,-6.6496,-6.6424,-6.6424,-6.6448,-6.5919,-6.5702,-6.5606,-6.462,-6.4235,-6.4211,-6.4163,-6.4789,-6.5702,-8.0236,-8.0004,-7.9859,-8.0236,-8.0294,-8.0294,-8.0294,-8.0294,-8.0294,-8.0294,-8.0294,-8.0294,-8.0294,-7.9632,-7.8774,-7.8017,-7.698,-7.6401,-7.6401,-7.4696,-7.3673,-7.3673,-7.2924,-7.1835,-7.0523,-7.0266,-6.9611,-6.8522,-6.8522,-6.8396,-6.817,-6.817,-6.7869,-6.7367,-6.7668,-6.7618,-6.7367,-6.7995,-6.8396,-6.8648,-6.8949,-6.9225,-6.9361,-6.9361,-6.9361,-6.9526,-7.0054,-7.0782,-7.1535,-7.2087,-7.264,-7.3318,-7.4423,-7.4774,-7.495,-7.5804,-7.5653,-7.5251,-7.5251,-7.4824,-7.4451,-7.4782,-7.4613,-7.4466,-7.4838,-7.4361,-7.3632,-7.3328,-7.3009,-7.2816,-7.2561,-7.133,-7.0152,-6.9454,-6.8131,-6.7049,-6.6568,-6.6232,-6.5943,-6.5654,-6.5606,-6.551,-6.5294,-6.5486,-6.5727,-6.6039,-6.5558,-6.5486,-6.6015,-6.5342,-6.5149,-6.5678,-6.5702,-6.5847,-6.6135,-6.6376,-6.6352,-6.6063,-6.6352,-6.6496,-6.6496,-6.6496,-6.6496,-6.6496,-6.6496,-6.6328,-6.6063,-6.6111,-6.5799,-6.5221,-6.4741,-6.438,-6.4115,-6.4115,-6.462,-6.527]},{"header":{"parameterUnit":"m.s-1","parameterCategory":1,"la1":30.6,"la2":28.766,"lo1":-90.7593,"lo2":-88.6598,"dy":0.0162,"dx":0.0183,"nx":116,"ny":114,"refTime":"2024-04-25T12:00:00:Z","depth":0,"parameterNumber":3,"parameterNumberName":"V-component_of_WINDS"},"data":[0.0,0.0,0.0,0.0,0.0,0.0,0.0,0.0,0.0,0.0,0.0,0.0,0.0,0.0,0.0,0.0,0.0,0.0,0.0,0.0,0.0,0.0,0.0,0.0,0.0,0.0,0.0,0.0,0.0,0.0,0.0,0.0,0.0,0.0,0.0,0.0,0.0,0.0,0.0,0.0,0.0,0.0,0.0,0.0,0.0,0.0,0.0,0.0,0.0,0.0,0.0,0.0,0.0,0.0,0.0,0.0,0.0,0.0,0.0,0.0,0.0,0.0,0.0,0.0,0.0,0.0,0.0,0.0,0.0,0.0,0.0,0.0,0.0,0.0,0.0,0.0,0.0,0.0,0.0,0.0,0.0,0.0,0.0,0.0,0.0,0.0,0.0,0.0,0.0,0.0,0.0,0.0,0.0,0.0,0.0,0.0,0.0,0.0,0.0,0.0,0.0,0.0,0.0,0.0,0.0,0.0,0.0,0.0,0.0,0.0,0.0,0.0,0.0,0.0,0.0,0.0,0.0,0.0,0.0,0.0,0.0,0.0,0.0,0.0,0.0,0.0,0.0,0.0,0.0,0.0,0.0,0.0,0.0,0.0,0.0,0.0,0.0,0.0,0.0,0.0,0.0,0.0,0.0,0.0,0.0,0.0,0.0,0.0,0.0,0.0,0.0,0.0,0.0,0.0,0.0,0.0,0.0,0.0,0.0,0.0,0.0,0.0,0.0,0.0,0.0,0.0,0.0,0.0,0.0,0.0,0.0,0.0,0.0,0.0,0.0,0.0,0.0,0.0,0.0,0.0,0.0,0.0,0.0,0.0,0.0,0.0,0.0,0.0,0.0,0.0,0.0,0.0,0.0,0.0,0.0,0.0,0.0,0.0,0.0,0.0,0.0,0.0,0.0,0.0,0.0,0.0,0.0,0.0,0.0,0.0,0.0,0.0,0.0,0.0,0.0,0.0,0.0,0.0,0.0,0.0,0.0,0.0,0.0,0.0,0.0,0.0,0.0,0.0,0.0,0.0,0.0,0.0,0.0,0.0,0.0,0.0,0.0,0.0,0.0,0.0,0.0,0.0,0.0,0.0,0.0,0.0,0.0,0.0,0.0,0.0,0.0,0.0,0.0,0.0,0.0,0.0,0.0,0.0,0.0,0.0,0.0,0.0,0.0,0.0,0.0,0.0,0.0,0.0,0.0,0.0,0.0,0.0,0.0,0.0,0.0,0.0,0.0,0.0,0.0,0.0,0.0,0.0,0.0,0.0,0.0,0.0,0.0,0.0,0.0,0.0,0.0,0.0,0.0,0.0,0.0,0.0,0.0,0.0,0.0,0.0,0.0,0.0,0.0,0.0,0.0,0.0,0.0,0.0,0.0,0.0,0.0,0.0,0.0,0.0,0.0,0.0,0.0,0.0,0.0,0.0,0.0,0.0,0.0,0.0,0.0,0.0,0.0,0.0,0.0,0.0,0.0,0.0,0.0,0.0,0.0,0.0,0.0,0.0,0.0,0.0,0.0,0.0,0.0,0.0,0.0,0.0,0.0,0.0,0.0,0.0,0.0,0.0,0.0,0.0,0.0,0.0,0.0,0.0,0.0,0.0,0.0,0.0,0.0,0.0,0.0,0.0,0.0,0.0,0.0,0.0,0.0,0.0,0.0,0.0,0.0,0.0,0.0,0.0,0.0,0.0,0.0,0.0,0.0,0.0,0.0,0.0,0.0,0.0,0.0,0.0,0.0,0.0,0.0,0.0,0.0,0.0,0.0,0.0,0.0,0.0,0.0,0.0,0.0,0.0,0.0,0.0,0.0,0.0,0.0,0.0,0.0,0.0,0.0,0.0,0.0,0.0,0.0,0.0,0.0,0.0,0.0,0.0,0.0,0.0,0.0,0.0,0.0,0.0,0.0,0.0,0.0,0.0,0.0,0.0,0.0,0.0,0.0,0.0,0.0,0.0,0.0,0.0,0.0,0.0,0.0,0.0,0.0,0.0,0.0,0.0,0.0,0.0,0.0,0.0,0.0,0.0,0.0,0.0,0.0,0.0,0.0,0.0,0.0,0.0,0.0,0.0,0.0,0.0,0.0,0.0,0.0,0.0,0.0,0.0,0.0,0.0,0.0,0.0,0.0,0.0,0.0,0.0,0.0,0.0,0.0,0.0,0.0,0.0,0.0,0.0,0.0,0.0,0.0,0.0,0.0,0.0,0.0,0.0,0.0,0.0,0.0,0.0,0.0,0.0,0.0,0.0,0.0,0.0,0.0,0.0,0.0,0.0,0.0,0.0,0.0,0.0,0.0,0.0,0.0,0.0,0.0,0.0,0.0,0.0,0.0,0.0,0.0,0.0,0.0,0.0,0.0,0.0,0.0,0.0,0.0,0.0,0.0,0.0,0.0,0.0,0.0,0.0,0.0,0.0,0.0,0.0,0.0,0.0,0.0,0.0,0.0,0.0,0.0,0.0,0.0,0.0,0.0,0.0,0.0,0.0,0.0,0.0,0.0,0.0,0.0,0.0,0.0,0.0,0.0,0.0,0.0,0.0,0.0,0.0,0.0,0.0,0.0,0.0,0.0,0.0,0.0,0.0,0.0,0.0,0.0,0.0,0.0,0.0,0.0,0.0,0.0,0.0,0.0,0.0,0.0,0.0,0.0,0.0,0.0,0.0,0.0,0.0,0.0,0.0,0.0,0.0,0.0,0.0,0.0,0.0,0.0,0.0,0.0,0.0,0.0,0.0,0.0,0.0,0.0,0.0,0.0,0.0,0.0,0.0,0.0,0.0,0.0,0.0,0.0,0.0,0.0,0.0,0.0,0.0,0.0,0.0,0.0,0.0,0.0,0.0,0.0,0.0,0.0,0.0,0.0,0.0,0.0,0.0,0.0,0.0,0.0,0.0,0.0,0.0,0.0,0.0,0.0,0.0,0.0,0.0,0.0,0.0,0.0,0.0,0.0,0.0,0.0,0.0,0.0,0.0,0.0,0.0,0.0,0.0,0.0,0.0,0.0,0.0,0.0,0.0,0.0,0.0,0.0,0.0,0.0,0.0,0.0,0.0,0.0,0.0,0.0,0.0,0.0,0.0,0.0,0.0,0.0,0.0,0.0,0.0,0.0,0.0,0.0,0.0,0.0,0.0,0.0,0.0,0.0,0.0,0.0,0.0,0.0,0.0,0.0,0.0,0.0,0.0,0.0,0.0,0.0,0.0,0.0,0.0,0.0,0.0,0.0,0.0,0.0,0.0,0.0,0.0,0.0,0.0,0.0,0.0,0.0,0.0,0.0,0.0,0.0,0.0,0.0,0.0,0.0,0.0,0.0,0.0,0.0,0.0,0.0,0.0,0.0,0.0,0.0,0.0,0.0,0.0,0.0,0.0,0.0,0.0,0.0,0.0,0.0,0.0,0.0,0.0,0.0,0.0,0.0,0.0,0.0,0.0,0.0,0.0,0.0,0.0,0.0,0.0,0.0,0.0,0.0,0.0,0.0,0.0,0.0,0.0,0.0,0.0,0.0,0.0,0.0,0.0,0.0,0.0,0.0,0.0,0.0,0.0,0.0,0.0,0.0,0.0,0.0,0.0,0.0,0.0,0.0,0.0,0.0,0.0,0.0,0.0,0.0,0.0,0.0,0.0,0.0,0.0,0.0,0.0,0.0,0.0,0.0,0.0,0.0,0.0,0.0,0.0,0.0,0.0,0.0,0.0,0.0,0.0,0.0,0.0,0.0,0.0,0.0,0.0,0.0,0.0,0.0,0.0,0.0,0.0,0.0,0.0,0.0,0.0,0.0,0.0,0.0,0.0,0.0,0.0,0.0,0.0,0.0,0.0,0.0,0.0,0.0,0.0,0.0,0.0,0.0,0.0,0.0,0.0,0.0,0.0,0.0,0.0,0.0,0.0,0.0,0.0,0.0,0.0,0.0,0.0,0.0,0.0,0.0,0.0,0.0,0.0,0.0,0.0,0.0,0.0,0.0,0.0,0.0,0.0,0.0,0.0,0.0,0.0,0.0,0.0,0.0,0.0,0.0,0.0,0.0,0.0,0.0,0.0,0.0,0.0,0.0,0.0,0.0,0.0,0.0,0.0,0.0,0.0,0.0,0.0,0.0,0.0,0.0,0.0,0.0,0.0,0.0,0.0,0.0,0.0,0.0,0.0,0.0,0.0,0.0,0.0,0.0,0.0,0.0,0.0,0.0,0.0,0.0,0.0,0.0,0.0,0.0,0.0,0.0,0.0,0.0,0.0,0.0,0.0,0.0,0.0,0.0,0.0,0.0,0.0,0.0,0.0,0.0,0.0,0.0,0.0,0.0,0.0,0.0,0.0,0.0,0.0,0.0,0.0,0.0,0.0,0.0,0.0,0.0,0.0,0.0,0.0,0.0,0.0,0.0,0.0,0.0,0.0,0.0,0.0,0.0,0.0,0.0,0.0,0.0,0.0,0.0,0.0,0.0,0.0,0.0,0.0,0.0,0.0,0.0,0.0,0.0,0.0,0.0,0.0,0.0,0.0,0.0,0.0,0.0,0.0,0.0,0.0,0.0,0.0,0.0,0.0,0.0,0.0,0.0,0.0,0.0,0.0,0.0,0.0,0.0,0.0,0.0,0.0,0.0,0.0,0.0,0.0,0.0,0.0,0.0,0.0,0.0,0.0,0.0,0.0,0.0,0.0,0.0,0.0,0.0,0.0,0.0,0.0,0.0,0.0,0.0,0.0,0.0,0.0,0.0,0.0,0.0,0.0,0.0,0.0,0.0,0.0,0.0,0.0,0.0,0.0,0.0,0.0,0.0,0.0,0.0,0.0,0.0,0.0,0.0,0.0,0.0,0.0,0.0,0.0,0.0,0.0,0.0,0.0,0.0,0.0,0.0,0.0,0.0,0.0,0.0,0.0,0.0,0.0,0.0,0.0,0.0,0.0,0.0,0.0,0.0,0.0,0.0,0.0,0.0,0.0,0.0,0.0,0.0,0.0,0.0,0.0,0.0,0.0,0.0,0.0,0.0,0.0,0.0,0.0,0.0,0.0,0.0,0.0,0.0,0.0,0.0,0.0,0.0,0.0,0.0,0.0,0.0,0.0,0.0,0.0,0.0,0.0,0.0,0.0,0.0,0.0,0.0,0.0,0.0,0.0,0.0,0.0,0.0,0.0,0.0,0.0,0.0,0.0,0.0,0.0,0.0,0.0,0.0,0.0,0.0,0.0,0.0,0.0,0.0,0.0,0.0,0.0,0.0,0.0,0.0,0.0,0.0,0.0,0.0,0.0,0.0,0.0,0.0,0.0,0.0,0.0,0.0,0.0,0.0,0.0,0.0,0.0,0.0,0.0,0.0,0.0,0.0,0.0,0.0,0.0,0.0,0.0,0.0,0.0,0.0,0.0,0.0,0.0,0.0,0.0,0.0,0.0,0.0,0.0,0.0,0.0,0.0,0.0,0.0,0.0,0.0,0.0,0.0,0.0,0.0,0.0,0.0,0.0,0.0,0.0,0.0,0.0,0.0,0.0,0.0,0.0,0.0,0.0,0.0,0.0,0.0,0.0,0.0,0.0,0.0,0.0,0.0,0.0,0.0,0.0,0.0,0.0,0.0,0.0,0.0,0.0,0.0,0.0,0.0,0.0,0.0,0.0,0.0,0.0,0.0,0.0,0.0,0.0,0.0,0.0,0.0,0.0,0.0,0.0,0.0,0.0,0.0,0.0,0.0,0.0,0.0,0.0,0.0,0.0,0.0,0.0,0.0,0.0,0.0,0.0,0.0,0.0,0.0,0.0,0.0,0.0,0.0,0.0,0.0,0.0,0.0,0.0,0.0,0.0,0.0,0.0,0.0,0.0,0.0,0.0,0.0,0.0,0.0,0.0,0.0,0.0,0.0,0.0,0.0,0.0,0.0,0.0,0.0,0.0,0.0,0.0,0.0,0.0,0.0,0.0,0.0,0.0,0.0,0.0,0.0,0.0,0.0,0.0,0.0,0.0,0.0,0.0,0.0,0.0,0.0,0.0,0.0,0.0,0.0,0.0,0.0,0.0,0.0,0.0,0.0,0.0,0.0,0.0,0.0,0.0,0.0,0.0,0.0,0.0,0.0,0.0,0.0,0.0,0.0,0.0,0.0,0.0,0.0,0.0,7.1637,7.1622,0.0,0.0,0.0,0.0,0.0,0.0,0.0,0.0,0.0,0.0,0.0,0.0,0.0,0.0,0.0,0.0,0.0,0.0,0.0,0.0,0.0,0.0,0.0,5.8523,5.8523,5.8523,5.8523,5.8758,5.9333,5.9098,0.0,0.0,0.0,0.0,0.0,0.0,6.0823,6.1136,6.1424,6.1842,6.2365,6.2104,6.1502,6.0588,0.0,0.0,0.0,0.0,0.0,0.0,0.0,0.0,0.0,0.0,0.0,0.0,0.0,0.0,0.0,0.0,0.0,0.0,0.0,0.0,0.0,0.0,0.0,0.0,0.0,0.0,0.0,0.0,0.0,0.0,0.0,0.0,0.0,0.0,0.0,0.0,0.0,0.0,0.0,0.0,0.0,0.0,0.0,0.0,0.0,0.0,0.0,0.0,0.0,0.0,0.0,0.0,0.0,0.0,0.0,0.0,0.0,0.0,0.0,0.0,0.0,0.0,0.0,0.0,0.0,0.0,0.0,0.0,0.0,0.0,7.4958,7.3642,0.0,0.0,0.0,0.0,0.0,0.0,0.0,0.0,0.0,0.0,0.0,0.0,0.0,0.0,0.0,0.0,0.0,0.0,0.0,0.0,0.0,5.7869,5.8444,5.8601,5.8653,5.8653,5.8758,5.8967,5.9333,5.8915,5.8836,5.9202,5.9202,5.9255,5.9359,5.9934,6.0274,6.0378,6.1189,6.2051,6.2966,6.2705,6.2313,6.179,6.0222,0.0,0.0,0.0,0.0,0.0,0.0,0.0,0.0,0.0,0.0,0.0,0.0,0.0,0.0,0.0,0.0,0.0,0.0,0.0,0.0,0.0,0.0,0.0,0.0,0.0,0.0,0.0,0.0,0.0,0.0,0.0,0.0,0.0,0.0,0.0,0.0,0.0,0.0,0.0,0.0,0.0,0.0,0.0,0.0,0.0,0.0,0.0,0.0,0.0,0.0,0.0,0.0,0.0,0.0,0.0,0.0,0.0,0.0,0.0,0.0,0.0,0.0,0.0,7.9178,8.0405,8.1452,8.0913,8.1332,8.229,7.9148,7.6754,7.5198,7.6485,0.0,0.0,0.0,0.0,0.0,0.0,0.0,0.0,0.0,0.0,0.0,0.0,0.0,0.0,0.0,0.0,0.0,0.0,0.0,5.7869,5.8444,5.8967,5.9255,5.9255,5.9699,5.983,5.9457,5.9307,5.9072,5.8653,5.8627,5.8862,5.9359,5.9934,6.0483,6.1006,6.2574,6.341,6.3593,6.4508,6.49,6.4691,6.1529,6.0405,6.0823,0.0,0.0,0.0,0.0,0.0,0.0,0.0,0.0,0.0,0.0,0.0,0.0,0.0,0.0,0.0,0.0,0.0,0.0,0.0,0.0,0.0,0.0,0.0,0.0,0.0,0.0,0.0,0.0,0.0,0.0,0.0,0.0,0.0,0.0,0.0,0.0,0.0,0.0,0.0,0.0,0.0,6.5795,6.7101,0.0,0.0,0.0,0.0,0.0,0.0,0.0,0.0,0.0,0.0,0.0,0.0,0.0,7.7113,7.9028,8.0823,8.1811,8.1991,8.3307,8.4025,8.4205,8.4115,8.4474,8.5192,8.5222,0.0,7.9776,7.828,0.0,0.0,0.0,0.0,0.0,0.0,0.0,0.0,0.0,0.0,0.0,0.0,0.0,0.0,0.0,0.0,0.0,0.0,0.0,0.0,0.0,5.9202,5.949,5.9803,6.098,6.1163,5.9934,6.0457,6.0274,5.9045,5.8993,5.9098,5.9359,6.0274,6.1319,6.2548,6.4299,6.5318,6.5658,6.6808,6.7331,6.7253,6.5397,6.3646,6.2025,6.1189,0.0,0.0,0.0,0.0,0.0,0.0,0.0,0.0,0.0,0.0,0.0,0.0,0.0,0.0,0.0,0.0,0.0,0.0,0.0,0.0,0.0,0.0,0.0,0.0,0.0,0.0,0.0,0.0,0.0,0.0,0.0,0.0,0.0,0.0,0.0,0.0,0.0,0.0,0.0,6.6649,6.83,6.9777,6.9731,6.9494,0.0,0.0,0.0,0.0,0.0,0.0,0.0,0.0,0.0,7.9656,8.0375,8.1482,8.3098,8.5462,8.7018,8.7766,8.9082,9.0279,9.1357,9.0608,9.0848,9.1805,9.1716,9.0279,8.7646,8.3427,8.0704,7.9058,0.0,0.0,0.0,0.0,7.7134,7.7563,0.0,0.0,0.0,0.0,0.0,0.0,0.0,0.0,0.0,0.0,0.0,0.0,5.9464,5.9986,6.0535,6.1267,6.2522,6.2705,6.1398,6.145,6.0953,5.9647,5.915,5.8993,5.915,6.0588,6.2104,6.3672,6.5867,6.7227,6.7828,6.9422,7.0154,7.0154,6.9893,6.7749,6.4273,6.2966,6.1424,5.9751,0.0,0.0,0.0,0.0,0.0,0.0,0.0,0.0,0.0,0.0,0.0,0.0,0.0,0.0,0.0,0.0,0.0,0.0,0.0,0.0,0.0,0.0,0.0,0.0,0.0,0.0,0.0,0.0,0.0,0.0,0.0,0.0,0.0,0.0,0.0,0.0,0.0,6.9708,7.1329,7.203,7.3339,7.3514,0.0,0.0,0.0,0.0,0.0,0.0,7.846,7.9387,8.1272,8.4414,8.5312,8.6479,8.7975,9.0429,9.2165,9.3122,9.4289,9.5546,9.6773,9.5965,9.5965,9.6563,9.6414,9.5486,9.3691,8.8394,8.4953,8.2888,8.1601,8.0644,8.0135,8.0897,8.1506,8.2024,0.0,0.0,0.0,0.0,0.0,0.0,0.0,0.0,0.0,0.0,0.0,5.8915,6.0065,6.1659,6.3097,6.4221,6.4404,6.4404,6.4325,6.179,6.0274,6.0169,5.8601,5.8,5.8549,6.0771,6.2496,6.3672,6.707,6.9004,6.9631,7.2428,7.3735,7.3761,7.431,7.2323,6.8242,6.5005,6.3515,6.3123,5.983,0.0,0.0,0.0,0.0,0.0,0.0,0.0,0.0,0.0,0.0,0.0,0.0,0.0,0.0,0.0,0.0,0.0,0.0,0.0,0.0,0.0,0.0,0.0,0.0,0.0,0.0,0.0,0.0,0.0,0.0,0.0,0.0,0.0,0.0,0.0,0.0,0.0,0.0,7.3103,7.6175,0.0,0.0,0.0,0.0,7.7472,7.9896,8.1931,8.3307,8.4594,8.6539,8.9232,9.0549,9.2165,9.4139,9.6114,9.7132,9.7192,9.794,9.797,9.7461,9.8059,9.767,9.6653,9.785,9.7281,9.5217,9.1776,8.8783,8.6299,8.4983,8.4055,8.3576,8.4619,8.5319,8.5592,0.0,0.0,0.0,0.0,0.0,5.5099,5.5099,5.6066,5.6798,5.6798,5.8444,6.0195,6.1738,6.3437,6.5083,6.6625,6.7436,6.7227,6.5763,6.3646,6.1947,6.0849,5.8784,5.8627,6.0692,6.226,6.4534,6.754,7.0259,7.2088,7.3081,7.5225,7.6244,7.6244,7.6845,7.6087,7.4101,6.9501,6.6469,6.4534,6.1816,6.0169,0.0,0.0,0.0,0.0,0.0,0.0,0.0,0.0,0.0,0.0,0.0,0.0,0.0,0.0,0.0,0.0,0.0,0.0,0.0,0.0,0.0,0.0,0.0,0.0,0.0,0.0,0.0,0.0,0.0,0.0,0.0,0.0,0.0,0.0,0.0,0.0,0.0,7.7352,8.0823,0.0,7.9836,8.0614,8.1721,8.2798,8.4564,8.6898,8.992,9.0938,9.2823,9.5905,9.6862,9.788,9.9017,10.0513,10.1321,10.1321,10.1531,10.18,10.192,10.174,10.162,10.159,10.162,10.1022,9.9855,9.7371,9.4289,9.0997,8.9681,8.8753,8.8155,8.8136,8.8667,8.9349,0.0,0.0,0.0,0.0,0.0,5.5099,5.5099,5.6066,5.6798,5.6798,5.8967,6.1267,6.3201,6.5449,6.754,6.9291,6.9788,6.9344,6.7828,6.4639,6.2469,6.1738,5.9856,5.9803,6.1921,6.4247,6.7017,7.0259,7.2768,7.4597,7.58,7.7525,7.844,7.8649,7.9224,7.9172,7.8361,7.431,7.0494,6.6887,6.4012,6.2496,6.1633,0.0,0.0,0.0,0.0,0.0,0.0,0.0,0.0,0.0,0.0,0.0,0.0,0.0,0.0,0.0,0.0,0.0,0.0,0.0,0.0,0.0,0.0,0.0,0.0,0.0,0.0,0.0,0.0,0.0,0.0,0.0,0.0,0.0,0.0,7.7083,8.0464,8.1362,8.5551,8.7407,8.4983,8.594,8.7287,8.8604,9.013,9.2434,9.5725,9.6563,9.803,10.0423,10.1112,10.168,10.2099,10.3206,10.3715,10.3715,10.3715,10.3895,10.4074,10.3835,10.3715,10.3715,10.3506,10.2907,10.2069,10.0693,9.8359,9.5426,9.39,9.2883,9.2284,9.2075,9.2387,9.2956,0.0,0.0,0.0,0.0,0.0,5.5099,5.5099,5.6066,5.6824,5.685,5.9385,6.2077,6.4404,6.7749,7.0546,7.2271,7.1382,7.0677,7.0572,6.4665,6.1607,6.2679,6.1711,6.1476,6.2182,6.6599,6.9788,7.1592,7.4441,7.6427,7.7603,7.9302,8.04,8.0923,8.1576,8.1498,8.0792,7.9145,7.5512,7.0494,6.639,6.5005,6.5005,0.0,0.0,0.0,0.0,0.0,0.0,0.0,0.0,0.0,0.0,0.0,0.0,0.0,0.0,0.0,0.0,0.0,0.0,0.0,0.0,0.0,0.0,0.0,0.0,0.0,0.0,0.0,0.0,0.0,0.0,0.0,0.0,0.0,7.5048,8.0704,8.4863,8.5013,9.019,9.2494,8.9352,9.1357,9.3421,9.4798,9.6623,9.8538,10.0513,10.1261,10.189,10.2608,10.3206,10.3506,10.3506,10.4134,10.4493,10.4493,10.4493,10.4104,10.3535,10.4194,10.3805,10.2668,10.3206,10.2698,10.1561,10.1471,10.0693,9.9376,9.7431,9.6264,9.5755,9.6354,9.6378,9.6121,0.0,0.0,0.0,5.5099,5.5099,5.5099,5.5099,5.6066,5.6954,5.7373,6.0666,6.4168,6.7331,7.0755,7.3526,7.5277,7.3996,7.2167,7.0076,6.4796,6.1319,6.0352,6.1241,6.3384,6.6887,6.9422,7.2376,7.58,7.742,7.8806,7.9956,8.1289,8.1785,8.1576,8.3014,8.2857,8.1498,8.1027,7.9276,7.6349,7.1043,6.8011,6.6364,0.0,0.0,0.0,0.0,0.0,0.0,0.0,0.0,0.0,0.0,0.0,0.0,0.0,0.0,0.0,0.0,0.0,0.0,0.0,0.0,0.0,0.0,0.0,0.0,0.0,0.0,0.0,0.0,0.0,0.0,0.0,7.7143,8.0405,8.0554,8.4235,8.8125,9.1476,9.5007,9.7192,9.7252,9.8329,9.9586,10.0902,10.1501,10.2428,10.4014,10.4224,10.4613,10.5301,10.551,10.56,10.56,10.578,10.5899,10.5899,10.5899,10.578,10.56,10.581,10.569,10.5301,10.4493,10.3895,10.3476,10.2069,10.1261,10.0782,9.9286,9.8299,9.7611,9.6862,9.5933,9.5031,0.0,0.0,0.0,5.4733,5.4733,5.4811,5.5072,5.6066,5.7007,5.7651,6.1372,6.5266,6.8398,7.1722,7.4232,7.5774,7.3866,7.1461,6.8769,6.4665,6.1764,6.0509,6.328,6.6547,7.0206,7.2689,7.5329,7.8178,7.959,8.0714,8.1629,8.2543,8.2935,8.2883,8.3903,8.3641,8.2491,8.2491,8.1629,7.993,7.6087,7.316,7.0729,6.7174,6.6024,6.6103,6.456,6.4534,6.4979,6.3045,0.0,0.0,0.0,0.0,0.0,0.0,0.0,0.0,0.0,0.0,0.0,0.0,0.0,0.0,0.0,0.0,0.0,0.0,0.0,0.0,0.0,0.0,0.0,0.0,8.2499,8.6419,8.8634,9.0579,9.3212,9.7042,9.9825,10.183,10.2877,10.3296,10.3984,10.5002,10.4822,10.5241,10.6588,10.6139,10.6139,10.6797,10.6528,10.6408,10.6408,10.6707,10.6797,10.6797,10.6797,10.6797,10.6797,10.6528,10.6408,10.6318,10.5002,10.4403,10.4284,10.2578,10.1561,10.0962,0.0,0.0,0.0,0.0,9.5666,9.4947,0.0,0.0,5.4131,5.4184,5.421,5.4419,5.502,5.6066,5.7033,5.766,6.1711,6.5632,6.845,7.133,7.3526,7.4807,7.2193,6.9422,6.6861,6.4273,6.2783,6.2652,6.6887,7.0389,7.282,7.6009,7.8283,7.9564,8.1106,8.2204,8.2831,8.3406,8.3903,8.4347,8.4478,8.4164,8.3589,8.3641,8.304,8.1968,8.0792,7.8858,7.6192,7.1435,7.0807,7.214,6.9527,6.8037,6.7227,6.6364,0.0,0.0,0.0,0.0,0.0,0.0,0.0,0.0,0.0,0.0,0.0,0.0,0.0,0.0,0.0,0.0,0.0,0.0,0.0,0.0,0.0,0.0,0.0,0.0,8.8185,9.2314,9.7341,9.8329,9.9316,10.1561,10.4134,10.6019,10.6707,10.6797,10.7096,10.7695,10.7096,10.7216,10.8293,10.7186,0.0,0.0,0.0,10.6408,10.6408,10.7066,10.7396,10.7396,10.7396,10.7396,10.7366,10.6707,10.6408,10.6229,10.4912,10.4373,10.4194,10.2997,10.171,10.0393,9.9675,9.9346,9.8987,9.6593,9.5666,9.5426,0.0,5.3478,5.3687,5.4131,5.421,5.4419,5.502,5.6066,5.719,5.8209,6.1947,6.5632,6.845,7.1017,7.3108,7.4754,7.1827,6.8298,6.4587,6.3384,6.4012,6.6704,6.9919,7.316,7.6401,7.8021,7.9877,8.1968,8.2308,8.2988,8.4007,8.4582,8.4661,8.4373,8.5314,8.5157,8.4216,8.4661,8.4451,8.3746,8.2596,8.0191,7.7081,7.512,7.4101,7.3552,7.2533,7.2898,7.3526,7.1069,6.9945,6.9161,6.6704,6.5279,0.0,0.0,0.0,0.0,0.0,0.0,0.0,0.0,0.0,0.0,0.0,0.0,0.0,0.0,0.0,0.0,0.0,0.0,0.0,8.7287,9.2464,9.7281,10.0992,10.3326,10.4493,10.3895,10.6199,10.8084,10.8772,10.9311,10.961,10.973,10.9191,10.8682,10.8383,10.7605,10.7276,10.7396,10.6737,10.6408,10.6408,10.7066,10.7396,10.7396,10.7396,0.0,10.7366,10.6707,10.6109,10.554,10.4732,10.4104,10.3535,10.2787,10.171,10.0364,9.9167,9.8359,9.776,9.6743,9.6055,9.5486,0.0,5.34,5.3792,5.3792,5.4027,5.4497,5.536,5.6249,5.7216,5.8366,6.1529,6.443,6.6469,6.8246,6.9631,7.052,6.7671,6.4979,6.2966,6.4168,6.639,6.9553,7.3029,7.6087,7.8675,8.0165,8.1602,8.3066,8.3641,8.4216,8.4765,8.5366,8.5497,8.5236,8.5837,8.5601,8.4791,8.5053,8.487,8.4295,8.372,8.2439,8.0688,7.8649,7.7682,7.7368,7.6793,7.6767,7.6741,7.5016,7.3656,7.235,7.0337,6.9128,6.8276,0.0,0.0,0.0,0.0,0.0,0.0,0.0,0.0,0.0,0.0,0.0,0.0,0.0,0.0,7.8549,8.0883,0.0,8.8813,9.378,9.7641,10.1022,10.4014,10.6438,10.7515,10.6498,10.8114,10.961,11.0298,11.0627,11.0807,11.0807,10.9909,10.94,10.9371,10.8413,10.8054,10.8383,10.7396,10.6887,10.6887,10.7575,10.7874,10.7874,10.7874,10.7874,10.7874,10.6887,10.6229,10.5899,10.5211,10.4523,10.3805,10.2189,10.0902,9.9885,9.8897,9.791,9.6922,9.5965,9.5396,9.5007,0.0,5.3426,5.4053,5.3635,5.3922,5.4576,5.5726,5.6432,5.7216,5.8366,6.0849,6.2888,6.3933,6.4979,6.5528,6.5292,6.3541,6.2652,6.3123,6.6181,6.9448,7.2768,7.627,7.8936,8.0661,8.2073,8.3197,8.3981,8.4896,8.5419,8.5523,8.602,8.6177,8.6098,8.6098,8.5811,8.5366,8.5366,8.5026,8.4478,8.4373,8.4347,8.4059,8.1629,8.0975,8.1315,8.074,7.9564,7.8283,7.8048,7.6349,7.4269,7.3655,7.2983,7.2285,7.2064,7.3139,0.0,0.0,0.0,0.0,0.0,0.0,0.0,0.0,7.5467,7.6844,7.9088,8.1242,8.3965,8.8095,9.0668,9.402,9.9735,10.2099,10.4104,10.6498,10.8503,10.961,10.9191,11.0208,11.1106,11.1615,11.1705,11.1615,11.1495,11.0418,10.9909,11.0328,10.9191,10.8772,10.9191,10.7994,10.7306,10.7186,10.7874,10.8174,10.8174,10.8174,10.8174,10.8174,10.6977,10.6288,10.5989,10.5211,10.4493,10.3685,10.1411,10.0094,9.9406,9.8508,9.7491,9.6444,9.5396,9.4828,9.4528,0.0,5.3426,5.4184,5.4131,5.4158,5.4576,5.5726,5.6432,5.7216,5.8366,6.0143,6.1555,6.2182,6.2835,6.2809,6.179,6.3254,6.5109,6.7174,6.9579,7.3134,7.8074,7.972,8.1315,8.3066,8.3275,8.419,8.5811,8.5915,8.6229,8.6699,8.6778,8.6542,8.6098,8.6098,8.6046,8.5994,8.5994,8.5654,8.5053,8.4556,8.4347,8.4242,8.3406,8.3145,8.3118,8.2543,8.0609,7.8466,7.9407,7.7865,7.576,7.7413,7.6023,7.4126,7.6009,7.4107,7.1478,7.2442,7.2026,7.1846,7.3911,7.4121,7.5018,0.0,8.0913,8.1901,8.5073,8.7766,9.0219,9.2494,9.5516,9.8448,10.0962,10.3984,10.6498,10.7964,10.9879,11.1286,11.1794,11.2513,11.3021,11.3111,11.3111,11.2812,11.2213,11.1495,11.0897,11.0328,10.97,10.9011,10.8503,10.7785,10.7096,10.6498,10.7186,10.7485,10.7485,10.7485,10.7485,10.7485,10.6707,10.578,10.4583,10.3326,10.2398,10.1833,10.0872,10.0094,9.9316,9.7491,9.6713,9.6563,9.6414,9.5606,9.4588,0.0,5.3426,5.421,5.421,5.4497,5.5125,5.6249,5.6641,5.7216,5.8366,5.9437,6.0065,5.996,6.0169,5.9986,5.9176,6.1816,6.4665,6.7305,7.0886,7.4937,7.9459,8.1106,8.27,8.4425,8.4817,8.568,8.7091,8.7091,8.7196,8.7405,8.7065,8.6961,8.7039,8.6386,8.6255,8.6542,8.6229,8.5941,8.568,8.5445,8.5366,8.5262,8.4321,8.3145,8.1937,8.1942,8.0759,0.0,7.8497,7.8515,7.8447,7.7251,7.6652,7.6306,7.5689,7.4507,7.3452,7.3922,7.3941,7.4091,7.5198,7.6993,7.9357,8.2709,8.4684,8.6748,9.004,9.3122,9.5815,9.782,10.0214,10.2698,10.5091,10.6977,10.8712,11.0388,11.1016,11.1106,11.0687,11.0897,11.1495,11.2602,11.2393,11.2004,11.1705,11.1106,11.0418,10.9819,10.952,10.9101,10.8383,10.7695,10.7276,10.7007,10.7276,10.7396,10.7396,10.7396,10.7396,10.7366,10.6707,10.5899,10.4912,10.3206,10.2099,10.1381,10.0364,9.9526,9.8808,9.7581,9.6892,9.6473,9.5725,9.5097,9.4618,0.0,5.3295,5.4027,5.4184,5.4707,5.5491,5.6641,5.6798,5.7216,5.8366,5.8862,5.8967,5.8549,5.8523,5.834,5.7921,6.064,6.3698,6.6887,7.1147,7.5538,8.006,8.1942,8.3746,8.5628,8.6098,8.6804,8.7797,8.7797,8.7797,8.7797,8.7353,8.7274,8.751,8.6673,8.6438,8.6647,8.6255,8.5994,8.5837,8.5654,8.5601,8.5419,8.3589,8.1681,7.9992,8.0496,7.9369,7.7383,7.6444,7.7114,7.8067,7.6163,7.6276,7.6972,7.5697,7.5041,7.4818,7.4683,7.5258,7.6215,7.7472,8.0494,8.3816,8.6329,8.8813,9.1566,9.5037,9.767,10.0034,10.2398,10.3984,10.578,10.8263,10.9191,11.0119,11.1585,11.1196,11.0208,10.8712,10.8084,10.8383,10.9969,11.0358,11.0627,11.1016,11.0238,10.97,10.94,10.9191,10.8802,10.8084,10.7665,10.7306,10.7096,10.7096,10.7096,10.7096,10.7096,10.7007,10.6797,10.5989,10.5331,10.4792,10.2997,10.18,10.1082,9.9975,9.9107,9.8419,9.7371,9.6683,9.6114,9.4618,9.4289,9.4588,0.0,0.0,5.3583,5.4105,5.4707,5.5491,5.6641,5.6798,5.7216,5.8366,5.8523,5.8523,5.8523,5.8523,5.8497,5.8497,6.0143,6.2862,6.6834,7.0389,7.4885,8.0609,8.2517,8.453,8.6804,8.6856,8.717,8.7797,8.7797,8.7797,8.7797,8.7771,8.7457,8.6935,8.6882,8.6595,8.6124,8.6098,8.5758,8.5157,8.4608,8.4399,8.4007,8.0609,7.8597,7.766,7.8453,7.586,7.2123,7.2923,7.2946,7.2833,7.4619,7.5052,7.5311,7.7137,7.5896,7.3933,7.3941,7.4899,7.6963,8.1452,8.4594,8.7586,9.1476,9.393,9.6503,10.0393,10.1291,10.2368,10.569,10.6318,10.7007,10.9011,10.9909,11.0328,11.0388,10.9819,10.8712,10.6707,10.4792,10.3895,10.4583,10.6977,10.8982,11.0238,10.9191,10.8682,10.94,10.8772,10.8084,10.7455,10.7396,10.7096,10.6438,10.6408,10.6408,10.6408,10.6408,10.6109,10.5421,10.4134,10.3506,10.3416,10.2069,10.1082,10.0483,9.9795,9.9107,9.8329,9.6414,9.5636,9.5366,9.3391,9.3481,9.4528,0.0,0.0,0.0,0.0,0.0,5.536,5.6092,5.6536,5.7085,5.7843,5.8287,0.0,0.0,0.0,0.0,0.0,6.0117,6.2496,6.5737,6.9553,7.3421,7.729,8.0975,8.3641,8.5157,8.6699,8.7954,8.8921,8.8921,8.8712,8.832,8.7954,8.7693,8.7457,8.6699,8.6464,8.6595,8.6229,8.5732,8.5105,8.4164,8.3537,8.2909,8.0191,7.6793,7.3337,0.0,7.1552,7.029,6.9058,7.0435,7.2495,7.1288,7.2157,7.3386,7.2321,7.3522,7.5138,7.4659,7.84,8.3098,8.597,8.9352,9.2763,9.5845,9.8059,9.9855,10.1171,10.1082,10.0992,10.171,10.2518,10.3775,10.578,10.7725,10.9311,11.0208,10.9011,10.6827,10.3535,10.2189,10.1022,9.9915,10.2997,10.5989,10.8204,10.7994,10.7815,10.8084,10.7874,10.7396,10.6797,10.6707,10.6618,10.6408,10.6408,10.6408,10.6408,10.5929,10.5421,10.4702,10.3835,10.3206,10.2728,10.1381,10.0453,9.9795,9.9137,9.8448,9.77,9.6174,9.5606,9.5366,9.3332,9.3451,9.4499,0.0,0.0,0.0,0.0,0.0,0.0,0.0,0.0,0.0,0.0,0.0,0.0,0.0,0.0,0.0,0.0,0.0,6.1006,6.3698,6.6678,6.9814,7.3108,7.6532,7.9067,8.0609,8.189,8.3223,8.4582,8.4791,8.5105,8.5523,8.5392,8.5445,8.5628,8.5314,8.5236,8.534,8.5,8.4399,8.3458,8.1289,7.9956,7.8858,7.5512,7.1905,0.0,6.6419,6.6047,6.6457,6.5758,6.804,7.0831,6.8778,6.9708,7.1308,7.032,7.2984,7.6604,7.828,8.2828,8.7826,9.0758,9.396,9.6922,9.9077,10.0782,10.177,10.1471,10.0364,9.9226,9.8568,9.8568,9.9436,10.189,10.3715,10.557,10.7605,10.6199,10.3895,10.1112,9.9975,9.8897,9.7611,9.9795,10.2698,10.6079,10.6318,10.6618,10.7366,10.7186,10.6827,10.6408,10.6408,10.6408,10.6408,10.6199,10.5929,10.569,10.4792,10.4134,10.3685,10.2787,10.2189,10.171,10.0603,9.9885,9.9406,9.8299,9.7551,9.6982,9.5217,9.4528,9.4319,9.2554,9.2733,9.387,0.0,0.0,0.0,0.0,0.0,0.0,0.0,0.0,0.0,0.0,0.0,0.0,0.0,0.0,0.0,0.0,0.0,0.0,6.0849,6.2156,6.4534,6.8324,6.9814,7.1565,7.3735,7.3343,7.3944,7.5617,7.6192,7.7577,7.9694,8.0217,8.0766,8.1341,8.2387,8.2569,8.2047,8.2021,8.1341,7.9956,7.6113,7.3839,7.2245,6.7279,6.4613,6.3201,6.0431,5.996,6.0893,6.3079,6.5643,6.7864,6.7328,6.8076,6.9542,7.1547,7.454,7.846,8.4265,8.7915,9.1147,9.5606,9.8179,9.9945,10.1261,10.1979,10.2189,10.1351,9.8987,9.6862,9.6055,9.4528,9.4439,9.773,9.8538,9.9855,10.3117,10.189,10.0393,9.9675,9.8419,9.7581,9.7551,9.7551,9.9436,10.3984,10.4313,10.5181,10.7216,10.6707,10.6408,10.6408,10.6408,10.6408,10.6408,10.575,10.5032,10.4284,10.3087,10.2488,10.2368,10.1082,10.0483,10.0393,9.9765,9.9466,9.9256,9.7341,9.6533,9.6204,9.3601,9.2613,9.2464,9.1207,9.1536,9.2673,0.0,0.0,0.0,0.0,0.0,0.0,0.0,0.0,0.0,0.0,0.0,0.0,0.0,0.0,0.0,0.0,0.0,0.0,5.915,6.1476,6.3097,6.3698,6.7697,7.0206,7.0781,7.235,7.3578,7.4441,7.4597,7.4754,7.4911,7.5042,7.499,7.4702,7.4545,7.4388,7.4232,7.3839,7.3238,7.2376,7.0494,6.9291,6.8377,6.6207,6.3881,6.1685,6.0927,6.0412,6.0077,6.065,6.363,6.7337,6.8776,7.0111,7.1727,7.4689,7.8609,8.2828,8.6838,9.1626,9.6025,9.8209,9.9855,10.1171,10.2069,10.159,10.0274,9.7611,9.4199,9.0698,8.7586,8.9023,9.1596,9.4379,9.8568,10.2488,10.5241,10.4313,10.2787,10.1171,9.9795,9.8808,9.8299,9.8269,9.9586,10.2728,10.2997,10.4074,10.6498,10.6019,10.5899,10.6408,10.5929,10.5929,10.6408,10.575,10.4613,10.2997,10.2668,10.1979,10.0992,10.0663,10.0214,9.9735,9.9586,9.8927,9.794,9.6982,9.5995,9.4947,9.3272,9.2613,9.2554,9.2224,9.2314,9.2613,0.0,0.0,0.0,0.0,0.0,0.0,0.0,0.0,0.0,0.0,0.0,0.0,0.0,0.0,0.0,0.0,0.0,0.0,0.0,5.9803,6.064,6.0823,6.3358,6.49,6.5162,6.6181,6.7514,6.9108,6.8586,6.8978,7.0128,6.9605,6.9318,6.9265,6.9448,6.9527,6.9501,6.9213,6.8586,0.0,0.0,6.4064,6.3201,6.2051,6.0614,5.9307,5.9803,6.0011,6.0205,6.1858,6.5152,6.8943,7.1237,7.3516,7.6125,8.0045,8.3636,8.7257,9.1416,9.5845,9.9496,10.0573,10.1381,10.1561,10.0184,9.8867,9.6653,9.2165,8.8783,8.5492,8.1811,8.4145,8.7407,8.9741,9.5127,10.0274,10.3775,10.3865,10.3386,10.2787,10.183,10.0812,9.9915,9.9556,10.0214,10.2309,10.2997,10.4224,10.6318,10.6318,10.6318,10.6408,10.575,10.5331,10.5091,10.4732,10.3715,10.2069,10.177,10.1082,10.0064,9.9765,9.9256,9.8628,9.8927,9.8149,9.6623,9.5965,9.4917,9.3601,9.2254,9.1746,9.1776,9.2075,9.1985,9.1776,0.0,0.0,0.0,0.0,0.0,0.0,0.0,0.0,0.0,0.0,5.8104,5.8444,0.0,0.0,0.0,0.0,0.0,0.0,0.0,0.0,5.841,5.9405,5.8889,5.8862,5.9359,5.8732,5.9673,6.226,6.111,6.213,6.5109,6.4012,6.3776,6.4299,6.524,6.5658,6.5658,6.558,6.4953,6.375,6.0744,5.8941,5.7974,0.0,5.6798,5.6954,5.8104,5.915,6.0624,6.453,6.8232,7.1776,7.4531,7.8005,8.1991,8.6449,8.9112,9.1656,9.6563,9.9735,10.18,10.2368,10.2368,10.1201,9.7341,9.5067,9.2135,8.615,8.3337,8.0973,7.7622,7.9956,8.3187,8.5701,9.0968,9.6473,10.1471,10.2578,10.3296,10.4523,10.4014,10.3087,10.186,10.1171,10.1291,10.2518,10.3715,10.4912,10.6109,10.6707,10.6677,10.5899,10.5421,10.4553,10.3296,10.3296,10.2698,10.1471,10.0782,10.0124,9.9496,9.8837,9.8149,9.7521,9.8119,9.7281,9.5426,9.4738,9.3691,9.2344,9.1117,9.0698,9.0848,9.1506,9.1386,9.0968,0.0,0.0,0.0,0.0,0.0,0.0,0.0,0.0,0.0,0.0,5.7808,5.8157,0.0,0.0,0.0,0.0,0.0,0.0,0.0,0.0,0.0,5.9359,5.9281,5.9255,5.9359,5.834,5.8287,5.9255,5.8104,5.8104,5.9222,5.847,5.8209,5.8287,5.8,5.7843,5.7817,5.7373,5.7085,5.6824,5.6223,5.5883,5.5778,5.6536,0.0,0.0,5.8104,5.8653,5.9516,6.4531,6.9584,7.4478,7.9127,8.3978,8.8663,9.2194,9.4259,9.6055,9.9137,10.1112,10.2368,10.2488,10.168,9.9945,9.6533,9.2613,8.8035,8.208,7.9238,7.6844,7.3522,7.6963,8.205,8.7317,9.2254,9.779,10.4613,10.5211,10.5211,10.5989,10.5002,10.3924,10.3117,10.2518,10.2488,10.3206,10.3984,10.4493,10.4702,10.4882,10.4403,10.3206,10.3535,10.3416,10.2698,10.2668,10.2279,10.1471,10.0782,10.0124,9.9496,9.8837,9.8149,9.7491,9.7611,9.6563,9.4738,9.405,9.2972,9.1716,9.0938,9.0968,9.1536,9.2194,9.2344,9.2135,0.0,0.0,0.0,0.0,0.0,0.0,0.0,5.7137,5.7974,5.8889,5.8993,5.9098,5.9333,5.8862,5.8862,0.0,0.0,0.0,0.0,0.0,0.0,5.9803,5.9516,5.9359,5.9359,5.8549,5.8523,5.9411,0.0,5.7686,5.8594,5.7346,5.6798,5.6771,5.617,5.5909,5.5883,5.5334,5.5099,5.5099,5.5099,5.5282,5.5621,5.6484,0.0,0.0,5.8314,5.8889,5.996,6.3672,6.9399,7.5922,8.2227,8.8356,9.384,9.6803,9.8359,9.9615,10.189,10.3296,10.3924,10.3595,10.1471,9.8059,9.2703,8.7915,8.2798,7.6485,7.4689,7.3462,7.0859,7.5557,8.0764,8.3606,8.8245,9.4139,10.171,10.2219,10.3117,10.6498,10.572,10.4702,10.4014,10.3087,10.2608,10.2907,10.3506,10.4014,10.4403,10.4403,10.3984,10.2997,10.3236,10.2937,10.1979,10.2309,10.1979,10.0962,10.0663,9.9975,9.8987,9.8658,9.8149,9.7491,9.7491,9.6204,9.405,9.3721,9.2613,9.1117,9.1147,9.1327,9.1746,9.2733,9.2673,9.2045,0.0,0.0,0.0,0.0,0.0,0.0,5.7712,5.8018,5.8653,6.0378,6.0692,6.0509,5.983,5.9228,5.9072,0.0,0.0,0.0,0.0,0.0,0.0,0.0,0.0,0.0,5.9359,0.0,0.0,5.9856,5.8261,0.0,0.0,0.0,0.0,0.0,5.6301,5.604,5.5883,5.5465,5.5282,0.0,0.0,5.5595,5.617,0.0,0.0,0.0,0.0,5.9098,6.0248,6.2809,6.8306,7.5295,8.1864,8.9576,9.6537,9.8413,10.0177,10.2069,10.3715,10.4702,10.5091,10.4523,10.1112,9.6114,8.9262,8.3786,7.837,7.2026,7.1009,7.0799,6.9273,7.3881,7.834,7.9597,8.3547,8.9382,9.788,9.8867,10.0812,10.6318,10.6019,10.5121,10.4284,10.3176,10.2488,10.2488,10.2937,10.3595,10.4373,10.4104,10.3685,10.2997,10.2997,10.2398,10.1261,10.195,10.177,10.0693,10.0573,9.9855,9.8718,9.8448,9.794,9.7281,9.7012,9.5546,9.3361,9.3212,9.2254,9.0908,9.1416,9.1805,9.2165,9.3212,9.2913,9.2105,0.0,0.0,0.0,0.0,0.0,0.0,5.8183,5.8862,5.983,6.1581,6.226,6.2182,6.1084,6.0431,6.0091,0.0,0.0,0.0,0.0,0.0,0.0,0.0,0.0,0.0,0.0,0.0,0.0,5.8679,5.7477,0.0,0.0,0.0,0.0,0.0,0.0,5.6432,5.5909,5.5857,0.0,0.0,0.0,0.0,0.0,0.0,0.0,0.0,0.0,5.8575,5.9176,6.2548,6.6487,7.0689,7.5076,8.4976,9.4752,9.4029,9.7891,10.2578,10.3296,10.4014,10.4493,10.4403,10.0094,9.4439,8.8963,8.2709,7.6544,7.1188,6.9632,6.9213,6.9034,7.05,7.3492,7.8938,8.1242,8.591,9.6234,9.8688,10.0932,10.5121,10.551,10.4912,10.3625,10.2907,10.2488,10.2488,10.2578,10.3117,10.4313,10.3296,10.2368,10.168,10.165,10.1291,10.0573,10.1261,10.1471,10.1381,10.0782,10.0094,9.9376,9.8149,9.7252,9.6593,9.5396,9.405,9.2643,9.2045,9.1686,9.1536,9.1596,9.2344,9.3421,9.3541,9.3511,9.3332,0.0,0.0,0.0,0.0,0.0,0.0,5.8235,5.8706,5.9725,6.2156,6.328,6.3541,6.2757,6.2443,6.1738,6.0326,0.0,0.0,0.0,0.0,0.0,0.0,0.0,0.0,0.0,0.0,5.8287,5.8523,5.8052,0.0,0.0,0.0,0.0,0.0,0.0,5.719,5.6928,5.6588,0.0,0.0,0.0,0.0,0.0,0.0,0.0,0.0,0.0,0.0,5.8732,6.0117,6.2993,6.6066,6.6626,7.4108,8.4018,9.0691,9.5213,9.9075,10.337,10.5121,10.551,10.5121,9.9645,9.3092,8.8215,8.1063,7.43,7.0231,6.9183,6.8884,6.8465,7.0081,7.2415,7.5198,7.6096,7.9297,8.7467,8.9082,9.2075,9.9256,10.0423,10.1411,10.3236,10.2877,10.2488,10.2488,10.2099,10.2279,10.3206,10.2787,10.2189,10.1501,10.189,10.177,10.1082,10.1444,10.1261,10.0872,9.9795,9.8957,9.8269,9.7341,9.6593,9.5935,9.5007,9.384,9.2554,9.1895,9.1626,9.1626,9.1626,9.2194,9.3002,9.3002,9.3002,9.2883,0.0,0.0,0.0,0.0,0.0,5.651,5.8235,5.8653,5.962,6.1999,6.3332,6.3881,6.3463,6.328,6.26,6.111,6.0901,0.0,0.0,0.0,0.0,0.0,0.0,0.0,0.0,0.0,5.8523,5.8523,5.8523,5.8523,0.0,0.0,5.8523,5.8497,0.0,0.0,0.0,0.0,0.0,0.0,0.0,0.0,0.0,0.0,0.0,0.0,0.0,0.0,0.0,0.0,0.0,6.2182,6.098,6.5565,7.3471,8.4355,9.0723,9.5431,10.143,10.4134,10.5211,10.4912,9.8867,9.1835,8.7437,7.9926,7.3013,6.9931,6.8824,6.8315,6.8016,6.9482,7.1009,7.1906,7.2535,7.5138,8.1572,8.2798,8.597,9.387,9.5037,9.6803,10.0992,10.2069,10.2398,10.2189,10.177,10.1501,10.159,10.18,10.168,10.1201,10.168,10.159,10.0872,10.1082,10.0753,9.9885,9.8957,9.8059,9.7192,9.6563,9.5935,9.5247,9.4379,9.3361,9.2284,9.1805,9.1746,9.1925,9.1925,9.2314,9.2853,9.2673,9.2464,9.2254,0.0,0.0,0.0,0.0,0.0,5.651,5.8235,5.8993,5.9777,6.098,6.213,6.2835,6.2835,6.2339,6.2208,6.2757,6.1215,0.0,0.0,0.0,0.0,0.0,0.0,0.0,0.0,0.0,5.8523,5.8523,5.8523,5.8523,5.8523,5.8523,5.8523,5.8523,0.0,0.0,0.0,0.0,0.0,0.0,0.0,0.0,5.8497,0.0,0.0,0.0,0.0,0.0,0.0,0.0,0.0,0.0,0.0,6.1255,6.5082,7.3845,8.3587,9.2554,9.6503,10.0004,10.2698,10.3296,9.7491,9.0608,8.6599,7.9567,7.3163,7.05,6.8405,6.7208,6.7837,6.7986,6.8465,6.9782,7.1637,7.4988,8.0943,8.2918,8.5462,9.013,9.013,9.1566,9.6204,10.0184,10.2189,10.1653,10.1471,10.0902,9.9615,10.0184,10.0483,10.0483,10.0483,10.0184,9.9526,10.0184,9.9825,9.8538,9.8538,9.785,9.6563,9.5905,9.5247,9.4558,9.3212,9.2254,9.1626,9.1626,9.2015,9.2583,9.2583,9.3002,9.3481,9.2853,9.2194,9.1626,0.0,0.0,0.0,0.0,0.0,0.0,5.6588,5.7242,5.8183,5.9725,6.0588,6.1502,6.2705,6.2313,6.2208,6.2783,6.1607,0.0,0.0,0.0,0.0,0.0,0.0,0.0,0.0,5.8523,5.8523,5.8523,5.8915,5.8889,5.8523,5.8915,5.8889,5.8523,5.8915,5.8784,0.0,0.0,0.0,0.0,0.0,5.8523,5.8523,0.0,0.0,0.0,0.0,0.0,0.0,0.0,0.0,0.0,0.0,0.0,0.0,6.9228,7.6525,8.4403,8.9464,9.2883,9.4798,9.3631,9.01,8.6,8.2469,7.7293,7.2475,6.9842,6.8794,6.8286,6.8016,6.8734,6.9931,7.1697,7.2505,7.3881,7.6664,8.0524,8.4444,8.8185,9.4439,9.9017,10.0483,10.1351,10.168,10.1471,10.0663,9.9945,9.9526,9.9286,9.9346,9.9795,10.0274,10.0393,10.0184,9.9496,9.8927,9.8508,9.7162,9.6055,9.5217,9.4528,9.3631,9.2554,9.2105,9.1566,9.0938,9.0938,9.1596,9.2524,9.1596,9.1925,9.2763,9.1656,9.1117,9.0818,0.0,0.0,0.0,0.0,0.0,0.0,5.5543,5.6275,5.7111,5.7948,5.8941,6.0169,6.1685,6.1529,6.1711,6.2731,6.1581,0.0,0.0,0.0,0.0,0.0,0.0,0.0,5.8523,5.8523,5.8732,5.915,5.9751,5.996,5.983,6.0405,6.0117,5.9176,5.9777,5.9464,0.0,0.0,0.0,0.0,5.8758,5.8706,5.8523,0.0,0.0,0.0,0.0,0.0,0.0,0.0,0.0,0.0,0.0,0.0,0.0,0.0,7.1433,7.724,8.3436,8.7377,8.9531,8.8544,8.594,8.2798,7.9746,7.5467,7.1547,6.9423,6.8585,6.8196,6.8016,6.8645,6.9632,7.0859,7.1667,7.2804,7.4629,7.8789,8.3158,8.7227,9.4917,9.9885,9.9885,10.0872,10.1381,10.1082,10.0094,9.9406,9.9137,9.8748,9.8718,9.9137,9.9526,9.9735,9.9735,9.8688,9.788,9.7401,9.6174,9.4977,9.384,9.3661,9.2853,9.1626,9.1626,9.1237,0.0,9.1177,9.1716,9.2165,9.1596,9.1716,9.2105,9.1027,9.0489,9.016,0.0,0.0,0.0,0.0,0.0,0.0,0.0,5.6013,5.651,5.604,5.7346,5.8784,5.996,6.0143,6.0823,6.2496,6.1163,0.0,0.0,0.0,0.0,0.0,0.0,0.0,5.8523,5.8523,5.9045,6.0169,6.0797,6.1398,6.1921,6.2548,6.1921,6.03,6.0901,6.0222,5.8653,5.9124,0.0,0.0,5.9098,5.8993,0.0,0.0,0.0,0.0,0.0,0.0,0.0,0.0,0.0,0.0,0.0,0.0,0.0,0.0,0.0,0.0,0.0,8.2739,8.5761,8.6299,8.3756,8.0405,7.7831,7.3941,0.0,6.9243,6.7956,6.7268,6.7926,6.8016,6.8016,6.8166,6.9752,7.1876,7.445,7.8071,8.2409,8.7706,9.2913,9.6025,9.5815,9.9197,10.1234,10.0483,9.9795,9.9167,9.8568,9.8538,9.8508,9.8448,9.8448,9.8448,9.8448,9.767,9.6683,9.5516,9.5426,9.4379,9.2554,9.3152,9.2733,9.1536,9.1536,9.1237,9.0788,9.1985,9.2165,9.1746,9.2254,9.2075,9.1476,9.0848,9.019,8.9621,0.0,0.0,0.0,0.0,0.0,0.0,0.0,0.0,0.0,0.0,5.6562,5.7137,5.8732,5.9307,5.9908,0.0,0.0,0.0,0.0,0.0,0.0,0.0,0.0,0.0,5.8523,5.8523,5.8862,5.9568,6.0614,6.1189,6.1346,6.2365,6.2156,6.0927,6.1502,6.1032,5.9777,5.9019,0.0,0.0,5.8653,5.8627,0.0,0.0,0.0,0.0,5.8523,5.8523,0.0,0.0,0.0,0.0,0.0,0.0,0.0,0.0,6.7647,6.8914,7.1158,0.0,7.5168,7.436,7.418,7.3791,0.0,7.0949,6.9931,6.9153,6.8315,6.7956,6.8645,6.8315,6.8465,6.9961,7.1038,7.2235,7.3881,8.1332,8.8574,9.387,9.8269,10.0094,9.803,9.9586,10.0483,9.9795,9.9137,9.8688,9.8538,9.8538,9.8269,9.776,9.773,9.773,9.773,9.6114,9.5127,9.4828,9.381,9.2793,9.1865,9.2015,9.1626,9.0878,9.0878,9.1057,9.1386,9.1177,9.1596,9.2284,9.1446,9.0997,9.0848,9.0698,8.992,8.8993,0.0,0.0,0.0,0.0,0.0,0.0,0.0,0.0,0.0,0.0,5.6745,5.7085,5.8026,5.9098,5.9882,0.0,0.0,0.0,0.0,0.0,0.0,0.0,5.8523,5.8523,5.8523,5.8523,5.9072,6.0169,6.1084,6.1921,6.2705,6.3332,6.2992,6.1894,6.1398,6.0823,6.0169,5.9568,5.8993,5.8523,5.881,0.0,0.0,0.0,0.0,0.0,5.8523,5.8523,0.0,5.9124,6.1252,6.3683,0.0,0.0,0.0,0.0,6.7238,6.7597,6.7986,6.9931,7.1787,7.1427,7.1607,7.1637,7.062,6.9692,6.8854,6.8196,6.7777,6.7627,6.8016,6.7777,6.8076,6.9752,7.059,7.2654,7.7322,8.3876,9.0429,9.6294,9.8897,10.0094,9.9885,9.9975,9.9885,9.9526,9.8897,9.8389,9.8059,9.8059,9.776,9.7102,9.6773,9.6773,9.7072,9.5426,9.4439,9.4139,9.3092,9.2105,9.1177,9.1476,9.1267,9.0638,9.0638,9.0848,9.1177,9.1117,9.1147,9.1207,9.0788,9.0459,9.019,9.019,8.9741,8.9232,0.0,0.0,0.0,0.0,0.0,0.0,0.0,0.0,0.0,0.0,0.0,0.0,0.0,0.0,0.0,0.0,0.0,0.0,0.0,0.0,0.0,5.8523,5.8523,5.8523,5.8523,5.8601,5.9411,6.098,6.1816,6.3071,6.4665,6.4848,6.4273,6.3018,6.1346,6.0483,6.0222,6.0117,5.949,5.8549,5.9045,0.0,0.0,0.0,0.0,0.0,0.0,0.0,0.0,5.9837,6.2069,6.4387,6.4522,0.0,0.0,0.0,0.0,0.0,6.7358,6.9602,7.1906,7.1996,7.1876,7.1517,7.0649,6.9333,6.8106,6.7418,6.7208,6.7208,6.7418,6.7448,6.7897,6.9213,7.041,7.4151,8.2619,8.6419,9.0519,9.6503,9.7641,9.8688,10.0543,9.9975,9.9466,9.9376,9.8748,9.8119,9.7521,9.7401,9.7072,9.6444,9.5785,9.5666,9.6114,9.4917,9.396,9.3272,9.2613,9.1716,9.0668,9.1207,9.1177,9.0638,9.0638,9.0698,9.0818,9.1267,9.0818,8.986,9.0309,9.004,8.9382,8.9471,8.9441,8.9471,0.0,0.0,0.0,0.0,0.0,0.0,0.0,0.0,0.0,0.0,0.0,0.0,0.0,0.0,0.0,0.0,0.0,0.0,0.0,0.0,0.0,5.8523,5.8523,5.8523,5.8523,5.8993,5.962,6.0352,6.2417,6.4038,6.5266,6.6233,6.5841,6.4221,6.2966,6.1607,6.0195,5.9699,5.9124,5.8523,5.8601,0.0,0.0,0.0,0.0,0.0,0.0,0.0,0.0,6.0103,6.1643,6.332,6.4461,0.0,0.0,0.0,0.0,0.0,6.9064,7.0679,7.1248,6.8555,6.9482,7.059,6.8824,6.9064,6.9482,6.8824,6.8226,6.8166,6.9303,6.9512,6.9931,7.1248,7.436,7.9417,8.7467,9.001,9.2224,9.5486,9.8329,9.9316,9.7491,9.8628,9.9256,9.8718,9.803,9.7611,9.7491,9.7012,9.6414,9.5755,9.5097,9.4528,9.405,9.3272,9.2583,9.1925,9.1267,9.0848,9.0638,9.0758,9.0728,9.0638,9.0638,9.0968,9.1446,9.0968,9.0668,9.0429,8.998,8.9082,8.8065,8.8634,8.8484,8.8185,0.0,0.0,0.0,0.0,0.0,0.0,0.0,0.0,0.0,0.0,0.0,0.0,0.0,0.0,0.0,0.0,0.0,0.0,0.0,5.9359,5.9385,5.9437,5.9437,5.9281,5.8967,5.9542,6.0561,6.2077,6.4116,6.5841,6.7253,6.6834,6.5737,6.4012,6.2548,6.1293,6.0195,5.9594,5.9045,5.8523,0.0,0.0,0.0,0.0,0.0,0.0,0.0,0.0,0.0,0.0,6.3082,6.5048,6.5636,0.0,0.0,0.0,0.0,0.0,6.8106,6.9333,7.0051,6.8884,7.032,7.1577,6.9931,6.9512,6.9453,6.9482,6.9273,6.9363,7.029,7.1667,7.3642,7.6724,8.0255,8.4145,8.8514,9.0279,9.2344,9.5725,9.7132,9.791,9.8149,9.8658,9.8688,9.803,9.767,9.7192,9.6503,9.6204,9.5576,9.4528,9.4199,9.3571,9.2524,9.2224,9.1925,9.1596,9.0968,9.0638,9.0638,9.0638,9.0638,9.0638,9.0638,9.0608,9.0549,9.0249,8.9681,8.9023,8.8723,8.8454,8.8364,8.9382,8.9561,8.9382,0.0,0.0,0.0,0.0,0.0,0.0,0.0,0.0,0.0,0.0,0.0,0.0,0.0,0.0,0.0,0.0,0.0,0.0,0.0,5.949,5.9751,6.0195,6.0483,6.0431,5.9986,6.0797,6.2234,6.4299,6.6442,6.8298,6.9814,6.7958,6.6076,6.4221,6.2339,6.0953,5.9986,5.9542,5.9045,5.8523,0.0,0.0,0.0,0.0,0.0,0.0,0.0,0.0,0.0,0.0,0.0,0.0,0.0,0.0,0.0,6.7537,6.7208,6.7328,6.7777,6.8555,6.9393,7.0021,7.1338,7.2385,7.2146,7.1188,7.059,7.1368,7.1457,7.1427,7.1577,7.4031,7.7502,8.1961,8.5492,8.8274,9.004,9.1297,9.3272,9.6623,9.6593,9.7012,9.8837,9.8568,9.8,9.7341,9.7132,9.6623,9.5636,9.5456,9.4828,9.3631,9.3421,9.2793,9.1626,9.1626,9.1536,9.1386,9.0878,9.0638,9.0638,9.0638,9.0638,9.0638,9.0638,9.0279,8.9681,8.9681,8.8903,8.7736,8.7885,8.8245,8.8813,8.998,9.0399,9.0429,0.0,0.0,0.0,0.0,0.0,0.0,0.0,0.0,0.0,0.0,0.0,0.0,0.0,0.0,0.0,0.0,0.0,0.0,0.0,5.9856,6.0169,6.0222,6.1267,6.1816,6.179,6.3384,6.4822,6.6103,6.9422,7.1644,7.2742,7.0494,6.8246,6.5998,6.3724,6.1476,5.9437,5.9457,5.9045,5.8523,5.8523,0.0,0.0,0.0,0.0,0.0,0.0,0.0,0.0,0.0,0.0,0.0,0.0,0.0,6.8016,6.7926,6.7897,6.8286,7.0141,7.026,7.0051,7.0679,7.0949,7.1846,7.4869,7.4988,7.4809,7.6066,7.5886,7.5108,7.3911,7.6844,8.0764,8.4773,8.8185,9.1476,9.4648,9.5695,9.6713,9.8209,9.8329,9.8119,9.767,9.7611,9.7311,9.6683,9.6084,9.5695,9.5606,9.5007,9.4349,9.3601,9.3002,9.2344,9.1626,9.1626,9.1327,9.0698,9.0668,9.0638,9.0638,9.0638,9.0638,9.0638,9.0638,9.0279,8.9681,8.9681,8.8903,8.7766,8.8394,8.8634,8.8783,8.9471,8.9741,8.983,0.0,0.0,0.0,0.0,0.0,0.0,0.0,0.0,0.0,0.0,0.0,0.0,0.0,0.0,0.0,0.0,0.0,0.0,5.9359,5.9908,6.0535,6.1267,6.2077,6.2679,6.3018,6.5083,6.741,7.0023,7.2742,7.3735,7.3055,7.0389,6.7566,6.456,6.2234,6.0718,5.9856,5.915,5.8915,5.9019,5.8653,5.8664,0.0,0.0,0.0,0.0,0.0,0.0,0.0,0.0,6.48,6.6915,6.7264,6.7926,6.8615,6.8615,6.8016,6.7597,6.8764,6.8914,6.9093,7.053,7.0889,7.1667,7.4599,7.6006,7.7203,7.8938,7.9776,8.0016,7.9507,8.1631,8.4384,8.7107,9.1027,9.4139,9.5426,9.6473,9.7192,9.7311,9.7311,9.7192,9.6952,9.6922,9.6653,9.6025,9.5725,9.5426,9.5007,9.4349,9.3661,9.3002,9.2733,9.2284,9.1626,9.1626,9.1506,9.1237,9.1237,9.1027,9.0638,9.0219,9.004,9.001,8.9591,8.9292,8.9052,8.9052,8.8753,8.8394,8.9052,8.9292,8.9382,9.004,9.0279,9.0249,0.0,0.0,0.0,0.0,0.0,0.0,0.0,0.0,0.0,0.0,0.0,0.0,0.0,0.0,0.0,0.0,0.0,0.0,5.9647,6.0169,6.0953,6.1921,6.2522,6.3358,6.4482,6.6939,6.9579,7.2297,7.5329,7.5538,7.3055,7.0572,6.7723,6.4639,6.2156,6.1032,6.0953,5.962,5.9176,5.9307,5.8732,5.8664,0.0,0.0,0.0,0.0,0.0,0.0,0.0,0.0,6.5537,6.7657,6.7627,6.8256,6.9004,6.9004,6.8196,6.7358,6.7597,6.7358,6.7508,6.9482,7.044,7.1936,7.5856,7.7801,7.9686,8.2918,8.3158,8.2828,8.3038,8.4175,8.5791,8.8005,9.2434,9.5666,9.5875,9.6833,9.7341,9.6922,9.6683,9.6503,9.6264,9.6264,9.5995,9.5336,9.5067,9.4768,9.4319,9.3631,9.2972,9.2314,9.2075,9.1656,9.0997,9.1207,9.1087,9.0698,9.1117,9.0968,9.0309,8.986,8.9561,8.9352,8.9112,8.8873,8.8693,8.8693,8.8693,8.8693,8.8963,8.9292,8.9681,8.992,9.001,8.995,0.0,0.0,0.0,0.0,0.0,0.0,0.0,0.0,0.0,0.0,0.0,0.0,0.0,0.0,0.0,0.0,0.0,0.0,6.0222,6.0771,6.1372,6.1947,6.2522,6.3907,6.6181,6.9082,7.1147,7.2323,7.6898,7.7028,7.3029,7.1356,6.9318,6.6913,6.4116,6.2835,6.2705,6.098,5.9908,5.9333,5.8758,5.8523,5.8549,0.0,0.0,0.0,0.0,0.0,0.0,0.0,6.6416,6.7238,6.8585,6.9004,6.9004,6.9004,6.8525,6.7837,6.7178,6.6041,6.5533,6.7508,6.9482,7.2684,7.9327,8.0823,8.2499,8.8454,8.603,8.3008,8.3666,8.3786,8.4654,8.7287,9.2135,9.5785,9.6473,9.7072,9.7461,9.7461,9.6922,9.6294,9.5636,9.5576,9.5306,9.4648,9.396,9.3571,9.3571,9.2943,9.2284,9.1626,9.0968,9.0309,8.9681,9.0309,8.998,8.8723,9.001,9.0279,8.9651,8.9651,8.9292,8.8723,8.9352,8.9262,8.8663,8.8663,8.8663,8.8604,8.7975,8.8514,8.9591,8.8933,8.8693,8.8693,0.0,0.0,0.0,0.0,0.0,0.0,0.0,0.0,0.0,0.0,0.0,0.0,0.0,0.0,0.0,0.0,0.0,0.0,6.0195,6.0378,6.0744,6.1346,6.2313,6.2966,6.3254,6.6442,6.9893,7.35,7.4859,7.3264,6.8873,6.8795,6.7096,6.4116,6.4456,6.3959,6.2757,6.1842,6.1581,6.1685,6.0274,6.025,6.0948,0.0,0.0,0.0,0.0,0.0,0.0,0.0,0.0,0.0,6.8315,6.9243,7.026,6.9812,6.9213,6.8435,6.7298,6.67,6.6879,6.8884,7.1936,7.5916,8.1572,8.2858,8.4414,8.992,8.9202,8.7407,8.6659,8.6898,8.7467,8.8274,9.1656,9.4409,9.5097,9.5755,9.5995,9.5516,9.5306,9.5127,9.4917,9.4469,9.411,9.39,9.3272,9.3092,9.3541,9.2075,9.1327,9.1596,9.0549,8.986,8.9681,8.986,8.998,9.007,8.998,8.9621,8.8993,8.8993,8.8604,8.7975,8.7706,8.7736,8.8005,8.8005,8.8005,8.7975,8.7796,8.8215,8.8963,8.8753,8.8693,8.8634,0.0,0.0,0.0,0.0,0.0,0.0,0.0,0.0,0.0,0.0,5.9777,5.962,0.0,0.0,0.0,0.0,0.0,0.0,6.0195,6.0431,6.0744,6.111,6.1999,6.2757,6.3306,6.6024,6.8481,7.0572,7.2193,7.0834,6.6808,6.8533,6.7985,6.5632,6.7357,6.7044,6.5162,6.4351,6.3618,6.2959,6.1909,6.1996,6.2577,0.0,0.0,0.0,0.0,0.0,0.0,0.0,0.0,0.0,6.8016,6.8794,6.9662,6.9303,6.8704,6.8016,6.7208,6.6999,6.7717,7.0769,7.3911,7.7771,8.3576,8.6329,8.8634,9.2105,9.1327,8.9801,8.9023,8.8544,8.8544,8.9322,9.1566,9.3601,9.4828,9.4888,9.4828,9.4977,9.4289,9.39,9.4169,9.3601,9.3182,9.3182,9.2583,9.2254,9.2404,9.1027,9.0309,9.0459,8.9441,8.8903,8.8903,8.8903,8.8933,8.9052,8.8663,8.8125,8.7526,8.8604,8.8424,8.7257,8.6868,8.6928,8.7317,8.7586,8.7706,8.7676,8.7407,8.7526,8.7856,8.7586,8.7496,8.7437,0.0,0.0,5.8444,5.8497,0.0,0.0,0.0,0.0,0.0,0.0,5.9856,5.9934,0.0,0.0,0.0,0.0,0.0,0.0,0.0,6.0823,6.111,6.111,6.1711,6.3045,6.5188,6.673,6.673,6.5162,6.903,6.9239,6.605,6.9527,7.0572,6.9631,7.1487,7.099,6.869,6.7514,6.5818,6.3823,6.3876,6.3925,6.4017,6.3404,0.0,0.0,0.0,0.0,0.0,0.0,0.0,0.0,6.7839,6.8078,6.8108,6.8048,6.7597,6.7148,6.7089,6.7208,6.8435,7.2954,7.5916,7.9387,8.5671,9.0429,9.3661,9.4229,9.2554,9.0968,9.0848,8.9322,8.8634,9.0429,9.1716,9.3182,9.5067,9.4259,9.393,9.5187,9.3721,9.2823,9.3421,9.2883,9.2494,9.2434,9.1805,9.1177,9.0579,8.989,8.9232,8.8693,8.7915,8.7556,8.7616,8.7556,8.7227,8.6689,8.6689,8.6359,8.5851,8.8215,8.8304,8.6569,8.6509,8.6509,8.6539,8.7167,8.7437,8.7377,8.6748,8.6509,8.6419,8.5821,8.5611,8.5611,0.0,0.0,5.7974,5.8444,0.0,0.0,0.0,0.0,0.0,0.0,5.9751,0.0,0.0,5.9359,0.0,0.0,0.0,0.0,0.0,6.1058,6.111,6.111,6.2104,6.3071,6.4012,6.3959,6.375,6.3384,6.6076,6.6076,6.3646,6.7566,6.903,6.8481,7.1121,7.0953,6.8527,6.7101,6.6417,6.6247,6.6563,6.7414,6.8471,6.7989,6.8176,0.0,0.0,0.0,0.0,0.0,0.0,0.0,6.8421,6.8689,6.8928,6.826,6.8256,6.8465,6.7897,6.8884,7.0919,7.4569,8.0045,8.5611,8.9621,9.1716,9.2703,9.2344,9.3062,9.3421,9.2374,9.1416,9.0908,9.1327,9.1656,9.2165,9.3122,9.3002,9.2913,9.3212,9.2853,9.2673,9.2793,9.2224,9.1626,9.1087,9.0459,9.004,8.989,8.8753,8.8304,8.8663,8.7018,8.6359,8.6898,8.6389,8.6299,8.6689,8.6689,8.6599,8.6479,8.6509,8.6299,8.5881,8.5372,8.5132,8.5132,8.5282,8.5372,8.5342,8.5192,8.5132,8.5103,8.4983,8.4923,8.4923,0.0,0.0,0.0,0.0,0.0,0.0,0.0,0.0,0.0,0.0,0.0,0.0,0.0,5.9202,0.0,0.0,6.0222,0.0,0.0,6.111,6.1241,6.1529,6.3064,6.3889,6.3916,6.3889,6.4102,6.4517,6.5065,6.5113,6.487,6.7317,6.9574,7.1691,7.2395,7.2069,7.085,6.8702,6.832,6.9062,6.8938,6.9854,7.1122,7.0342,6.9767,6.9288,6.7993,0.0,0.0,0.0,0.0,0.0,0.0,0.0,6.8113,6.7659,6.7986,6.8585,6.8854,7.1068,7.454,7.9776,8.4624,8.8634,9.0668,9.1656,9.2045,9.1686,9.2943,9.3721,9.2374,9.1865,9.1626,9.1626,9.1357,9.1476,9.2464,9.2075,9.1895,9.2524,9.2045,9.1656,9.1656,9.1057,9.0399,8.9741,8.9382,8.9052,8.8753,8.8065,8.7706,8.7736,8.6389,8.5851,8.621,8.5551,8.5402,8.5731,8.5432,8.5103,8.4803,8.5103,8.5222,8.5192,8.4863,8.4534,8.4295,8.4923,8.4983,8.4714,8.4714,8.4504,8.4235,8.4235,8.4235,8.4235,0.0,0.0,0.0,0.0,0.0,0.0,0.0,0.0,0.0,0.0,0.0,0.0,0.0,0.0,5.949,0.0,0.0,0.0,0.0,0.0,0.0,6.2527,6.419,6.5108,6.5027,6.5482,6.6009,6.6764,6.5402,6.6011,6.8497,6.8678,7.1258,7.5515,7.3975,7.3476,7.3633,7.0742,7.0159,7.1195,7.1001,7.1703,7.2773,7.1743,7.033,6.8823,6.8165,6.7582,6.715,6.8183,0.0,0.0,0.0,0.0,6.7544,6.7181,6.7511,6.823,6.9516,7.3133,7.822,8.4983,8.8185,8.983,9.0489,9.1147,9.1596,9.1476,9.2494,9.3032,9.1835,9.1626,9.1566,9.1476,9.0997,9.1027,9.2105,9.1327,9.0997,9.1985,9.1117,9.0429,9.0309,8.9801,8.9232,8.8574,8.8514,8.8185,8.7407,8.7347,8.7048,8.6359,8.5701,8.5402,8.5521,8.4773,8.4444,8.4534,8.3756,8.3128,8.2619,8.3606,8.4145,8.4384,8.4384,8.4145,8.3816,8.4923,8.5043,8.4534,8.4534,8.4145,8.3547,8.3547,8.3547,8.3547,0.0,0.0,0.0,0.0,0.0,0.0,0.0,0.0,0.0,0.0,5.9385,5.9228,0.0,0.0,0.0,6.0143,6.0222,6.0692,6.179,0.0,0.0,6.4593,6.4969,6.6194,6.8479,6.8132,6.7953,6.8084,6.7309,6.9518,7.4394,7.2825,7.3354,7.5511,7.4644,7.4242,7.3986,7.0876,6.9993,7.1013,7.2537,7.3278,7.343,7.3526,7.3031,7.2021,6.9915,6.9275,6.9545,7.0248,7.0463,0.0,0.0,0.0,6.9702,6.794,6.7486,6.7787,6.8827,7.4121,8.0494,8.5462,8.8215,8.983,9.0489,9.1147,9.1446,9.0878,9.1805,9.2494,9.1746,9.1626,9.1446,9.0848,9.0698,9.0698,9.0878,9.0758,9.0489,9.01,8.989,8.9561,8.8993,8.8873,8.8544,8.7885,8.7826,8.7287,8.603,8.597,8.5671,8.4983,8.4325,8.4265,8.4833,8.3636,8.3307,8.3846,8.2619,8.1991,8.1901,8.1512,8.1931,8.3008,8.3008,8.3277,8.3756,8.3906,8.3936,8.3876,8.3876,8.3457,8.2888,8.2888,8.2888,8.2888,0.0,0.0,0.0,0.0,0.0,0.0,0.0,0.0,0.0,0.0,0.0,5.915,0.0,0.0,0.0,5.9673,5.9751,6.0248,6.1424,6.2556,6.3633,6.4581,6.6211,6.7664,6.8863,6.8675,6.912,7.0351,6.8832,7.1097,7.6809,7.5978,7.7182,7.9977,7.5924,7.5182,7.6516,7.1707,7.0969,7.305,7.2717,7.3163,7.3981,7.3394,7.2727,7.1905,7.0249,6.954,6.9443,7.012,7.0216,7.0096,7.0404,0.0,0.0,0.0,6.8485,6.9384,7.293,7.6245,8.0075,8.5821,8.7915,8.8753,8.9382,9.004,9.0339,8.9681,9.001,9.0549,9.0997,9.1057,9.0848,9.019,9.01,8.995,8.9591,8.9561,8.9441,8.9142,8.9112,8.8873,8.8185,8.8125,8.7706,8.6659,8.6928,8.6539,8.5222,8.5492,8.5402,8.4743,8.4085,8.3876,8.4175,8.2858,8.217,8.208,8.1512,8.1242,8.1212,8.0943,8.1123,8.1691,8.205,8.217,8.211,8.2499,8.2409,8.214,8.2499,8.2469,8.226,8.2619,8.2844,8.2844,0.0,0.0,0.0,0.0,0.0,0.0,0.0,0.0,0.0,0.0,0.0,0.0,0.0,0.0,0.0,0.0,5.949,6.0091,6.1267,6.3138,6.4346,6.4752,6.7289,6.8972,6.9521,6.955,7.0341,7.2146,7.0518,7.2857,7.8819,7.8819,8.1212,8.5156,7.8959,7.7357,7.8943,7.3877,7.3216,7.5399,7.3103,7.2877,7.3845,7.2776,7.1926,7.1167,7.0404,6.9787,6.9417,7.0398,7.0493,7.0404,7.0924,7.0954,0.0,0.0,0.0,6.9923,7.4548,7.6425,7.84,8.4055,8.6449,8.7586,8.8065,8.8963,8.9471,8.8813,8.8693,8.8993,8.995,9.013,8.998,8.9501,8.9262,8.9052,8.8723,8.8394,8.8245,8.8424,8.8274,8.7975,8.7496,8.7287,8.6778,8.5761,8.6,8.5671,8.4534,8.4923,8.4893,8.4235,8.3726,8.3397,8.3247,8.211,8.1212,8.0554,8.0375,8.0285,8.0285,7.9956,7.9896,8.0105,8.1093,8.1153,8.0614,8.1272,8.1242,8.0853,8.1332,8.1542,8.1601,8.208,8.238,8.2529,0.0,0.0,0.0,0.0,0.0,0.0,0.0,0.0,0.0,0.0,0.0,5.915,5.8575,5.8523,5.8732,5.9307,5.9856,6.0666,6.1842,6.3353,6.4824,6.6216,6.7839,0.0,7.1685,7.1751,7.2109,7.2864,7.2767,7.5757,8.1572,8.1572,8.4684,9.004,8.4708,8.1691,8.0524,7.8074,7.7264,7.7393,7.4489,7.3033,7.246,7.2073,7.1492,7.0945,7.0854,7.0585,7.0618,7.2244,7.2829,7.2829,7.286,7.2891,7.2367,0.0,0.0,0.0,6.9782,7.2654,7.5707,7.8549,8.3008,8.6748,8.6778,8.8274,8.9471,8.8813,8.8693,8.8693,8.8783,8.8783,8.8783,8.8753,8.8215,8.8005,8.8604,8.7586,8.7018,8.7676,8.7167,8.6778,8.6748,8.618,8.5761,8.5701,8.5132,8.4504,8.3816,8.3816,8.3547,8.2888,8.2828,8.2499,8.1901,8.1183,8.0524,7.9866,7.9208,7.8878,7.8849,7.7592,7.7382,7.8071,8.0016,8.0464,7.9926,8.0584,8.0823,8.0794,8.0823,8.0853,8.0853,8.0883,8.1302,8.1841,0.0,0.0,0.0,0.0,0.0,0.0,0.0,0.0,0.0,0.0,0.0,0.0,0.0,5.8523,5.8601,5.881,6.0164,6.1238,6.1666,6.4291,6.6265,6.7208,6.9082,7.0664,7.1876,7.1876,7.2415,7.3552,7.2684,7.4869,7.9896,8.1183,8.3576,8.6718,8.3965,8.2739,8.235,7.7314,7.5623,7.6082,7.3934,7.3076,7.2942,7.1969,7.1401,7.1144,7.0486,7.0341,7.0587,7.1598,7.2121,7.2398,7.2829,7.2675,7.1968,6.9884,6.8759,6.8603,7.0404,7.1623,7.3253,7.7173,7.9896,8.205,8.3786,8.5701,8.7048,8.6808,8.7107,8.7257,8.6838,8.7467,8.7915,8.7467,8.6838,8.6359,8.615,8.5731,8.5521,8.5761,8.5551,8.5432,8.5432,8.4833,8.4444,8.4444,8.4205,8.3606,8.2529,8.2888,8.2619,8.1542,8.1512,8.1183,8.0524,8.0285,7.9627,7.8519,7.828,7.7951,7.7532,7.7472,7.7352,7.7233,7.837,7.8998,7.9178,7.9417,7.9507,7.9567,7.9986,8.0434,8.0794,8.0794,8.1212,8.1721,0.0,0.0,0.0,0.0,0.0,5.8941,5.8575,5.8836,5.8941,5.8549,0.0,0.0,0.0,0.0,5.8788,5.9466,6.1186,6.2316,6.2508,6.5116,6.6991,6.7696,6.9785,7.1098,7.1547,7.1757,7.2445,7.3552,7.2654,7.448,7.8819,8.0405,8.2529,8.4953,8.2739,8.3008,8.4743,7.9656,7.7674,7.7645,7.4698,7.3836,7.4188,7.3707,7.3136,7.2601,7.2716,7.2338,7.18,7.2109,7.2299,7.2395,7.298,7.2336,7.123,6.9792,6.9032,6.8789,6.9633,7.0016,7.1113,7.5245,7.6734,7.8011,8.1332,8.3128,8.4175,8.4624,8.5222,8.5611,8.5402,8.591,8.6299,8.606,8.5462,8.4953,8.4743,8.4325,8.4235,8.4654,8.4325,8.4235,8.4684,8.3726,8.3247,8.3696,8.3128,8.2469,8.1811,8.1991,8.1691,8.0823,8.0584,8.0255,7.9806,7.9597,7.8908,7.7801,7.7592,7.7143,7.6544,7.6724,7.6724,7.6544,7.6993,7.7652,7.846,7.846,7.846,7.8519,7.9208,7.9746,8.0165,8.0375,8.0883,8.1392,0.0,0.0,5.8523,5.8523,5.8523,5.8523,5.8523,5.8523,5.8523,5.8523,0.0,0.0,0.0,0.0,0.0,6.1403,6.285,6.3954,6.4448,6.5917,6.6999,6.7733,6.9755,7.0889,7.0919,7.1547,7.2235,7.2954,7.2924,7.4899,7.8729,7.9447,8.1841,8.5372,8.1601,8.2769,8.7437,8.5312,8.3756,8.223,7.6993,7.5347,7.6155,7.7263,7.6544,7.5237,7.7435,7.6611,7.4389,7.4153,7.3616,7.3104,7.3333,7.2055,7.0373,6.9579,6.8757,6.7908,0.0,0.0,0.0,7.2425,7.352,7.4929,7.9507,8.0554,8.0973,8.235,8.3158,8.3846,8.4534,8.4145,8.3936,8.4564,8.4115,8.3936,8.4564,8.3576,8.3217,8.4474,8.3517,8.3217,8.4474,8.2858,8.226,8.3547,8.1871,8.1033,8.1691,8.1093,8.0734,8.0734,8.0105,7.9776,7.9746,7.9088,7.843,7.7771,7.7113,7.6485,7.5886,7.5198,7.5258,7.5886,7.5886,7.6604,7.7741,7.7771,7.7801,7.7861,7.8519,7.8789,7.8938,7.9567,8.0255,8.0823,0.0,5.8523,5.8523,5.8523,5.8523,5.8523,5.8523,5.8523,5.8523,0.0,0.0,0.0,5.8523,6.027,6.2074,6.3665,6.5088,6.5598,6.485,6.6134,6.7453,6.858,6.9679,7.0679,7.1577,7.1787,7.2475,7.3612,7.3163,7.421,7.6724,7.834,8.0165,8.217,8.2499,8.3187,8.3846,7.9447,7.9058,8.0973,7.6634,7.6425,7.846,7.5946,7.5258,7.5707,7.6315,7.6223,7.5926,7.6296,7.6342,7.5805,7.3777,7.206,7.0554,6.9386,6.9025,6.8848,6.8176,0.0,0.0,0.0,0.0,0.0,7.3672,7.4749,7.6006,7.9238,8.0434,8.1392,8.3008,8.3547,8.3636,8.3367,8.3158,8.3098,8.3277,8.2978,8.2709,8.2619,8.226,8.1991,8.1901,8.0943,8.0704,8.1542,8.0674,8.0165,8.0345,7.9716,7.9357,7.9357,7.9178,7.8849,7.837,7.816,7.7741,7.7083,7.6455,7.6066,7.5886,7.5707,7.5437,7.5198,7.5677,7.6096,7.6455,7.6904,7.7382,7.7831,7.8011,7.8968,8.0195,7.9926,8.0524,8.1437,5.8523,5.8706,5.8862,5.8862,5.9281,5.9437,5.8941,5.9072,5.926,0.0,0.0,0.0,6.0935,6.3778,6.5806,6.6343,6.7218,6.7412,6.6677,6.6835,6.7597,6.8944,6.9632,7.044,7.1457,7.1757,7.2265,7.3073,7.2954,7.3642,7.5108,7.6514,7.7861,7.9178,7.9776,8.0285,8.0434,7.6514,7.7023,8.0225,7.816,7.8669,8.0524,7.9597,7.9387,7.9656,8.0195,8.0012,7.9407,7.9257,7.87,7.7349,7.3706,7.255,7.2183,6.9967,6.9878,0.0,0.0,0.0,6.8303,6.9116,0.0,0.0,7.1188,7.1577,7.2415,7.6335,7.7711,7.8789,8.0734,8.1422,8.1721,8.1901,8.1721,8.1811,8.2649,8.2529,8.22,8.1841,8.1302,8.0913,8.0823,7.9956,7.9776,8.0734,7.9926,7.9387,7.9387,7.8759,7.8519,7.8789,7.825,7.7921,7.7801,7.7532,7.7083,7.6425,7.6066,7.5766,7.5467,7.5467,7.5258,7.4899,7.5288,7.5467,7.5497,7.5856,7.6395,7.7023,7.7293,7.828,7.9567,7.9746,8.0464,8.1377,0.0,5.8915,5.9281,5.9359,6.0274,6.0766,5.9988,6.0224,6.0649,0.0,6.1329,6.2467,6.5283,6.8245,6.9816,6.9398,6.9252,6.9153,6.9004,6.7747,6.7597,6.8944,6.9572,7.0201,7.0889,7.1487,7.1816,7.1876,7.2565,7.3253,7.3911,7.4569,7.5497,7.6574,7.5407,7.5856,7.7382,7.5707,7.6784,7.9656,8.0315,8.1183,8.2409,8.5252,8.5731,8.4983,8.624,8.5492,8.3756,8.2515,8.0707,7.8222,7.3889,7.3519,7.4057,7.1136,7.1075,0.0,0.0,0.0,0.0,7.0056,6.8388,0.0,7.0539,7.0025,6.9965,7.3649,7.4869,7.5976,7.7981,7.8519,7.8998,7.9986,7.9956,8.0494,8.238,8.208,8.1631,8.1572,8.0524,8.0016,8.0524,7.9477,7.9297,8.0494,7.9477,7.8759,7.8669,7.813,7.8041,7.8549,7.7442,7.7083,7.7592,7.7023,7.6455,7.5916,7.5826,7.5497,7.4988,7.4899,7.4869,7.4869,7.4869,7.4869,7.4869,7.4869,7.5288,7.5946,7.6514,7.7203,7.8071,7.9357,8.0285,8.1047,5.8523,5.8601,5.8836,5.9281,5.9934,6.0895,6.2454,6.2256,6.2823,6.5195,6.6006,6.7552,7.0829,7.1336,7.1776,7.2811,7.1476,7.0081,6.9064,6.7747,6.7597,6.8944,6.9123,6.9722,7.0889,7.1038,7.1368,7.1876,7.2565,7.3253,7.3911,7.4569,7.5018,7.5258,7.4988,7.5078,7.5467,7.5647,7.6664,7.825,7.8908,8.1183,8.4145,8.4265,8.4803,8.5611,8.6389,8.609,8.518,8.4198,8.1761,7.8871,7.6946,7.4546,7.2474,7.2459,7.1967,7.1445,7.1353,7.1169,7.0679,6.9244,6.9489,0.0,6.7577,6.788,6.9082,7.0886,7.1623,7.2654,7.5168,7.6933,7.7562,7.6245,7.816,8.0315,8.1781,8.1392,8.0794,8.0255,7.9986,7.9656,7.9238,7.8938,7.8908,7.9148,7.8938,7.8549,7.8041,7.7891,7.7622,7.7233,7.6963,7.6664,7.6275,7.6155,7.6036,7.5886,7.5347,7.5288,7.5677,7.5138,7.4869,7.4869,7.4869,7.4869,7.4869,7.4869,7.5288,7.5916,7.6036,7.7113,7.8699,7.9507,8.0805,8.2062,5.8941,5.9411,6.0276,6.1601,6.2572,6.3719,6.5281,6.5467,6.6074,6.7993,7.0332,7.2193,7.3241,7.393,7.4169,7.3903,7.2355,7.0859,6.9572,6.8226,6.7926,6.8944,6.9004,6.9752,7.1368,7.1068,7.1218,7.1876,7.2235,7.2744,7.3432,7.4091,7.439,7.439,7.4719,7.4689,7.442,7.5108,7.5766,7.6664,8.0285,8.3337,8.5851,8.7167,8.8065,8.8693,8.9023,8.8723,8.7646,8.4586,8.3116,8.1886,7.7973,7.6465,7.5927,7.4457,7.3715,7.3125,7.1997,7.1812,7.1719,7.0525,7.0158,0.0,0.0,6.7155,6.7578,6.9536,6.9562,6.9943,7.2679,7.343,7.3814,7.4338,7.5497,7.7053,7.9028,7.9896,8.0045,7.9387,7.9028,7.8669,7.834,7.8011,7.7951,7.828,7.8609,7.8519,7.7861,7.7502,7.7173,7.6844,7.6185,7.5886,7.5916,7.5557,7.5377,7.5377,7.5048,7.5048,7.5377,7.5018,7.4869,7.4869,7.4869,7.4869,7.4869,7.4869,7.5078,7.5377,7.5377,7.6185,7.7502,7.8819,8.0218,8.1485,5.9405,6.0414,6.194,6.365,6.5254,6.6698,6.7849,6.8485,6.9265,7.0634,7.3734,7.5587,7.4749,7.5736,7.6066,7.5108,7.2864,7.1338,7.0949,6.8944,6.8076,6.8764,6.8944,6.9782,7.1487,7.1128,7.1158,7.1697,7.1816,7.2235,7.2924,7.3462,7.3851,7.4091,7.451,7.454,7.43,7.4719,7.5318,7.6514,8.223,8.4863,8.5761,8.9591,9.1057,9.1117,9.1476,9.1267,9.007,8.5162,8.4515,8.4789,7.8989,7.862,7.9781,7.7007,7.6135,7.5592,7.3464,7.3405,7.3708,7.266,7.156,7.0371,0.0,0.0,0.0,6.8877,6.8181,6.7908,7.026,6.9835,6.9829,7.1882,7.2385,7.3253,7.5407,7.7203,7.828,7.822,7.7771,7.7502,7.7622,7.7023,7.6933,7.7562,7.8011,7.8011,7.7472,7.6933,7.6604,7.6455,7.5437,7.5138,7.5707,7.5138,7.4869,7.4869,7.4869,7.4869,7.4869,7.4869,7.4869,7.4869,7.4869,7.4869,7.4869,7.4869,7.4869,7.4869,7.4869,7.5288,7.6125,7.8142,7.9569,8.0683,5.9541,6.098,6.2432,6.2557,6.5186,6.775,6.9258,6.9887,7.1254,7.395,7.5249,7.6275,7.7263,7.6006,7.6185,7.8908,7.3612,7.1338,7.4151,6.9782,6.7388,6.8046,6.8675,6.9363,7.0171,7.0679,7.0949,7.1009,7.1607,7.2235,7.2924,7.2984,7.3642,7.4749,7.424,7.4629,7.5647,7.5108,7.6904,8.0345,8.2828,8.2529,8.1212,8.6868,8.9023,8.9262,9.0997,9.1566,9.0968,8.7437,8.5864,8.4864,8.2092,8.0445,7.9627,8.0219,7.9491,7.8468,7.8323,7.8703,7.8365,7.4735,7.5378,7.5563,7.0124,0.0,6.9701,6.8725,0.0,6.6884,6.7758,0.0,0.0,6.6251,6.8914,7.1248,7.1547,7.2265,7.3642,7.5946,7.6155,7.6335,7.6874,7.6365,7.6275,7.6904,7.6514,7.6215,7.6125,7.6036,7.5736,7.5108,7.4958,7.4929,7.4988,7.4929,7.4869,7.4869,7.4869,7.4869,7.4869,7.4869,7.4869,7.4869,7.4869,7.4869,7.4869,7.4869,7.4869,7.4869,7.4869,7.5288,7.6195,7.8498,7.9999,8.1054,6.1738,6.3114,6.4625,6.5819,6.7529,6.9488,7.1815,7.332,7.4624,7.5846,7.6604,7.7502,7.8849,7.7891,7.7711,7.9088,7.5976,7.4031,7.43,7.1158,6.9542,7.0201,6.9812,7.0231,7.1637,7.1158,7.1098,7.1457,7.1368,7.1667,7.2325,7.2325,7.2834,7.3732,7.3851,7.442,7.5318,7.5437,7.6425,7.816,8.0524,8.0794,8.0584,8.7676,9.0608,9.1057,9.1895,9.2434,9.2135,8.8065,8.6994,8.6907,8.414,8.2607,8.1907,8.2337,8.1226,7.9589,7.8728,7.8783,7.8624,7.6304,7.5805,7.4939,7.1261,6.9852,6.9302,6.9059,0.0,0.0,0.0,0.0,0.0,0.0,6.7867,6.9333,6.9752,7.035,7.1637,7.3911,7.3492,7.3402,7.445,7.5377,7.5856,7.5707,7.5826,7.5736,7.5318,7.5677,7.5587,7.4899,7.4869,7.4869,7.4869,7.4869,7.4869,7.4869,7.4869,7.4869,7.4869,7.4869,7.4869,7.4869,7.4869,7.4869,7.4869,7.4869,7.4869,7.4869,7.4869,7.5288,7.6155,7.8284,7.9472,8.0222,6.4216,6.524,6.6304,6.7872,6.9194,7.0884,7.3507,7.5108,7.6155,7.6544,7.6993,7.7861,7.9357,7.9267,7.9567,8.0853,7.8938,7.7203,7.6125,7.3163,7.1427,7.1368,7.0649,7.0829,7.2086,7.1487,7.1308,7.1607,7.1128,7.1427,7.2415,7.1876,7.2385,7.3762,7.424,7.5018,7.6006,7.7083,7.7921,7.8789,8.1063,8.2529,8.3906,8.9112,9.1955,9.3122,9.2943,9.3182,9.2972,8.8903,8.8306,8.8722,8.6011,8.4744,8.4264,8.3972,8.2619,8.0923,7.939,7.9291,7.9185,7.7407,7.6081,7.4507,7.2211,7.0679,6.9821,7.0127,6.8629,0.0,0.0,0.0,6.6157,6.7033,0.0,6.7956,6.8615,6.8824,6.9542,7.1338,7.1338,7.1697,7.3043,7.418,7.4689,7.436,7.445,7.448,7.436,7.4988,7.5198,7.4899,7.4869,7.4869,7.4869,7.4869,7.4869,7.4869,7.4869,7.4869,7.4869,7.4869,7.4869,7.4869,7.4869,7.4869,7.4869,7.4869,7.4869,7.4869,7.4869,7.5288,7.6096,7.7794,7.8607,7.9001,6.651,6.6789,6.6664,6.6759,6.905,7.1541,7.3582,7.3941,7.445,7.5766,7.5946,7.6694,7.8609,7.9387,8.1572,8.603,8.232,8.0225,8.1452,7.6066,7.2026,7.0111,7.059,7.062,7.0081,7.1248,7.1547,7.0949,7.0919,7.1906,7.3791,7.1846,7.2684,7.5796,7.5826,7.6904,7.8789,8.0764,8.3068,8.5492,8.6898,8.9352,9.2015,9.0369,9.1746,9.4469,9.378,9.3571,9.3182,9.0489,8.9888,8.9771,8.7863,8.6747,8.6011,8.5092,8.4034,8.2961,8.1685,8.1868,8.1541,7.7867,7.6985,7.6092,7.2737,7.2429,7.2675,7.2029,7.212,7.2055,7.1474,6.9761,6.8211,0.0,6.7243,0.0,0.0,6.6939,6.664,6.7956,7.032,7.2385,7.3732,7.2744,7.2295,7.2924,7.1787,7.1637,7.2924,7.3612,7.424,7.4869,7.4869,7.4869,7.4869,7.4869,7.4869,7.4869,7.4869,7.4869,7.4869,7.4869,7.4869,7.4869,7.4869,7.4869,7.4869,7.4869,7.4869,7.4869,7.4869,7.5288,7.6045,7.7023,7.7473,7.7684,6.8005,6.8623,6.86,6.7712,6.8717,7.032,7.2265,7.4091,7.6335,7.9387,7.9776,8.1542,8.612,8.606,8.6659,8.9082,8.6689,8.4654,8.3786,7.9806,7.7203,7.6514,7.4599,7.3642,7.3881,7.3013,7.2235,7.1547,7.1128,7.1697,7.3223,7.1637,7.2206,7.4599,7.5018,7.6305,7.831,8.0734,8.2559,8.3995,8.6629,8.992,9.3122,9.2015,9.2583,9.384,9.3182,9.3511,9.393,9.1716,9.0887,9.0735,8.9747,8.8506,8.73,8.7192,8.6484,8.5547,8.465,8.4349,8.356,8.0056,7.8742,7.724,7.3504,7.3506,7.3999,7.286,7.3105,7.3257,7.2331,7.1009,0.0,0.0,0.0,6.8076,0.0,6.6191,6.6191,6.8405,6.9812,7.0799,7.1278,7.1667,7.1637,7.0979,7.05,7.0649,7.1547,7.2624,7.3552,7.421,7.4659,7.4869,7.4869,7.4869,7.4869,7.4869,7.4869,7.4869,7.4869,7.4869,7.4869,7.4869,7.4869,7.4869,7.4869,7.4869,7.4869,7.4869,7.4869,7.5018,7.5407,7.7044,7.7684,7.7804,6.9112,6.9093,6.8884,6.8704,6.9243,7.0171,7.1667,7.4958,7.828,8.1063,8.2858,8.5521,8.983,9.016,9.0519,9.1596,9.0519,8.8454,8.5282,8.3068,8.1183,7.9537,7.7652,7.6514,7.6245,7.5198,7.3971,7.2595,7.2415,7.3013,7.427,7.2475,7.2684,7.4629,7.5288,7.6544,7.84,8.202,8.3906,8.4773,8.7616,9.0549,9.3152,9.2254,9.2613,9.3481,9.2823,9.3152,9.3661,9.2135,9.1494,9.127,9.0781,8.9549,8.8329,8.7874,8.7356,8.6624,8.5319,8.5198,8.4713,8.1694,8.0608,7.9315,7.5464,7.5935,7.6646,7.4672,7.5074,7.544,7.4314,7.3053,7.1734,0.0,0.0,0.0,0.0,6.646,6.6789,6.8764,6.9363,6.9901,7.059,7.0769,7.05,6.9662,6.9153,6.9363,7.05,7.1816,7.2954,7.3881,7.454,7.4869,7.4869,7.4869,7.4869,7.4869,7.4869,7.4869,7.4869,7.4869,7.4869,7.4869,7.4869,7.4937,7.5074,7.5074,7.5074,7.5074,7.5074,7.5006,7.5048,7.6574,7.7412,7.7861,6.9901,6.8435,6.7777,6.9662,7.044,7.1068,7.1816,7.6395,8.0075,8.0973,8.5103,8.8484,8.995,9.1746,9.3092,9.3721,9.3721,9.1506,8.6419,8.6,8.3965,7.9507,7.9836,7.9208,7.7263,7.7682,7.6664,7.4121,7.4629,7.5527,7.6724,7.4151,7.3971,7.5826,7.6544,7.7592,7.9118,8.4444,8.7137,8.8005,8.989,9.1416,9.2464,9.1147,9.1835,9.3391,9.2763,9.2583,9.2494,9.1835,9.1626,9.1506,9.0848,9.0017,8.9048,8.7357,8.7019,8.6654,8.4231,8.4666,8.5187,8.2693,8.2622,8.2231,7.8475,7.9544,8.0456,7.738,7.8041,7.8685,7.7213,7.5648,7.3879,0.0,0.0,0.0,6.724,6.7537,6.8196,6.8944,6.9004,6.9692,7.1547,7.0051,6.8944,6.8914,6.7687,6.7807,6.9782,7.1128,7.2445,7.3791,7.451,7.4869,7.4869,7.4869,7.4869,7.4869,7.4869,7.4869,7.4869,7.4869,7.4869,7.4869,7.4869,7.5074,7.5346,7.5346,7.5346,7.5346,7.5346,7.5202,7.5048,7.5707,7.6754,7.7861,6.9423,6.9602,6.9901,6.9961,6.9722,7.0201,7.2325,7.6305,8.0524,8.4624,8.8783,9.2583,9.5875,9.6234,9.6294,9.6473,9.5606,9.408,9.1716,9.019,8.8634,8.6958,8.5162,8.3726,8.2709,8.0464,7.8729,7.7532,7.5736,7.5318,7.6096,7.442,7.3911,7.451,7.6604,7.8011,7.9088,8.3906,8.7496,8.992,9.0429,9.1416,9.2464,9.1147,9.1267,9.2105,9.1925,9.2194,9.2494,9.1835,9.1626,9.1506,9.0848,9.0482,9.0115,8.9224,8.9188,8.9228,8.8043,8.7923,8.7613,8.5456,8.4843,8.413,8.1318,8.2459,8.3306,8.0645,8.0771,8.0548,7.8163,7.6375,7.4776,0.0,0.0,0.0,0.0,6.7332,6.7867,6.9482,6.8824,6.8645,6.9632,6.8824,6.8046,6.7537,6.6729,6.7148,6.9123,7.047,7.1787,7.3133,7.427,7.4869,7.4869,7.4869,7.4869,7.4869,7.4869,7.4869,7.4869,7.4869,7.4869,7.4869,7.4869,7.4937,7.5006,7.5006,7.5006,7.5006,7.5006,7.5536,7.6335,7.6544,7.7412,7.8519,6.9961,7.0889,7.1667,7.1338,7.1667,7.2804,7.5138,7.7861,8.1362,8.606,9.013,9.3451,9.5695,9.7132,9.782,9.7521,9.6593,9.5067,9.2853,9.2224,9.1237,8.9741,8.8245,8.6988,8.603,8.3068,8.0913,7.9656,7.7322,7.6365,7.6694,7.4779,7.3881,7.4001,7.6066,7.7322,7.828,8.3487,8.7616,9.0608,9.0339,9.0818,0.0,9.0908,9.0878,9.1177,9.1177,9.1416,9.1686,9.1327,9.1177,9.1117,9.0758,9.0721,9.0767,8.9943,9.0141,9.0396,8.954,8.9304,8.8908,8.755,8.7219,8.6573,8.4355,8.4693,8.4904,8.258,8.1897,8.094,7.862,7.686,7.5031,0.0,0.0,0.0,0.0,6.8479,6.8893,6.9812,6.9542,6.9183,6.9004,6.8375,6.7687,6.7029,6.6909,6.7508,6.8914,7.05,7.1816,7.2894,7.4749,7.5437,7.4869,7.5437,7.5437,7.4869,7.4869,7.4869,7.4869,7.4869,7.4869,7.4869,7.4869,7.5006,7.5142,7.5142,7.5142,7.5074,7.4937,7.5497,7.6455,7.6724,7.7652,7.8759,7.0799,7.1936,7.2894,7.2804,7.4809,7.7173,7.9357,8.0913,8.3158,8.6838,9.0938,9.3481,9.3391,9.6533,9.8329,9.7551,9.6922,9.5306,9.2344,9.3122,9.2703,9.0399,9.013,8.9471,8.8245,8.5342,8.2948,8.1063,7.8789,7.7502,7.7113,7.4839,7.3702,7.3702,7.5228,7.6455,7.7711,8.3128,8.7137,8.983,8.9621,8.992,9.0519,9.0608,9.0638,9.0638,9.0638,9.0638,9.0638,9.0638,9.0638,9.0638,9.0638,9.0887,9.1126,9.0115,9.0425,9.0839,8.9772,8.9645,8.9738,8.9256,8.9266,8.9022,8.7462,8.677,8.5968,8.4142,8.2429,8.0802,7.8971,7.7026,7.4889,7.2118,7.0922,7.0186,6.9784,7.0172,0.0,0.0,7.0654,0.0,6.9243,6.8435,6.7687,6.7029,6.7448,6.8106,6.8944,7.0679,7.2026,7.2894,7.5198,7.6006,7.5138,7.6096,7.6096,7.5138,7.4958,7.4869,7.4869,7.4937,7.4937,7.4937,7.5006,7.5142,7.5414,7.5414,7.5346,7.5278,7.5006,7.5288,7.5946,7.6395,7.7472,7.8579,7.035,7.1637,7.2744,7.2176,7.5976,8.0345,8.3936,8.609,8.8125,9.0459,9.5157,9.8089,9.7551,9.8598,9.8837,9.7611,9.6922,9.6084,9.4977,9.4588,9.4229,9.375,9.2673,9.1716,9.0938,8.6748,8.3846,8.2409,7.8789,7.5886,7.3762,7.3313,7.2774,7.2355,7.4809,7.7472,8.0285,8.2948,8.4714,8.594,8.8035,8.9262,8.989,9.0429,9.0638,9.0638,9.0638,9.0638,9.0638,9.0638,9.0638,9.0638,9.0638,9.0887,9.1217,9.0602,9.1363,9.2021,9.0496,9.0947,9.1416,9.0046,9.0305,9.0727,9.0326,8.9405,8.8438,8.7738,8.4962,8.2117,8.0157,7.6823,7.3999,7.2921,7.2395,7.184,7.1228,7.0759,0.0,0.0,7.1023,7.062,6.9871,6.8704,6.7687,6.7029,6.661,6.7119,6.8914,6.9842,7.1098,7.2864,7.3881,7.5078,7.6485,7.5647,7.5647,7.6485,7.5377,7.4869,7.4869,7.521,7.5278,7.5346,7.5587,7.5617,7.5414,7.5414,7.521,7.5006,7.4937,7.5288,7.5856,7.5377,7.6395,7.8041,7.1547,7.2535,7.3851,7.5228,7.8998,8.3068,8.6689,9.01,9.2105,9.1686,9.4139,9.5666,9.5007,9.7042,9.8089,9.7102,9.6444,9.5935,9.5606,9.4977,9.4618,9.4618,9.3332,9.2464,9.2135,8.7586,8.4594,8.3277,7.8938,7.5497,7.2894,7.2206,7.1338,7.05,7.2804,7.6425,8.0823,8.1452,8.3068,8.5372,8.6988,8.8245,8.9232,8.989,8.992,8.9711,9.0399,9.019,8.9741,9.0399,9.0638,9.0638,9.0638,9.0721,9.0969,9.0969,9.1381,9.178,9.1233,9.1465,9.1595,9.0527,9.0462,9.0712,9.1074,9.0097,8.9053,8.864,8.6201,8.3203,8.0155,7.7385,7.5353,7.4676,7.4118,7.3654,7.3127,7.2779,7.2429,0.0,0.0,0.0,6.9602,6.8884,6.8226,6.7537,6.7537,6.7986,6.8944,7.0123,7.1233,7.2355,7.4369,7.5541,7.5796,7.6064,7.6064,7.5796,7.5168,7.4869,7.4869,7.521,7.5414,7.5414,7.555,7.555,7.5346,7.521,7.5006,7.4869,7.4869,7.5288,7.5916,7.5886,7.6694,7.7801,7.3911,7.4569,7.5916,7.9088,8.2499,8.5671,8.8274,9.2613,9.4828,9.2733,9.3272,9.3541,9.2763,9.5546,9.7192,9.6444,9.5875,9.5546,9.5396,9.4768,9.4379,9.4379,9.3092,9.2314,9.2194,8.7915,8.4773,8.2888,7.8819,7.5108,7.1846,7.1068,7.0171,6.9303,7.1398,7.5078,7.9776,7.9806,8.1841,8.5162,8.624,8.7407,8.8544,8.9202,8.9232,8.9023,9.007,8.986,8.9262,9.0279,9.0549,9.0459,9.0608,9.0638,9.0804,9.1052,9.1299,9.1626,9.1708,9.188,9.173,9.0978,9.0741,9.0775,9.1298,9.0406,8.9283,8.8824,8.6428,8.3418,7.994,7.8185,7.7016,7.6338,7.5907,7.5535,7.5123,7.5208,7.4733,0.0,0.0,0.0,6.9466,6.9187,6.8917,6.8141,6.8528,6.8794,6.8794,7.0277,7.1268,7.1667,7.4577,7.5814,7.5108,7.646,7.6521,7.5425,7.5224,7.5074,7.5006,7.5414,7.5617,7.555,7.5617,7.555,7.5346,7.5006,7.4869,7.4869,7.4869,7.5288,7.5976,7.6455,7.7143,7.7741,7.7652,7.828,7.9178,8.1931,8.5611,8.8334,8.8634,9.2613,9.5516,9.5247,9.6833,9.7491,9.6234,9.6922,9.7012,9.5785,9.5636,9.5336,9.4738,9.405,9.3661,9.3661,9.2404,9.1446,9.0848,8.7467,8.3876,8.0195,7.7921,7.3941,6.8465,6.9512,6.9961,6.9991,7.2565,7.4689,7.6514,7.8849,8.1063,8.3247,8.5701,8.7137,8.7856,8.8514,8.9112,8.9591,8.9711,9.007,9.0489,9.0608,9.0249,8.986,9.0459,9.0887,9.1164,9.0804,9.1544,9.2326,9.1544,9.2215,9.2802,9.1761,9.1784,9.2068,9.2129,9.1083,8.9944,8.9252,8.5542,8.1879,8.0309,7.8893,7.7724,7.7046,7.7385,7.7473,7.6858,7.7544,7.7191,7.4619,0.0,0.0,7.0275,6.9893,6.949,6.851,6.8233,6.8076,6.8076,6.9396,7.0415,7.0979,7.2781,7.4406,7.5796,7.6002,7.6509,7.7123,7.629,7.5715,7.5346,7.6088,7.6221,7.5984,7.6288,7.6021,7.5346,7.5006,7.4869,7.4869,7.4869,7.5288,7.5916,7.5976,7.6754,7.7801,8.1003,8.1482,8.2589,8.5252,8.7377,8.9352,9.1327,9.387,9.5456,9.5037,9.6384,9.7012,9.6084,9.6204,9.5995,9.5097,9.5007,9.4708,9.405,9.3721,9.3391,9.3002,9.1746,9.0908,9.0638,8.7377,8.4354,8.1572,7.8789,7.5407,7.1517,7.044,7.0171,7.059,7.1637,7.3941,7.7143,7.8579,8.0794,8.3517,8.5342,8.6479,8.7167,8.7826,8.8005,8.8035,8.9232,8.9322,8.9052,9.0249,9.0459,9.0279,9.0549,9.0721,9.0887,9.0969,9.1381,9.1789,9.1708,9.2246,9.2655,9.1773,9.1937,9.2222,9.2222,9.1175,9.0129,8.9851,8.6342,8.2895,8.154,8.0186,7.9324,7.9447,7.9016,7.8709,7.8862,7.8482,7.7458,7.5361,0.0,0.0,7.0339,6.9843,6.9532,6.9084,6.8023,6.7747,6.8555,6.9471,7.0468,7.1457,7.3139,7.4475,7.5258,7.5768,7.6025,7.6198,7.6092,7.6129,7.6358,7.6867,7.6898,7.6591,7.6666,7.6327,7.5734,7.5956,7.6036,7.6036,7.6036,7.6455,7.7053,7.7053,7.7622,7.84,8.4414,8.4714,8.5731,8.8394,8.9412,9.0608,9.2943,9.4439,9.5127,9.4678,9.5426,9.5815,9.5366,9.5306,9.5127,9.4648,9.4618,9.4409,9.393,9.3691,9.3272,9.2613,9.1506,9.0668,9.007,8.7586,8.5043,8.2469,7.9926,7.6933,7.3552,7.1487,7.0979,7.1787,7.2206,7.451,7.816,7.9028,8.1063,8.3846,8.5162,8.597,8.6449,8.7137,8.7227,8.7197,8.8813,8.8903,8.8514,9.01,9.0638,9.0638,9.0638,9.0638,9.0721,9.1164,9.1329,9.1381,9.1952,9.2326,9.2495,9.1932,9.2139,9.2468,9.2283,9.1483,9.0652,9.0036,8.6989,8.4034,8.2895,8.1756,8.0956,8.0802,8.0155,7.9724,7.9786,7.9139,7.7837,7.5889,7.5116,7.3797,7.1167,7.0306,6.9845,6.9695,6.8964,6.8715,6.9433,7.0084,7.0872,7.1874,7.3772,7.4871,7.491,7.5863,7.6088,7.5752,7.6301,7.677,7.7159,7.7612,7.7569,7.7122,7.716,7.6818,7.6215,7.6634,7.6814,7.6814,7.6814,7.7233,7.7801,7.7801,7.822,7.8789,8.7975,8.8095,8.8484,9.1117,9.2105,9.2554,9.2613,9.375,9.4618,9.4618,9.4618,9.4618,9.4618,9.4618,9.4618,9.4618,9.4618,9.4618,9.4588,9.396,9.3272,9.2613,9.1955,9.0698,8.8753,8.8035,8.5761,8.1781,8.1093,7.8071,7.2924,7.2206,7.2565,7.3911,7.5258,7.6933,7.8878,8.0195,8.1931,8.3846,8.5162,8.5701,8.5791,8.6449,8.7107,8.7796,8.8454,8.9112,8.9741,9.0399,9.0638,9.0638,9.0638,9.0638,9.0721,9.1164,9.1329,9.1463,9.2326,9.2568,9.2495,9.2249,9.2714,9.3022,9.2376,9.2222,9.1637,8.9636,8.702,8.4896,8.4188,8.351,8.2402,8.0432,8.0648,8.0586,7.9293,7.9663,7.9078,7.6338,7.5675,7.4783,7.3168,7.1778,7.0858,7.0526,7.1408,7.1516,7.0501,7.1104,7.1658,7.1977,7.4279,7.5348,7.4982,7.6283,7.6818,7.6488,7.7494,7.7831,7.7496,7.8169,7.8064,7.7373,7.7759,7.7482,7.6814,7.6814,7.6814,7.6814,7.6814,7.7233,7.7801,7.7801,7.822,7.8789,9.0489,9.1237,9.1835,9.2224,9.3212,9.396,9.396,9.4349,9.4618,9.4618,9.4618,9.4618,9.4618,9.4618,9.4618,9.4618,9.4618,9.4409,9.393,9.3272,9.2613,9.1955,9.0878,8.9771,8.8693,8.7586,8.594,8.3786,8.223,7.9447,7.5587,7.6275,7.6335,7.5946,7.7293,7.8729,8.0255,8.1572,8.3008,8.4474,8.5342,8.597,8.6389,8.6599,8.6808,8.7167,8.8274,8.8813,8.9172,9.0249,9.0638,9.0638,9.0969,9.0887,9.0721,9.1164,9.1329,9.1381,9.1952,9.2326,9.2587,9.2483,9.2814,9.3145,9.293,9.2191,9.096,8.8928,8.7451,8.6158,8.4988,8.3849,8.3018,8.2864,8.1848,8.1079,8.111,8.0155,7.8585,7.6277,7.63,7.5593,7.3229,7.2823,7.2538,7.2134,7.1001,7.024,7.0183,7.1858,7.305,7.3313,7.4768,7.5429,7.5248,7.6166,7.6732,7.6855,7.7673,7.8323,7.8872,7.9086,7.8764,7.8067,7.8207,7.7996,7.7532,7.7981,7.816,7.816,7.816,7.828,7.8489,7.8489,7.8609,7.8849,9.2314,9.3032,9.3361,9.2703,9.3511,9.4229,9.4229,9.4439,9.4528,9.4259,9.4439,9.4499,9.4259,9.4229,9.4319,9.4588,9.4379,9.405,9.3601,9.2972,9.2314,9.1656,9.0608,8.9621,8.8693,8.7616,8.6299,8.4714,8.2499,8.0345,7.834,7.8908,7.8998,7.8729,7.9537,8.0524,8.1601,8.2409,8.3247,8.4055,8.4953,8.5581,8.6,8.6479,8.6689,8.6808,8.7915,8.8304,8.8484,8.9531,9.007,9.0362,9.0773,9.0872,9.0969,9.1381,9.1544,9.1626,9.2033,9.2407,9.2648,9.2808,9.3048,9.3114,9.2899,9.2191,9.1175,8.9636,8.8589,8.7604,8.6466,8.5142,8.4126,8.3757,8.2433,8.1325,8.1017,7.9663,7.8031,7.6215,7.64,7.5969,7.4276,7.4301,7.414,7.3364,7.2685,7.1954,7.1136,7.2509,7.3761,7.4707,7.5575,7.6182,7.6385,7.6854,7.7288,7.7789,7.8476,7.9114,7.9673,7.9812,7.9393,7.8547,7.8689,7.8547,7.822,7.8609,7.8789,7.8789,7.8789,7.8789,7.8789,7.8789,7.8789,7.8878,9.3361,9.3511,9.3332,9.2763,9.3212,9.3661,9.3661,9.4169,9.4319,9.3661,9.411,9.4229,9.3631,9.3541,9.378,9.4469,9.39,9.3541,9.3571,9.2913,9.2254,9.1656,9.0938,8.998,8.8723,8.8035,8.6718,8.4714,8.223,8.0973,8.0913,8.0315,8.0674,8.1841,8.1841,8.22,8.2844,8.2844,8.2769,8.2948,8.4145,8.4684,8.4863,8.609,8.6569,8.6689,8.7377,8.7676,8.7796,8.8454,8.9142,8.9733,9.0193,9.0756,9.1381,9.1871,9.1952,9.2003,9.2487,9.2648,9.2728,9.3048,9.3207,9.3022,9.2376,9.2222,9.2037,9.136,9.0221,8.9113,8.8405,8.7173,8.5604,8.3572,8.2587,8.1387,7.9447,7.8493,7.7539,7.6184,7.6092,7.6123,7.6031,7.6061,7.5569,7.4307,7.5812,7.575,7.3383,7.3214,7.4035,7.5969,7.6677,7.7323,7.7873,7.7934,7.8401,7.9103,7.9779,8.005,7.99,8.0282,7.986,7.8789,7.922,7.9148,7.8789,7.8789,7.8789,7.8789,7.8789,7.8789,7.8789,7.8789,7.8789,7.8878,9.2613,9.2823,9.2943,9.3272,9.393,9.4379,9.4379,9.405,9.375,9.3601,9.3272,9.3212,9.3541,9.3122,9.3092,9.375,9.3212,9.3032,9.3541,9.2494,9.1776,9.1626,9.0519,8.9531,8.8693,8.8035,8.6718,8.4714,8.3606,8.2798,8.229,8.214,8.223,8.2529,8.2529,8.2619,8.2844,8.2844,8.3068,8.3517,8.3846,8.4265,8.4743,8.5043,8.5492,8.6,8.6689,8.7257,8.7796,8.8454,8.9142,8.9733,9.0193,9.1,9.1871,9.2326,9.2407,9.2487,9.2568,9.2808,9.3048,9.2808,9.2968,9.3022,9.2376,9.2222,9.2037,9.136,9.096,9.0375,8.9174,8.8282,8.702,8.4957,8.3203,8.1571,8.0063,7.8801,7.7539,7.6184,7.6923,7.7139,7.6123,7.6461,7.6515,7.5916,7.5395,7.5242,7.564,7.5204,7.5208,7.6,7.6677,7.6946,7.6834,7.7622,7.8513,7.9437,8.0081,8.006,7.9505,7.9647,7.9363,7.8789,7.8933,7.8861,7.8789,7.8789,7.8789,7.8789,7.8789,7.8789,7.8789,7.8789,7.8789,7.8878,9.3302,9.3511,9.3631,9.399,9.411,9.4139,9.4139,9.3571,9.3032,9.2733,9.2643,9.2613,9.2673,9.2374,9.2404,9.3062,9.2524,9.2314,9.2673,9.1446,9.0848,9.1147,8.9621,8.8753,8.8693,8.7437,8.612,8.4714,8.4055,8.3547,8.3217,8.3217,8.3038,8.2844,8.2844,8.2918,8.3187,8.2888,8.3128,8.3726,8.3726,8.4115,8.4743,8.5043,8.5581,8.618,8.6539,8.6928,8.7287,8.7646,8.8424,8.9284,8.9771,9.0678,9.1708,9.2165,9.2568,9.2869,9.3015,9.3133,9.3127,9.2968,9.3048,9.3084,9.2745,9.2683,9.256,9.2191,9.1883,9.136,9.0313,8.9082,8.742,8.5019,8.3203,8.1387,7.9447,7.8493,7.7631,7.6585,7.7108,7.7293,7.6554,7.68,7.6827,7.6323,7.5893,7.5832,7.6261,7.6231,7.6266,7.6461,7.6831,7.7191,7.7673,7.8857,7.9718,8.0249,8.0618,8.0492,7.993,7.993,7.9576,7.9076,7.9076,7.8933,7.8789,7.8789,7.8933,7.9076,7.8861,7.8933,7.9076,7.8861,7.8789,7.8878,9.402,9.4169,9.4199,9.4289,9.381,9.3421,9.3421,9.2793,9.2135,9.1686,9.1925,9.2015,9.1656,9.1536,9.1746,9.2404,9.1865,9.1506,9.1596,9.0399,8.992,9.0459,8.8693,8.7975,8.8514,8.6569,8.5222,8.4564,8.3906,8.3576,8.3576,8.3576,8.3277,8.2844,8.2844,8.3068,8.3547,8.3008,8.3098,8.3576,8.3576,8.3936,8.4474,8.5043,8.5671,8.624,8.6329,8.6449,8.6539,8.6629,8.7496,8.8625,8.9038,9.0072,9.126,9.1678,9.2407,9.3171,9.3432,9.3318,9.3207,9.3207,9.3207,9.3207,9.3207,9.3207,9.3207,9.3207,9.2683,9.2037,9.136,8.9574,8.7327,8.468,8.2956,8.1048,7.8555,7.8001,7.7693,7.7231,7.7262,7.7385,7.7477,7.757,7.7354,7.6677,7.7077,7.7046,7.6338,7.6769,7.7016,7.7016,7.7108,7.7847,7.9232,8.0463,8.1079,8.101,8.1102,8.0863,8.0422,8.0422,8.0072,7.9505,7.9505,7.9291,7.9005,7.9005,7.9148,7.9363,7.9005,7.9076,7.9321,7.9053,7.8938,7.9058,9.1955,9.2075,9.2254,9.2823,9.2823,9.2763,9.2763,9.1716,9.1117,9.1566,9.0728,9.0489,9.1506,9.1117,9.1057,9.1716,9.1177,9.1027,9.1566,9.0399,8.9711,8.983,8.8454,8.7766,8.7856,8.5881,8.4534,8.3876,8.3217,8.2918,8.2918,8.2918,8.2858,8.2844,8.2844,8.2828,8.2888,8.2798,8.2828,8.2918,8.2918,8.2978,8.3068,8.3187,8.3636,8.4265,8.4833,8.5372,8.594,8.6479,8.7197,8.7945,8.8595,8.9609,9.0545,9.123,9.2033,9.2679,9.277,9.2949,9.3207,9.3207,9.3207,9.3207,9.3207,9.3207,9.3207,9.3207,9.2683,9.2037,9.136,8.9574,8.7481,8.5296,8.2864,8.0679,7.9139,7.7939,7.7354,7.7816,7.8401,7.9016,7.957,8.0124,8.0186,7.9509,7.9047,7.8462,7.7754,7.7262,7.7016,7.7016,7.757,7.8555,7.994,8.0679,8.091,8.0562,8.1143,8.0972,7.9971,7.9971,7.99,7.983,7.983,7.9759,7.9759,7.9759,7.9576,7.9363,7.9291,7.9148,7.8921,7.9447,7.9656,7.9746,9.1476,9.1327,9.1297,9.1955,9.1776,9.1536,9.1536,9.0728,9.0219,9.0519,9.004,8.989,9.0489,9.0608,9.0758,9.1057,9.0489,9.0249,9.0549,8.9681,8.8993,8.8634,8.7347,8.6299,8.5581,8.4654,8.4025,8.3726,8.3427,8.3277,8.3277,8.3277,8.3098,8.2844,8.2844,8.2948,8.3247,8.2918,8.2978,8.3247,8.2888,8.2978,8.3277,8.3277,8.3906,8.4833,8.5132,8.5671,8.627,8.6569,8.7137,8.7826,8.8484,8.9305,9.0098,9.0789,9.195,9.3107,9.298,9.3324,9.3668,9.3299,9.3207,9.3207,9.3207,9.3207,9.3207,9.3207,9.296,9.2437,9.1421,8.9574,8.7512,8.545,8.2556,8.0217,7.9232,7.8216,7.7816,7.8524,7.9232,7.9909,8.0555,8.0894,8.0802,8.0155,7.9478,7.8924,7.8616,7.7939,7.7724,7.8124,7.8432,7.9078,8.0094,8.074,8.101,8.084,8.1178,8.1008,8.0562,8.0562,8.0422,8.0182,8.0182,8.0001,7.9647,7.9647,7.9576,7.9363,7.9148,7.9076,7.9167,7.9639,7.9952,8.0188,9.012,8.9877,8.9811,9.0765,9.0519,9.019,9.019,8.9621,8.9262,8.9412,8.9292,8.9262,8.9412,8.989,9.019,9.019,8.9711,8.9322,8.8993,8.8484,8.8005,8.7496,8.618,8.4923,8.3756,8.3726,8.3666,8.3517,8.3517,8.3517,8.3517,8.3517,8.3247,8.2844,8.2844,8.3038,8.3487,8.2978,8.3068,8.3457,8.2978,8.3068,8.3517,8.3517,8.4235,8.5252,8.5402,8.5881,8.6479,8.6629,8.7018,8.7616,8.8424,8.9023,8.9591,9.0399,9.1795,9.3078,9.3091,9.3447,9.3804,9.333,9.3207,9.3207,9.3207,9.3207,9.3207,9.3207,9.293,9.2437,9.1421,8.9297,8.7081,8.5173,8.2187,7.9878,7.9201,7.8493,7.837,7.9232,7.9786,8.0494,8.1448,8.1387,8.111,8.0617,7.9909,7.9386,7.9109,7.8585,7.8616,7.9324,7.9324,7.9663,8.034,8.0986,8.1233,8.1079,8.1233,8.1233,8.1079,8.1079,8.091,8.0632,8.0632,8.0282,7.9789,7.9789,7.9718,7.9647,7.9291,7.9363,7.9596,8.008,8.0453,8.0864,8.5957,8.6266,8.6769,8.8628,8.8873,8.8843,8.8843,8.8274,8.8065,8.8663,8.8215,8.8095,8.8693,8.8813,8.8843,8.8843,8.8783,8.8245,8.6988,8.6838,8.6808,8.6748,8.5492,8.4444,8.3756,8.3726,8.3427,8.2828,8.2828,8.2828,8.2828,8.2828,8.2798,8.2844,8.2844,8.2769,8.2828,8.2769,8.2798,8.2828,8.2769,8.2798,8.2828,8.2828,8.3277,8.3965,8.4564,8.5192,8.5851,8.6479,8.6718,8.6988,8.8274,8.8723,8.8993,9.0279,9.0999,9.1605,9.2437,9.2679,9.2789,9.3127,9.3207,9.3207,9.3207,9.3207,9.3207,9.3207,9.2222,9.1329,9.1237,8.8497,8.5819,8.4403,8.1879,7.9878,7.9201,7.8493,7.8524,7.9878,8.0094,8.0863,8.2772,8.2372,8.2002,8.1941,8.1294,8.0402,7.917,7.9047,7.9324,8.0001,8.0032,8.034,8.0986,8.1664,8.1694,8.1079,8.1694,8.1664,8.1079,8.1079,8.1079,8.1079,8.1079,8.101,8.0979,8.0979,8.0771,8.0422,8.0422,8.0212,7.9981,8.1316,8.1801,8.1983,8.3307,8.4184,8.4956,8.5645,8.7039,8.7945,8.7496,8.7586,8.7796,8.8035,8.7856,8.7796,8.8035,8.8065,8.8065,8.8065,8.7317,8.6599,8.609,8.5671,8.5282,8.4863,8.3995,8.3397,8.3128,8.3128,8.3008,8.2844,8.2844,8.2844,8.2844,8.2844,8.2844,8.2844,8.2844,8.2844,8.2844,8.2844,8.2844,8.2844,8.2844,8.2844,8.2844,8.2844,8.3427,8.4384,8.4624,8.5402,8.6329,8.6599,8.6958,8.7467,8.8394,8.8963,8.9471,9.0369,9.0721,9.0969,9.1626,9.2195,9.2728,9.3127,9.3207,9.3207,9.3207,9.3207,9.3207,9.3207,9.2807,9.2191,9.136,8.9482,8.7451,8.5634,8.308,8.1233,8.0986,8.034,8.0432,8.1787,8.2341,8.3049,8.4218,8.4095,8.3603,8.2772,8.2464,8.1756,8.0402,8.0709,8.0863,8.0709,8.111,8.1233,8.1079,8.1725,8.1941,8.1694,8.2372,8.2587,8.231,8.1879,8.1694,8.1664,8.1263,8.1155,8.1284,8.0885,8.0737,8.072,8.0294,8.0041,8.0022,8.0963,8.1714,8.2345,8.0176,8.1124,8.2103,8.3207,8.5015,8.6309,8.634,8.6958,8.7317,8.7107,8.7077,8.6988,8.6778,8.6778,8.6778,8.6778,8.591,8.5312,8.5103,8.4474,8.3995,8.3756,8.3098,8.2844,8.2844,8.2844,8.2844,8.2844,8.2844,8.2844,8.2844,8.2844,8.2844,8.2844,8.2844,8.2844,8.2844,8.2844,8.2844,8.2844,8.2844,8.2844,8.2844,8.2844,8.3457,8.4444,8.4624,8.5432,8.6389,8.6599,8.7137,8.7826,8.8484,8.9292,9.007,9.0519,9.0638,9.0721,9.1164,9.1708,9.2326,9.2888,9.3127,9.3207,9.3207,9.3207,9.3207,9.3207,9.3022,9.256,9.1421,9.0098,8.8528,8.6466,8.4372,8.2895,8.2464,8.2002,8.2064,8.2987,8.351,8.3972,8.4434,8.428,8.3757,8.2833,8.2772,8.2372,8.1448,8.1817,8.1756,8.1079,8.1725,8.1756,8.1079,8.1725,8.2064,8.2095,8.2772,8.2987,8.2772,8.2279,8.1971,8.1756,8.151,8.1493,8.1682,8.1437,8.1358,8.1329,8.077,8.0587,8.0648,8.135,8.2163,8.3051,7.639,7.6825,7.7887,8.1441,8.264,8.3672,8.5357,8.624,8.6449,8.5761,8.5701,8.5432,8.4773,8.4714,8.4714,8.4714,8.4714,8.4414,8.3786,8.3128,8.3068,8.3696,8.3098,8.2844,8.2844,8.2844,8.2844,8.2844,8.2844,8.2844,8.2844,8.2844,8.2844,8.2844,8.2844,8.2844,8.2844,8.2844,8.2844,8.2844,8.2844,8.2844,8.2844,8.2844,8.3158,8.3816,8.4474,8.5132,8.5791,8.6449,8.7137,8.7826,8.8484,8.9591,9.0638,9.0638,9.0638,9.0721,9.1164,9.1329,9.1463,9.2407,9.2888,9.3207,9.3207,9.3207,9.3207,9.3207,9.2683,9.2037,9.136,9.0129,8.8528,8.6466,8.5573,8.4649,8.3295,8.311,8.311,8.311,8.311,8.311,8.311,8.2495,8.2095,8.2095,8.2095,8.2095,8.2095,8.2095,8.1787,8.1079,8.1725,8.1756,8.1079,8.1756,8.2095,8.2095,8.2772,8.2741,8.2095,8.2095,8.1725,8.111,8.1787,8.2064,8.2125,8.2803,8.271,8.2095,8.2064,8.2064,8.2156,8.2833,8.351,8.4188,7.4605,7.5893,7.7006,7.7562,7.9605,8.1257,8.1296,8.2127,8.3113,8.3708,8.3782,8.4029,8.4618,8.4295,8.4025,8.4025,8.3606,8.3247,8.3068,8.2858,8.2858,8.3038,8.2858,8.2844,8.2844,8.2844,8.2844,8.2844,8.2844,8.2844,8.2844,8.2844,8.2844,8.2844,8.2844,8.2844,8.2844,8.2844,8.2844,8.2844,8.2844,8.2844,8.2844,8.2844,8.3158,8.3816,8.4474,8.5132,8.5881,8.7018,8.7856,8.8574,8.9711,9.0309,9.0638,9.0638,9.0638,9.0638,9.0804,9.1052,9.1463,9.2407,9.2728,9.2888,9.3127,9.3207,9.3207,9.3207,9.3053,9.2714,9.2068,9.0837,8.939,8.782,8.6589,8.5511,8.4619,8.4495,8.4495,8.4495,8.4495,8.4495,8.4495,8.388,8.348,8.348,8.3049,8.2772,8.2772,8.2772,8.2248,8.111,8.2187,8.2218,8.1079,8.2679,8.3018,8.2095,8.3726,8.4157,8.348,8.3018,8.2679,8.2464,8.2187,8.2341,8.2803,8.3018,8.2956,8.2741,8.2248,8.2064,8.2095,8.231,8.311,8.4054,7.3264,7.4262,7.5062,7.5346,7.7384,7.8986,7.9016,8.0054,8.0955,8.1213,8.1263,8.1684,8.2772,8.2514,8.251,8.3261,8.2978,8.2844,8.2844,8.2844,8.2844,8.2844,8.2844,8.2844,8.2844,8.2844,8.2844,8.2844,8.2844,8.2844,8.2844,8.2844,8.2844,8.2844,8.2844,8.2844,8.2844,8.2844,8.2844,8.2844,8.2844,8.2844,8.2844,8.2844,8.3008,8.3427,8.4085,8.4743,8.5521,8.6838,8.8095,8.9262,9.0309,9.0638,9.0638,9.0638,9.0638,9.0579,9.0339,9.0624,9.1156,9.178,9.2143,9.2407,9.2888,9.2968,9.3048,9.3207,9.3207,9.2899,9.2006,9.096,8.9759,8.8405,8.7266,8.6281,8.5604,8.5511,8.5419,8.5142,8.4865,8.4588,8.4342,8.3695,8.3418,8.3664,8.3572,8.348,8.348,8.3233,8.2587,8.151,8.2248,8.231,8.1479,8.3203,8.3541,8.2495,8.428,8.4742,8.4095,8.3664,8.3326,8.308,8.2649,8.2864,8.348,8.348,8.3326,8.3049,8.2649,8.2495,8.2495,8.2495,8.3326,8.4495,7.2297,7.2297,7.2795,7.4437,7.5639,7.6784,7.7872,7.9045,7.9465,7.8428,7.8287,7.8692,7.9733,7.9992,8.0776,8.2435,8.2693,8.2844,8.2844,8.2844,8.2844,8.2844,8.2844,8.2844,8.2844,8.2844,8.2844,8.2844,8.2844,8.2844,8.2844,8.2844,8.2844,8.2844,8.2844,8.2844,8.2844,8.2844,8.2844,8.2844,8.2844,8.2844,8.2844,8.2844,8.2844,8.2858,8.3576,8.4205,8.4923,8.6389,8.8125,8.9771,9.0429,9.0638,9.0638,9.0638,9.0638,9.0519,8.992,9.019,9.0654,9.0951,9.1416,9.2033,9.2487,9.2648,9.2728,9.3096,9.3207,9.2837,9.1606,9.0744,8.9821,8.8589,8.7697,8.6927,8.6219,8.6127,8.585,8.5173,8.4526,8.388,8.3326,8.271,8.2587,8.3141,8.3818,8.4157,8.4095,8.3449,8.2772,8.2095,8.2125,8.2125,8.2064,8.348,8.3818,8.311,8.4465,8.4742,8.4095,8.4095,8.3757,8.3172,8.3172,8.3541,8.4095,8.4157,8.3788,8.3172,8.311,8.308,8.308,8.3018,8.3818,8.4926,7.2297,7.2297,7.2385,7.2795,7.3435,7.4033,7.4225,7.4897,7.5638,7.6324,7.6385,7.6814,7.7936,7.9249,8.0228,8.062,8.1947,8.2844,8.2844,8.2844,8.2844,8.2844,8.2844,8.2844,8.2844,8.2844,8.2844,8.2844,8.2844,8.2844,8.2844,8.2844,8.2844,8.2844,8.2844,8.2844,8.2844,8.2844,8.2844,8.2844,8.2844,8.2844,8.2844,8.2844,8.2844,8.2918,8.4085,8.4594,8.5073,8.7437,8.8873,8.9771,9.0429,9.0638,9.0638,9.0638,9.0638,9.0608,9.0459,9.0519,9.0691,9.1148,9.1372,9.1708,9.2808,9.3048,9.3127,9.3176,9.3207,9.3114,9.2807,9.136,9.0098,8.9821,8.8312,8.6927,8.6219,8.6127,8.585,8.5173,8.4526,8.4249,8.4619,8.4526,8.428,8.3911,8.4495,8.4649,8.4126,8.3449,8.2772,8.2095,8.2587,8.2618,8.2095,8.3941,8.428,8.311,8.4465,8.4742,8.4095,8.4095,8.4003,8.388,8.388,8.3972,8.4126,8.468,8.4495,8.3818,8.3295,8.308,8.3018,8.2495,8.2833,8.3603,7.2297,7.2297,7.2297,7.2297,7.2742,7.3029,7.2768,7.3212,7.3698,7.4054,7.4147,7.4675,7.6096,7.7034,7.7933,7.874,8.0463,8.1533,8.1533,8.2359,8.2844,8.2844,8.2844,8.2844,8.2844,8.2844,8.2844,8.2844,8.2844,8.2844,8.2844,8.2844,8.2589,8.229,8.229,8.211,8.1841,8.217,8.229,8.232,8.2649,8.2844,8.2844,8.2844,8.2844,8.2858,8.3547,8.4384,8.5492,8.7526,8.8663,8.9322,8.998,9.016,9.0249,9.0549,9.0638,9.0579,9.0249,9.0399,9.0631,9.0825,9.1221,9.1789,9.2728,9.2643,9.2599,9.3114,9.296,9.2745,9.2745,9.1083,8.9636,8.9297,8.7543,8.6065,8.5696,8.5634,8.5511,8.5142,8.4526,8.3972,8.3695,8.3664,8.3634,8.3634,8.4249,8.4619,8.4588,8.3634,8.308,8.3049,8.2772,8.2741,8.3049,8.4095,8.4434,8.4065,8.4773,8.4926,8.4588,8.4588,8.4588,8.4557,8.4249,8.428,8.4588,8.4619,8.4403,8.4034,8.3357,8.308,8.3018,8.2341,8.271,8.3634,7.2297,7.2297,7.2297,7.2297,7.2663,7.282,7.2376,7.2689,7.282,7.2376,7.2297,7.2882,7.4267,7.475,7.5567,7.7362,7.882,7.9646,7.9646,8.1349,8.2359,8.2359,8.2587,8.2844,8.2844,8.2649,8.2649,8.2844,8.2844,8.2784,8.2589,8.2589,8.223,8.1601,8.1601,8.1302,8.0823,8.1392,8.1691,8.1841,8.238,8.2649,8.2844,8.2844,8.2844,8.2769,8.2888,8.4115,8.5881,8.7107,8.7975,8.8663,8.9412,8.9681,8.9801,9.0429,9.0549,9.0369,8.983,8.998,9.0272,9.0313,9.094,9.18,9.2376,9.217,9.2164,9.3004,9.2776,9.2376,9.2252,9.0744,8.9267,8.8343,8.665,8.5388,8.5142,8.5111,8.5111,8.5111,8.4619,8.3788,8.2556,8.2525,8.2833,8.3387,8.3849,8.4403,8.508,8.3818,8.3387,8.4065,8.3018,8.2956,8.4095,8.4218,8.4557,8.5111,8.5111,8.5111,8.5111,8.5111,8.5111,8.508,8.4526,8.4588,8.505,8.4372,8.4095,8.4003,8.3233,8.2926,8.2833,8.2279,8.2926,8.4095,7.2297,7.2297,7.2297,7.2297,7.2376,7.2376,7.2323,7.2376,7.2376,7.2323,7.2297,7.2385,7.2621,7.401,7.5567,7.7362,7.7689,7.7851,7.7851,7.9488,8.0463,8.0463,8.1947,8.2844,8.2844,8.22,8.22,8.2844,8.2844,8.2469,8.1931,8.1931,8.1572,8.0943,8.0943,8.0883,8.0794,8.0883,8.1272,8.1781,8.1871,8.226,8.2844,8.2844,8.2844,8.2828,8.3397,8.4504,8.5821,8.6569,8.7257,8.8035,8.9292,8.9681,8.9801,9.0429,9.0249,8.9771,8.9681,8.9322,8.9134,9.0102,9.0445,9.0819,9.18,9.2507,9.3004,9.3176,9.3114,9.2899,9.2345,9.1514,9.0344,8.8497,8.7481,8.6496,8.5265,8.5111,8.5111,8.5111,8.5019,8.468,8.388,8.4342,8.4742,8.4834,8.4372,8.4403,8.508,8.3818,8.3387,8.4065,8.3911,8.3911,8.4095,8.468,8.5019,8.5111,8.5111,8.5111,8.5111,8.5111,8.5111,8.5111,8.5019,8.5019,8.505,8.4372,8.4095,8.3972,8.271,8.2218,8.2187,8.2125,8.2926,8.4095,7.2245,7.2036,7.1905,7.2245,7.2297,7.2297,7.2297,7.2297,7.2297,7.2297,7.2297,7.2297,7.2297,7.2969,7.378,7.4523,7.5483,7.6068,7.6068,7.7689,7.866,7.866,7.9408,8.0132,8.0771,8.0477,8.0787,8.1661,8.1661,8.1512,8.1242,8.1242,8.0883,8.0285,8.0644,8.0584,8.0285,8.1033,8.1512,8.1811,8.217,8.2499,8.2844,8.2844,8.2844,8.2858,8.3487,8.4354,8.5252,8.591,8.6569,8.7377,8.8693,8.9112,8.9322,9.0339,9.016,8.9681,8.9681,8.9172,8.8924,8.9717,9.0111,9.0536,9.1393,9.2033,9.2568,9.2808,9.2612,9.2367,9.2666,9.1298,8.979,8.8897,8.7204,8.5819,8.5203,8.4773,8.4403,8.4034,8.3972,8.3849,8.3572,8.3818,8.4126,8.4526,8.3911,8.3818,8.4495,8.3634,8.3387,8.4065,8.4095,8.428,8.4649,8.4957,8.4926,8.4557,8.4926,8.5111,8.5111,8.5111,8.5111,8.5111,8.5111,8.4896,8.4557,8.4619,8.4218,8.348,8.2864,8.2402,8.2064,8.2064,8.271,8.3541]}]]